Date StartTime U_cm/s V_cm/s W_cm/s Ustd_cm/s Vstd_cm/s Wstd_cm/s Uvar_(cm/s)^2 Vvar_(cm/s)^2 Wvar_(cm/s)^2 KE_(m/s)^2 TurbulentKE_(m/s)^2 HorizWindSpeed_cm/s FrictionSpeec_cm/s DragCoef SpeedOfSound_m/s SonicTemperature_C Pressure_mb 
02/06/2014  00:00:00     -185.504      -69.505       -3.123       92.237       56.944       39.100     8507.715     3242.655     1528.834        2.626        0.664      198.098       43.862        0.049      334.428        4.392      857.419
02/06/2014  00:01:00     -125.527      -41.076      -10.503       50.188       27.401       22.078     2518.816      750.790      487.425        1.066        0.188      132.077       22.798        0.030      334.474        4.472      857.407
02/06/2014  00:02:00      -73.048      -77.809       -1.246       43.139       36.466       21.623     1860.945     1329.805      467.547        0.752        0.183      106.725       21.338        0.040      334.519        4.543      857.387
02/06/2014  00:03:00      -46.935      -91.659        5.793       36.928       42.284       17.899     1363.659     1787.965      320.363        0.705        0.174      102.977       21.074        0.042      334.520        4.548      857.381
02/06/2014  00:04:00      -29.588      -43.161       11.759       29.467       43.421       19.115      868.284     1885.366      365.377        0.300        0.156       52.329       21.214        0.164      334.575        4.639      857.370
02/06/2014  00:05:00      -74.723      -30.259        2.280       30.581       29.393       25.116      935.206      863.926      630.836        0.447        0.121       80.618       19.190        0.057      334.579        4.644      857.363
02/06/2014  00:06:00      -17.468      -35.722        0.836       44.358       25.817       19.806     1967.656      666.525      392.266        0.230        0.151       39.764        8.709        0.048      334.581        4.648      857.374
02/06/2014  00:07:00      -65.725      -44.372       -0.414       29.113       28.063       14.793      847.544      787.554      218.822        0.407        0.093       79.301        8.315        0.011      334.490        4.498      857.371
02/06/2014  00:08:00      -76.674        9.540        1.704       55.692       34.864       23.960     3101.635     1215.491      574.079        0.543        0.245       77.265       18.741        0.059      334.452        4.437      857.374
02/06/2014  00:09:00      -31.728      -19.435       14.310       56.480       42.556       30.005     3189.937     1811.046      900.307        0.374        0.295       37.207       30.154        0.657      334.484        4.488      857.369
02/06/2014  00:10:00      -49.754      -65.421       -0.169       34.399       29.932       19.943     1183.304      895.906      397.720        0.462        0.124       82.192       19.479        0.056      334.518        4.544      857.366
02/06/2014  00:11:00      -76.019     -105.793        0.656       52.428       45.954       36.114     2748.734     2111.771     1304.257        1.157        0.308      130.273       30.435        0.055      334.517        4.542      857.347
02/06/2014  00:12:00      -59.036     -107.303        1.755       49.595       64.090       34.103     2459.659     4107.574     1163.022        1.137        0.387      122.471       25.295        0.043      334.515        4.537      857.331
02/06/2014  00:13:00     -162.355      -95.081        3.011       75.517       42.843       33.094     5702.888     1835.547     1095.241        2.202        0.432      188.148       30.339        0.026      334.502        4.514      857.331
02/06/2014  00:14:00     -122.052      -66.279      -13.380       57.273       30.598       20.454     3280.207      936.222      418.356        1.205        0.232      138.887        8.357        0.004      334.512        4.532      857.327
02/06/2014  00:15:00      -47.353     -102.862        1.253       39.700       42.085       20.784     1576.091     1771.168      431.965        0.830        0.189      113.238       21.879        0.037      334.520        4.544      857.311
02/06/2014  00:16:00      -51.654      -65.062        9.343       36.967       30.985       23.511     1366.542      960.074      552.774        0.493        0.144       83.073       14.670        0.031      334.545        4.588      857.303
02/06/2014  00:17:00      -44.836      -52.270        5.706       31.230       30.667       16.088      975.314      940.488      258.831        0.347        0.109       68.866       15.918        0.053      334.543        4.584      857.294
02/06/2014  00:18:00      -75.958      -57.466       -1.879       34.068       41.705       22.512     1160.604     1739.273      506.786        0.624        0.170       95.246       21.194        0.050      334.506        4.523      857.278
02/06/2014  00:19:00      -42.511      -23.920        5.329       35.713       29.316       21.857     1275.454      859.455      477.707        0.251        0.131       48.778       22.320        0.209      334.591        4.664      857.262
02/06/2014  00:20:00       -4.185      -27.082       10.667       33.251       27.559       23.805     1105.597      759.482      566.692        0.165        0.122       27.403       20.168        0.542      334.654        4.768      857.242
02/06/2014  00:21:00      -68.575      -51.420        4.944       64.568       40.251       28.056     4169.022     1620.151      787.117        0.697        0.329       85.712       28.468        0.110      334.621        4.714      857.231
02/06/2014  00:22:00      -93.508      -65.532       -3.614       58.132       36.784       22.925     3379.341     1353.058      525.536        0.915        0.263      114.185       20.617        0.033      334.550        4.594      857.236
02/06/2014  00:23:00      -56.299      -72.774       10.211       48.714       44.780       27.401     2373.084     2005.293      750.797        0.685        0.256       92.009       27.476        0.089      334.565        4.622      857.238
02/06/2014  00:24:00     -103.097     -112.699      -19.681       32.732       41.135       17.901     1071.402     1692.100      320.432        1.340        0.154      152.742       14.998        0.010      334.554        4.602      857.232
02/06/2014  00:25:00      -82.947      -93.103       -0.125       34.633       31.713       20.026     1199.426     1005.704      401.022        0.908        0.130      124.693       20.277        0.026      334.558        4.611      857.218
02/06/2014  00:26:00      -59.431      -69.295      -14.862       23.930       40.132       17.579      572.637     1610.602      309.026        0.552        0.125       91.290       14.259        0.024      334.568        4.628      857.210
02/06/2014  00:27:00      -98.699      -91.732       -8.466       29.364       29.251       19.269      862.226      855.649      371.284        1.016        0.104      134.745       13.029        0.009      334.571        4.630      857.206
02/06/2014  00:28:00     -123.104      -80.753       -6.310       31.912       38.157       23.059     1018.401     1455.941      531.697        1.236        0.150      147.226       18.217        0.015      334.563        4.617      857.209
02/06/2014  00:29:00      -88.791      -42.889        5.047       46.518       26.419       17.969     2163.960      697.971      322.899        0.647        0.159       98.607       21.062        0.046      334.574        4.635      857.204
02/06/2014  00:30:00      -88.269      -62.802       -8.143       32.060       19.081       18.639     1027.816      364.069      347.416        0.677        0.087      108.330       19.074        0.031      334.584        4.652      857.203
02/06/2014  00:31:00      -72.940      -60.378       -1.933       35.915       38.660       22.181     1289.910     1494.575      492.008        0.612        0.164       94.688       17.790        0.035      334.614        4.703      857.205
02/06/2014  00:32:00     -111.062      -76.768      -13.885       29.227       23.168       15.417      854.210      536.749      237.677        1.002        0.081      135.012       11.098        0.007      334.513        4.534      857.208
02/06/2014  00:33:00      -78.700      -44.364       -6.927       32.678       30.271       12.477     1067.826      916.325      155.669        0.517        0.107       90.343       11.097        0.015      334.536        4.573      857.213
02/06/2014  00:34:00      -70.038      -27.120        0.593       28.893       39.382       16.256      834.825     1550.937      264.243        0.415        0.133       75.105       13.965        0.035      334.501        4.515      857.206
02/06/2014  00:35:00      -62.343      -12.015        1.766       43.405       34.751       22.011     1884.030     1207.620      484.473        0.380        0.179       63.490       22.197        0.122      334.503        4.518      857.193
02/06/2014  00:36:00      -78.636      -28.878       -7.794       34.739       34.853       20.926     1206.832     1214.736      437.910        0.497        0.143       83.771       18.760        0.050      334.518        4.544      857.186
02/06/2014  00:37:00     -123.307      -53.291       -4.991       34.166       30.950       18.244     1167.291      957.921      332.835        1.026        0.123      134.330       16.727        0.016      334.525        4.554      857.177
02/06/2014  00:38:00      -49.069      -59.381        5.676       46.434       43.083       33.229     2156.132     1856.151     1104.166        0.554        0.256       77.031       31.293        0.165      334.610        4.696      857.180
02/06/2014  00:39:00      -67.708      -15.509        7.543       70.566       32.631       27.910     4979.617     1064.757      778.987        0.585        0.341       69.462       29.088        0.175      334.527        4.558      857.185
02/06/2014  00:40:00      -98.074      -59.709        4.840       55.067       40.736       28.388     3032.366     1659.451      805.899        0.935        0.275      114.820       30.955        0.073      334.498        4.511      857.182
02/06/2014  00:41:00      -88.171      -35.137        1.612       53.450       53.608       24.604     2856.863     2873.787      605.338        0.767        0.317       94.914       27.771        0.086      334.505        4.522      857.169
02/06/2014  00:42:00      -50.058      -89.984        9.150       69.068       50.714       34.729     4770.347     2571.899     1206.097        0.962        0.427      102.971       36.413        0.125      334.541        4.582      857.163
02/06/2014  00:43:00     -127.045       10.218      -11.342       33.868       41.728       19.327     1147.032     1741.223      373.551        0.982        0.163      127.455       13.746        0.012      334.444        4.421      857.161
02/06/2014  00:44:00     -218.771       -0.441       -9.612       61.098       41.780       31.004     3732.935     1745.599      961.245        2.720        0.322      218.772       30.424        0.019      334.383        4.316      857.166
02/06/2014  00:45:00     -226.011        2.026      -26.213       59.491       52.274       37.671     3539.139     2732.552     1419.071        2.973        0.385      226.020       38.102        0.028      334.367        4.290      857.165
02/06/2014  00:46:00     -106.765        0.152      -10.152       38.846       40.302       27.646     1509.026     1624.246      764.313        0.770        0.195      106.765       20.576        0.037      334.372        4.304      857.159
02/06/2014  00:47:00      -92.273      -33.084        4.197       40.687       42.478       20.993     1655.393     1804.387      440.719        0.676        0.195       98.024       14.860        0.023      334.419        4.379      857.151
02/06/2014  00:48:00     -104.438      -45.856       -5.785       74.464       39.353       27.001     5544.954     1548.696      729.081        1.043        0.391      114.062       23.590        0.043      334.434        4.404      857.149
02/06/2014  00:49:00     -193.157     -166.755       -7.009       92.482       81.964       50.073     8552.924     6718.131     2507.262        4.147        0.889      255.180       52.812        0.043      334.429        4.391      857.134
02/06/2014  00:50:00      -48.974        5.301        4.597       49.434       62.117       35.318     2443.695     3858.500     1247.354        0.500        0.377       49.260       32.059        0.424      334.414        4.372      857.119
02/06/2014  00:51:00      -61.090      -28.778        4.426       29.697       41.313       18.779      881.937     1706.744      352.637        0.376        0.147       67.529       13.179        0.038      334.427        4.394      857.101
02/06/2014  00:52:00     -106.426      -22.165       -7.052       58.242       45.709       23.012     3392.095     2089.339      529.531        0.894        0.301      108.709       28.125        0.067      334.387        4.328      857.083
02/06/2014  00:53:00      -85.882      -60.291       -3.301       64.907       39.261       19.126     4212.936     1541.425      365.822        0.857        0.306      104.932       25.778        0.060      334.433        4.402      857.053
02/06/2014  00:54:00     -123.393     -109.030       -5.636       61.460       73.259       40.358     3777.297     5366.840     1628.732        1.896        0.539      164.661       35.965        0.048      334.422        4.383      857.023
02/06/2014  00:55:00       -5.885       -4.050       19.090       75.914       44.793       37.676     5762.969     2006.371     1419.502        0.480        0.459        7.144       40.771       32.570      334.477        4.475      856.990
02/06/2014  00:56:00      -58.442       -6.975        8.739       90.209       52.631       33.882     8137.628     2770.075     1148.003        0.780        0.603       58.857       35.870        0.371      334.442        4.417      856.958
02/06/2014  00:57:00     -206.185     -164.751       -0.366      139.683       75.344       54.388    19511.338     5676.681     2958.027        4.890        1.407      263.922       54.247        0.042      334.419        4.378      856.956
02/06/2014  00:58:00     -267.180     -180.233      -11.043      127.736      104.092       61.586    16316.463    10835.183     3792.774        6.746        1.547      322.287       58.384        0.033      334.428        4.392      856.946
02/06/2014  00:59:00     -262.805     -170.669       -3.964      104.624      118.183       53.983    10946.254    13967.190     2914.111        6.301        1.391      313.360       54.953        0.031      334.378        4.310      856.947
02/06/2014  01:00:00     -101.932      -65.754       10.223       70.634       61.117       48.961     4989.156     3735.320     2397.156        1.297        0.556      121.300       37.055        0.093      334.414        4.370      856.940
02/06/2014  01:01:00     -154.168     -136.854       -5.098       75.437       84.520       50.920     5690.691     7143.619     2592.827        2.897        0.771      206.148       44.324        0.046      334.401        4.348      856.923
02/06/2014  01:02:00     -215.830     -117.109       -1.378      102.758       74.077       50.597    10559.147     5487.331     2560.006        3.945        0.930      245.555       53.959        0.048      334.395        4.335      856.913
02/06/2014  01:03:00     -192.271     -162.228        2.128      107.769       88.087       61.646    11614.185     7759.240     3800.285        4.323        1.159      251.567       53.575        0.045      334.400        4.344      856.911
02/06/2014  01:04:00     -190.664     -154.541       -4.643       95.026       61.868       47.657     9029.863     3827.661     2271.187        3.769        0.756      245.430       44.002        0.032      334.395        4.337      856.883
02/06/2014  01:05:00     -110.205      -98.978       -2.924       83.986       44.964       34.079     7053.703     2021.763     1161.374        1.609        0.512      148.128       32.922        0.049      334.405        4.355      856.872
02/06/2014  01:06:00     -122.655      -95.125        9.191      120.507       82.848       41.815    14522.057     6863.782     1748.468        2.365        1.157      155.219       56.037        0.130      334.373        4.302      856.864
02/06/2014  01:07:00     -219.186     -142.345       -9.568      102.236      120.958       53.130    10452.188    14630.883     2822.836        4.815        1.395      261.352       63.624        0.059      334.340        4.246      856.843
02/06/2014  01:08:00     -131.529      -58.987        5.549       99.905       66.441       40.860     9980.944     4414.437     1669.534        1.843        0.803      144.151       51.607        0.128      334.357        4.276      856.840
02/06/2014  01:09:00     -259.859     -178.697       -4.116      103.590      110.012       60.808    10730.890    12102.663     3697.554        6.300        1.327      315.372       63.921        0.041      334.285        4.152      856.855
02/06/2014  01:10:00     -152.264      -68.676        6.077      109.685       67.524       46.494    12030.783     4559.548     2161.729        2.334        0.938      167.035       51.291        0.094      334.306        4.188      856.851
02/06/2014  01:11:00     -188.325     -116.105       -5.352       82.849       65.211       41.058     6863.926     4252.412     1685.774        3.089        0.640      221.239       39.570        0.032      334.311        4.196      856.847
02/06/2014  01:12:00     -227.032     -115.042       -6.739       70.909       61.279       35.822     5028.052     3755.107     1283.208        3.744        0.503      254.515       36.016        0.020      334.275        4.136      856.846
02/06/2014  01:13:00     -165.594      -92.280       -6.407       69.901       75.505       35.449     4886.196     5701.050     1256.646        2.391        0.592      189.571       41.005        0.047      334.274        4.135      856.859
02/06/2014  01:14:00     -204.499     -113.755      -15.090       55.648       57.277       36.707     3096.670     3280.605     1347.426        3.135        0.386      234.009       35.932        0.024      334.245        4.086      856.873
02/06/2014  01:15:00     -207.196      -81.196       -8.057       82.891       44.757       29.404     6870.860     2003.206      864.588        2.966        0.487      222.538       30.576        0.019      334.227        4.056      856.883
02/06/2014  01:16:00     -136.263      -76.575      -12.769       62.663       53.390       28.390     3926.616     2850.476      806.020        1.609        0.379      156.305       26.926        0.030      334.257        4.109      856.888
02/06/2014  01:17:00     -205.103     -169.277        2.538      102.285      104.647       62.517    10462.254    10950.966     3908.383        4.802        1.266      265.936       63.256        0.057      334.189        3.994      856.889
02/06/2014  01:18:00     -188.124     -162.989       -8.845       95.204       73.081       52.931     9063.826     5340.787     2801.714        3.962        0.860      248.910       47.223        0.036      334.175        3.970      856.894
02/06/2014  01:19:00     -156.234      -99.994       -7.827       66.437       65.587       33.725     4413.887     4301.682     1137.363        2.216        0.493      185.494       29.490        0.025      334.192        3.999      856.902
02/06/2014  01:20:00     -219.128     -123.171      -20.393      121.254       73.078       42.243    14702.420     5340.337     1784.502        4.271        1.091      251.373       52.409        0.043      334.098        3.842      856.902
02/06/2014  01:21:00      -81.689      -44.947        5.997       77.866       83.666       40.229     6063.175     6999.923     1618.381        1.170        0.734       93.238       42.200        0.205      334.172        3.968      856.905
02/06/2014  01:22:00     -170.385      -80.589       -6.211       66.996       68.028       35.278     4488.399     4627.824     1244.542        2.296        0.518      188.482       31.580        0.028      334.117        3.876      856.914
02/06/2014  01:23:00     -114.528      -18.323       10.650       68.604       58.799       34.567     4706.551     3457.316     1194.899        1.146        0.468      115.984       35.881        0.096      334.144        3.923      856.919
02/06/2014  01:24:00     -208.057       20.335      -18.221       89.480       55.312       37.922     8006.604     3059.452     1438.065        2.827        0.625      209.048       44.498        0.045      334.060        3.783      856.915
02/06/2014  01:25:00     -221.632      -47.442      -27.805       77.546       60.393       33.197     6013.451     3647.257     1102.073        3.145        0.538      226.653       32.275        0.020      334.036        3.740      856.920
02/06/2014  01:26:00      -73.185        3.269      -10.200       91.056       41.457       24.239     8291.254     1718.673      587.551        0.803        0.530       73.258       26.692        0.133      334.068        3.795      856.902
02/06/2014  01:27:00     -127.111      -30.445       -3.588       98.370       61.988       41.964     9676.600     3842.530     1761.017        1.619        0.764      130.706       43.996        0.113      333.975        3.642      856.892
02/06/2014  01:28:00      -86.316       -6.459        1.018       56.162       69.580       37.895     3154.193     4841.376     1436.037        0.846        0.472       86.558       38.716        0.200      334.009        3.700      856.880
02/06/2014  01:29:00      -66.871       54.489      -15.149       52.011       39.181       33.404     2705.123     1535.170     1115.850        0.651        0.268       86.260       39.835        0.213      334.067        3.795      856.899
02/06/2014  01:30:00     -103.271       47.306      -15.853       91.953       72.360       30.365     8455.417     5236.015      922.058        1.388        0.731      113.591       31.578        0.077      334.016        3.709      856.883
02/06/2014  01:31:00     -109.071       88.065      -13.298       80.109      103.598       45.233     6417.439    10732.475     2045.988        1.951        0.960      140.185       38.797        0.077      333.937        3.579      856.878
02/06/2014  01:32:00     -125.651       40.117      -12.789       40.651      100.917       39.082     1652.516    10184.331     1527.379        1.546        0.668      131.900       31.243        0.056      333.939        3.582      856.866
02/06/2014  01:33:00     -137.229      132.480      -38.764       62.666       94.300       35.083     3927.002     8892.578     1230.841        2.597        0.703      190.742       27.283        0.020      333.962        3.620      856.882
02/06/2014  01:34:00      -85.321       73.898       -5.529       50.347       67.627       31.808     2534.818     4573.431     1011.738        1.044        0.406      112.874       22.341        0.039      334.033        3.739      856.884
02/06/2014  01:35:00      -84.603       40.814        7.535       74.741       98.393       47.054     5586.247     9681.182     2214.111        1.318        0.874       93.933       33.280        0.126      333.965        3.624      856.879
02/06/2014  01:36:00      -36.714       49.417        9.216       50.811       66.320       35.341     2581.798     4398.293     1248.970        0.605        0.411       61.563       27.389        0.198      333.962        3.621      856.872
02/06/2014  01:37:00     -161.151       70.994      -24.743       74.532       63.976       35.155     5554.980     4092.911     1235.906        2.125        0.544      176.096       27.316        0.024      333.851        3.435      856.877
02/06/2014  01:38:00      -87.035       61.000       -9.730       54.718       69.747       34.646     2994.046     4864.696     1200.349        1.022        0.453      106.282       19.474        0.034      333.860        3.452      856.869
02/06/2014  01:39:00      -18.792       41.735       12.282       59.279       64.001       32.001     3514.053     4096.186     1024.037        0.544        0.432       45.770       22.311        0.238      334.008        3.696      856.855
02/06/2014  01:40:00        9.313       31.724       11.647       43.289       67.360       32.192     1873.942     4537.342     1036.335        0.434        0.372       33.063       32.173        0.947      333.990        3.668      856.849
02/06/2014  01:41:00      -59.368       94.621        1.146       52.028       80.342       37.681     2706.862     6454.761     1419.848        1.153        0.529      111.703       37.557        0.113      334.043        3.756      856.834
02/06/2014  01:42:00      -49.679      112.073       -1.429       63.237      108.094       46.657     3998.956    11684.233     2176.895        1.644        0.893      122.590       56.420        0.212      334.032        3.736      856.818
02/06/2014  01:43:00      -89.984       77.888      -13.981       58.469       90.908       37.884     3418.631     8264.259     1435.208        1.374        0.656      119.011       42.577        0.128      334.008        3.695      856.821
02/06/2014  01:44:00      -78.810      -16.433        5.117       61.930       58.269       36.829     3835.284     3395.273     1356.406        0.755        0.429       80.506       36.383        0.204      333.980        3.652      856.839
02/06/2014  01:45:00     -101.025      -40.935       12.563       92.633       66.044       34.706     8580.844     4361.816     1204.534        1.309        0.707      109.003       42.218        0.150      333.970        3.634      856.840
02/06/2014  01:46:00     -101.901     -111.710        1.004      140.026       60.223       51.370    19607.224     3626.760     2638.830        2.436        1.294      151.205       64.387        0.181      333.915        3.541      856.834
02/06/2014  01:47:00     -109.819      -23.796        2.452       43.093       40.158       33.633     1856.988     1612.701     1131.168        0.862        0.230      112.367        9.995        0.008      333.899        3.516      856.815
02/06/2014  01:48:00      -78.145      -57.499        0.932       63.052       43.443       28.593     3975.526     1887.269      817.568        0.805        0.334       97.020       28.053        0.084      333.943        3.590      856.833
02/06/2014  01:49:00     -130.491      -67.334      -11.178       85.246      105.310       45.383     7266.868    11090.096     2059.601        2.105        1.021      146.839       40.578        0.076      333.850        3.432      856.807
02/06/2014  01:50:00     -104.238      -12.851        7.782       63.214       52.677       38.469     3995.958     2774.894     1479.863        0.967        0.413      105.027       29.195        0.077      333.881        3.486      856.821
02/06/2014  01:51:00     -294.398      -24.746      -15.953      118.743       95.053       58.123    14099.832     9035.113     3378.320        5.702        1.326      295.436       54.614        0.034      333.873        3.471      856.829
02/06/2014  01:52:00     -281.037     -108.472      -19.411       85.460       92.521       46.666     7303.440     8560.091     2177.756        5.458        0.902      301.244       35.271        0.014      333.893        3.505      856.823
02/06/2014  01:53:00     -180.067       78.903        1.031      134.251      157.528       66.526    18023.377    24814.935     4425.761        4.295        2.363      196.595       73.743        0.141      333.896        3.509      856.822
02/06/2014  01:54:00     -201.541     -112.359       -3.341      148.658       88.075       54.383    22099.071     7757.182     2957.494        4.303        1.641      230.745       57.097        0.061      333.879        3.481      856.804
02/06/2014  01:55:00     -154.576      -66.065       32.314      194.547      128.255       75.926    37848.607    16449.277     5764.713        4.467        3.003      168.102      104.106        0.384      333.859        3.449      856.805
02/06/2014  01:56:00     -382.584     -145.941      -25.265      157.495      117.414       63.741    24804.769    13786.007     4062.966       10.547        2.133      409.475       65.726        0.026      333.732        3.235      856.790
02/06/2014  01:57:00     -254.603      -73.505        3.511      140.367       88.173       56.663    19702.755     7774.440     3210.727        5.046        1.534      265.001       49.894        0.035      333.733        3.239      856.787
02/06/2014  01:58:00     -183.806       13.458        7.582      112.311       80.185       50.882    12613.852     6429.613     2588.950        2.782        1.082      184.298       54.779        0.088      333.780        3.316      856.806
02/06/2014  01:59:00     -134.681      -19.127       -4.991       57.259       57.105       34.309     3278.626     3260.939     1177.093        1.312        0.386      136.032       33.523        0.061      333.779        3.316      856.805
02/06/2014  02:00:00     -111.974      -70.077       -0.838       87.871       55.807       34.526     7721.331     3114.410     1192.044        1.474        0.601      132.094       41.048        0.097      333.776        3.310      856.802
02/06/2014  02:01:00     -217.811      -35.826      -40.229      120.520       61.526       45.980    14525.190     3785.485     2114.142        3.538        1.021      220.738       48.916        0.049      333.767        3.294      856.814
02/06/2014  02:02:00      -55.374      -17.004       -1.737       56.698       54.073       34.629     3214.699     2923.935     1199.187        0.535        0.367       57.926       21.156        0.133      333.820        3.386      856.799
02/06/2014  02:03:00      -19.495       -4.248       13.233      100.437       38.348       29.257    10087.522     1470.539      855.968        0.649        0.621       19.953       33.813        2.872      333.937        3.579      856.813
02/06/2014  02:04:00     -249.523      -17.771      -19.355       98.691       73.594       42.468     9739.841     5416.027     1803.500        3.995        0.848      250.155       44.411        0.032      333.745        3.258      856.841
02/06/2014  02:05:00     -138.562      -12.005       -0.466       75.844       68.313       29.223     5752.374     4666.694      853.998        1.531        0.564      139.081       28.248        0.041      333.787        3.330      856.868
02/06/2014  02:06:00      -91.199      -66.989       15.536      113.626       71.038       61.250    12910.955     5046.465     3751.621        1.737        1.085      113.158       61.448        0.295      333.827        3.396      856.867
02/06/2014  02:07:00      -93.903      -12.594        8.326       77.336       60.679       43.138     5980.899     3681.921     1860.920        1.028        0.576       94.744       42.904        0.205      333.843        3.423      856.877
02/06/2014  02:08:00     -337.640      -41.134        4.854      179.641      104.091       70.587    32271.024    10834.861     4982.548        8.189        2.404      340.137       79.274        0.054      333.706        3.193      856.882
02/06/2014  02:09:00     -297.403      -18.144       -8.500      121.732      103.032       61.102    14818.743    10615.626     3733.414        5.900        1.458      297.956       61.515        0.043      333.710        3.200      856.901
02/06/2014  02:10:00     -176.793      -88.644        4.950      101.562       83.389       45.416    10314.928     6953.650     2062.588        2.923        0.967      197.771       46.072        0.054      333.711        3.201      856.896
02/06/2014  02:11:00     -274.657       17.907      -11.317      143.305      129.018       69.740    20536.222    16645.638     4863.665        5.896        2.102      275.240       74.086        0.072      333.678        3.147      856.885
02/06/2014  02:12:00     -154.843     -104.178       -1.251       83.041       61.271       44.374     6895.833     3754.164     1969.059        2.372        0.631      186.627       37.245        0.040      333.727        3.230      856.886
02/06/2014  02:13:00     -228.141      -97.338       -8.745       74.913       64.344       36.370     5611.912     4140.172     1322.771        3.634        0.554      248.038       29.491        0.014      333.703        3.187      856.904
02/06/2014  02:14:00     -180.836      -32.250        0.698      105.939       64.083       43.503    11223.041     4106.615     1892.537        2.548        0.861      183.689       43.658        0.056      333.739        3.248      856.886
02/06/2014  02:15:00     -249.308      -30.366       -9.561      105.516       58.970       45.641    11133.546     3477.496     2083.069        3.993        0.835      251.151       48.219        0.037      333.733        3.236      856.893
02/06/2014  02:16:00     -164.414     -126.541      -15.702      102.796       91.184       50.319    10567.046     8314.563     2531.980        3.235        1.071      207.471       56.170        0.073      333.753        3.270      856.895
02/06/2014  02:17:00     -113.259       -9.816        4.953       76.422       58.716       31.256     5840.265     3447.606      976.937        1.160        0.513      113.683       32.115        0.080      333.793        3.341      856.887
02/06/2014  02:18:00     -215.499       88.613       -3.648      109.611       77.764       62.509    12014.510     6047.261     3907.320        3.813        1.098      233.007       52.368        0.051      333.774        3.304      856.880
02/06/2014  02:19:00     -247.266       13.326      -17.168      126.576      113.361       65.087    16021.558    12850.658     4236.328        4.736        1.655      247.625       72.288        0.085      333.774        3.304      856.871
02/06/2014  02:20:00     -263.744       -8.658       -8.141      124.241       88.547       60.012    15435.800     7840.613     3601.482        4.829        1.344      263.886       77.442        0.086      333.803        3.351      856.879
02/06/2014  02:21:00     -214.271      -82.135       -7.329       70.824       65.971       33.932     5015.995     4352.163     1151.393        3.161        0.526      229.474       31.411        0.019      333.752        3.268      856.893
02/06/2014  02:22:00     -130.485       -5.702       -5.385       47.318       53.612       26.608     2239.037     2874.230      707.996        1.145        0.291      130.609       15.998        0.015      333.757        3.280      856.881
02/06/2014  02:23:00      -83.674       31.444       -1.454       71.468      108.323       46.557     5107.731    11733.963     2167.524        1.350        0.950       89.387       42.529        0.226      333.762        3.289      856.855
02/06/2014  02:24:00     -108.522      -19.534       -4.736       58.670       63.109       30.015     3442.164     3982.792      900.900        1.025        0.416      110.266       28.835        0.068      333.739        3.250      856.857
02/06/2014  02:25:00      -67.545      -51.677        3.037       82.246       37.240       31.869     6764.382     1386.803     1015.613        0.820        0.458       85.046       20.752        0.060      333.889        3.500      856.869
02/06/2014  02:26:00     -238.391     -222.141      -13.649      138.268       90.131       64.767    19118.078     8123.547     4194.828        6.889        1.572      325.848       65.830        0.041      333.650        3.101      856.872
02/06/2014  02:27:00     -217.407     -195.244        1.300      134.799      107.793       70.139    18170.885    11619.231     4919.475        6.004        1.735      292.209       72.155        0.061      333.604        3.025      856.845
02/06/2014  02:28:00     -153.173     -115.120       -2.212      102.331       94.626       55.902    10471.676     8954.055     3125.015        2.963        1.128      191.610       50.218        0.069      333.594        3.007      856.848
02/06/2014  02:29:00     -115.459      -69.629        8.295       81.418       76.256       43.475     6628.815     5815.008     1890.087        1.629        0.717      134.830       44.473        0.109      333.610        3.036      856.848
02/06/2014  02:30:00      -95.174      -10.518       -9.405       67.452       32.337       22.980     4549.813     1045.711      528.096        0.769        0.306       95.754       15.315        0.026      333.629        3.071      856.841
02/06/2014  02:31:00     -218.703      -58.884       -2.713       77.714       59.731       38.018     6039.454     3567.745     1445.381        3.118        0.553      226.491       37.708        0.028      333.603        3.023      856.840
02/06/2014  02:32:00      -90.272      -62.064        4.898       99.590       90.343       54.340     9918.110     8161.841     2952.801        1.653        1.052      109.549       56.981        0.271      333.666        3.128      856.850
02/06/2014  02:33:00      -27.150      -17.572       18.536       42.915       34.629       33.853     1841.666     1199.151     1146.002        0.279        0.209       32.340       31.760        0.964      333.787        3.330      856.852
02/06/2014  02:34:00     -217.255     -119.655       -8.915      146.159       85.101       45.436    21362.408     7242.185     2064.410        4.613        1.533      248.027       39.095        0.025      333.653        3.106      856.857
02/06/2014  02:35:00     -228.580     -151.909      -12.987      132.635      124.871       68.843    17591.967    15592.702     4739.359        5.670        1.896      274.454       56.845        0.043      333.719        3.214      856.851
02/06/2014  02:36:00     -191.342     -218.381       -4.497      139.897      112.993       50.164    19571.157    12767.454     2516.385        5.958        1.743      290.348       41.402        0.020      333.642        3.087      856.857
02/06/2014  02:37:00     -264.067     -162.919       -3.681      149.062      142.928       66.666    22219.405    20428.472     4444.325        7.168        2.355      310.281       71.960        0.054      333.630        3.068      856.856
02/06/2014  02:38:00     -110.198     -112.396        5.619       77.882       67.735       46.219     6065.612     4588.096     2136.153        1.880        0.639      157.405       44.991        0.082      333.681        3.153      856.883
02/06/2014  02:39:00     -148.847     -101.353        1.528       92.166       56.953       38.339     8494.543     3243.696     1469.903        2.282        0.660      180.077       40.772        0.051      333.664        3.124      856.897
02/06/2014  02:40:00     -161.277      -82.515        0.431      115.268       89.857       58.421    13286.672     8074.311     3412.992        2.879        1.239      181.160       60.433        0.111      333.687        3.162      856.901
02/06/2014  02:41:00      -61.106      -41.197       13.193       76.450       63.344       41.169     5844.627     4012.425     1694.901        0.858        0.578       73.696       41.602        0.319      333.705        3.195      856.918
02/06/2014  02:42:00      -36.795      -69.926       12.613       44.040       46.265       28.811     1939.556     2140.469      830.093        0.566        0.246       79.016       26.238        0.110      333.748        3.266      856.936
02/06/2014  02:43:00      -99.933      -89.448       -8.421       53.148       39.214       26.150     2824.728     1537.761      683.800        1.155        0.252      134.118       26.857        0.040      333.686        3.163      856.946
02/06/2014  02:44:00     -106.601      -41.589        1.606       52.448       38.369       24.166     2750.814     1472.218      583.989        0.895        0.240      114.426       23.724        0.043      333.692        3.172      856.953
02/06/2014  02:45:00      -91.953      -47.129       -4.894       40.875       44.438       22.616     1670.784     1974.770      511.494        0.743        0.208      103.327       20.371        0.039      333.714        3.210      856.968
02/06/2014  02:46:00     -101.959      -26.008       -6.211       50.514       38.066       21.836     2551.706     1449.025      476.810        0.779        0.224      105.223       15.582        0.022      333.730        3.236      856.965
02/06/2014  02:47:00     -169.991      -54.729       -3.483       69.794       53.327       35.987     4871.247     2843.742     1295.092        2.046        0.451      178.584       40.461        0.051      333.656        3.113      856.978
02/06/2014  02:48:00     -195.517       -3.939      -23.582       61.301       55.837       30.167     3757.769     3117.746      910.023        2.329        0.389      195.557       31.934        0.027      333.577        2.980      856.975
02/06/2014  02:49:00     -229.817       27.263      -15.738       59.842       62.316       28.571     3581.050     3883.241      816.330        3.104        0.414      231.429       21.266        0.008      333.554        2.941      856.967
02/06/2014  02:50:00     -303.820        7.368      -24.756      109.290       73.561       41.158    11944.386     5411.261     1693.957        5.601        0.952      303.910       42.401        0.019      333.509        2.866      856.940
02/06/2014  02:51:00      -22.639     -129.121       24.414       68.194       75.725       49.727     4650.423     5734.268     2472.791        1.532        0.643      131.090       40.772        0.097      333.601        3.022      856.965
02/06/2014  02:52:00      -74.487      -66.252       15.683      105.609       78.113       46.288    11153.221     6101.644     2142.536        1.479        0.970       99.687       39.785        0.159      333.586        2.996      856.981
02/06/2014  02:53:00     -179.791      -80.038        7.033       84.239       69.758       43.106     7096.176     4866.211     1858.152        2.630        0.691      196.802       42.573        0.047      333.377        2.649      856.996
02/06/2014  02:54:00      -91.608      -60.563        8.971       52.355       44.979       33.201     2741.052     2023.098     1102.321        0.900        0.293      109.818       21.301        0.038      333.357        2.620      857.006
02/06/2014  02:55:00      -30.351      -85.085       -3.356       47.304       36.742       28.487     2237.706     1349.994      811.520        0.628        0.220       90.336       13.406        0.022      333.359        2.623      857.010
02/06/2014  02:56:00      -42.708     -114.142        0.136       21.980       33.812       26.335      483.137     1143.243      693.531        0.859        0.116      121.870       16.242        0.018      333.278        2.487      857.007
02/06/2014  02:57:00       13.850      -39.490        4.872       51.452       47.008       39.933     2647.340     2209.769     1594.661        0.411        0.323       41.849       47.831        1.306      333.216        2.382      857.005
02/06/2014  02:58:00      123.932       88.781       31.825       34.417       29.876       30.381     1184.547      892.550      923.003        1.363        0.150      152.451        9.958        0.004      333.175        2.318      856.983
02/06/2014  02:59:00       51.823       49.127       34.196       33.664       21.534       21.044     1133.294      463.695      442.854        0.415        0.102       71.408       17.597        0.061      333.126        2.238      856.983
02/06/2014  03:00:00       67.096       55.299       54.652       26.143       19.800       18.727      683.440      392.048      350.716        0.599        0.071       86.948        5.872        0.005      333.053        2.117      856.969
02/06/2014  03:01:00       21.580       34.414       46.733       25.946       23.733       17.192      673.203      563.264      295.558        0.268        0.077       40.621       12.476        0.094      333.074        2.152      856.960
02/06/2014  03:02:00      123.748       66.112       24.910       36.400       29.821       29.394     1324.948      889.297      864.024        1.169        0.154      140.301       18.258        0.017      332.948        1.943      856.958
02/06/2014  03:03:00      111.642       63.633        4.482       47.972       37.961       36.360     2301.267     1441.043     1322.085        1.080        0.253      128.503       17.818        0.019      332.879        1.830      856.958
02/06/2014  03:04:00      158.952       78.570       48.169       77.101       52.823       49.213     5944.520     2790.322     2421.958        2.246        0.558      177.310       31.867        0.032      332.996        2.022      856.937
02/06/2014  03:05:00      123.029       68.499       51.127       63.881       57.522       50.807     4080.765     3308.782     2581.375        1.620        0.499      140.813       37.003        0.069      332.914        1.886      856.948
02/06/2014  03:06:00      122.423       83.161       17.736       36.506       32.910       29.232     1332.684     1083.073      854.498        1.274        0.164      147.997       11.075        0.006      332.859        1.796      856.955
02/06/2014  03:07:00      139.435       70.730        9.982       24.018       27.178       25.011      576.875      738.622      625.529        1.324        0.097      156.348       14.311        0.008      332.845        1.773      856.950
02/06/2014  03:08:00      132.818       72.403        0.639       40.821       29.430       28.023     1666.371      866.142      785.285        1.310        0.166      151.271       12.276        0.007      332.789        1.680      856.950
02/06/2014  03:09:00       98.300       83.380        4.579       79.396       53.605       32.885     6303.695     2873.483     1081.402        1.345        0.513      128.900       24.915        0.037      332.758        1.629      856.943
02/06/2014  03:10:00      125.347       79.886       17.907       53.253       42.769       37.899     2835.839     1829.199     1436.300        1.426        0.305      148.640       15.688        0.011      332.700        1.533      856.935
02/06/2014  03:11:00       61.856       52.871       16.143       50.524       33.527       36.755     2552.690     1124.063     1350.930        0.595        0.251       81.372       16.186        0.040      332.751        1.617      856.935
02/06/2014  03:12:00      138.577       72.435       19.566       59.289       40.229       40.272     3515.187     1618.381     1621.855        1.579        0.338      156.366       19.150        0.015      332.586        1.342      856.944
02/06/2014  03:13:00      105.094       54.849       42.902       78.728       54.682       49.310     6198.045     2990.072     2431.491        1.375        0.581      118.546       23.136        0.038      332.573        1.323      856.938
02/06/2014  03:14:00      104.424       73.808       40.055       64.604       58.573       46.443     4173.692     3430.847     2156.963        1.386        0.488      127.875       31.286        0.060      332.533        1.257      856.943
02/06/2014  03:15:00       75.106       63.650       42.622       40.189       45.406       37.621     1615.165     2061.719     1415.358        0.830        0.255       98.449       26.680        0.073      332.543        1.272      856.928
02/06/2014  03:16:00       79.817       68.711       32.662       56.631       34.337       32.605     3207.118     1179.021     1063.054        0.880        0.272      105.319       24.524        0.054      332.519        1.234      856.932
02/06/2014  03:17:00      145.136       62.276       43.930       69.057       53.096       44.267     4768.803     2819.205     1959.605        1.821        0.477      157.932       36.320        0.053      332.432        1.091      856.926
02/06/2014  03:18:00       96.857       61.955       22.690       54.938       27.815       35.862     3018.211      773.657     1286.093        0.941        0.254      114.977       25.952        0.051      332.405        1.047      856.931
02/06/2014  03:19:00      156.503       79.857       26.512       53.243       47.349       40.619     2834.866     2241.894     1649.884        1.915        0.336      175.700       11.279        0.004      332.371        0.988      856.921
02/06/2014  03:20:00      150.077       89.033       39.638       48.420       37.789       40.189     2344.533     1428.016     1615.159        1.870        0.269      174.499       31.137        0.032      332.335        0.930      856.919
02/06/2014  03:21:00      135.189       92.094       36.133       55.830       46.358       43.440     3116.951     2149.075     1887.031        1.761        0.358      163.577       31.132        0.036      332.300        0.873      856.917
02/06/2014  03:22:00      123.954       74.877       51.686       62.645       37.590       31.377     3924.377     1413.026      984.486        1.498        0.316      144.814       29.557        0.042      332.283        0.845      856.900
02/06/2014  03:23:00      126.935       59.061       17.632       63.938       53.079       26.559     4088.010     2817.346      705.399        1.376        0.381      140.003       19.572        0.020      332.282        0.845      856.899
02/06/2014  03:24:00       93.561       96.080       67.100       50.590       56.494       47.648     2559.369     3191.524     2270.313        1.525        0.401      134.108       38.548        0.083      332.346        0.949      856.883
02/06/2014  03:25:00       43.256       57.112       60.815       48.727       34.770       34.566     2374.335     1208.952     1194.777        0.680        0.239       71.644       32.242        0.203      332.282        0.843      856.875
02/06/2014  03:26:00       30.913       39.909       42.627       32.420       27.878       28.488     1051.052      777.160      811.557        0.350        0.132       50.481       20.619        0.167      332.329        0.920      856.874
02/06/2014  03:27:00       50.742       52.498       36.011       34.948       26.979       32.464     1221.362      727.852     1053.889        0.481        0.150       73.012       23.233        0.101      332.382        1.007      856.860
02/06/2014  03:28:00       32.132       34.786       44.163       29.377       32.968       26.029      863.036     1086.914      677.532        0.341        0.131       47.355       19.992        0.178      332.437        1.099      856.858
02/06/2014  03:29:00      130.803       76.847       25.819       39.167       29.462       30.313     1534.090      868.027      918.904        1.350        0.166      151.707       15.628        0.011      332.277        0.836      856.843
02/06/2014  03:30:00       82.536       43.599       16.723       63.903       43.251       28.751     4083.639     1870.620      826.618        0.789        0.339       93.344       10.327        0.012      332.272        0.827      856.822
02/06/2014  03:31:00      129.331       59.186       22.766       62.024       59.897       37.702     3847.029     3587.600     1421.444        1.480        0.443      142.230       22.082        0.024      332.216        0.735      856.812
02/06/2014  03:32:00      127.993       36.046       20.584       54.990       42.408       33.849     3023.953     1798.402     1145.786        1.204        0.298      132.972       28.019        0.044      332.219        0.740      856.798
02/06/2014  03:33:00      121.307       67.180       15.907       55.262       34.929       41.175     3053.889     1220.038     1695.418        1.272        0.298      138.667       33.753        0.059      332.206        0.720      856.781
02/06/2014  03:34:00       71.469       45.561       18.167       36.541       39.962       25.215     1335.258     1596.983      635.773        0.554        0.178       84.756       12.675        0.022      332.249        0.790      856.764
02/06/2014  03:35:00       58.343       69.232       59.510       38.175       31.704       32.852     1457.349     1005.139     1079.279        0.764        0.177       90.537       25.249        0.078      332.298        0.870      856.750
02/06/2014  03:36:00       57.317       33.584       36.725       38.827       32.125       26.795     1507.530     1031.990      717.996        0.451        0.163       66.431       15.110        0.052      332.257        0.802      856.727
02/06/2014  03:37:00       82.364       43.535       46.430       39.861       37.459       28.350     1588.902     1403.182      803.710        0.731        0.190       93.162       18.573        0.040      332.269        0.823      856.701
02/06/2014  03:38:00       93.314       46.279       13.586       38.335       25.057       31.096     1469.556      627.831      966.986        0.705        0.153      104.160       12.322        0.014      332.318        0.903      856.677
02/06/2014  03:39:00      114.363       73.295       17.171       35.373       26.829       29.230     1251.266      719.778      854.417        1.079        0.141      135.835       17.773        0.017      332.221        0.744      856.675
02/06/2014  03:40:00      108.559       64.983       22.741       39.847       32.627       25.027     1587.744     1064.509      626.371        0.990        0.164      126.522       17.420        0.019      332.188        0.690      856.666
02/06/2014  03:41:00       91.608       33.157       14.750       38.924       25.851       23.413     1515.071      668.269      548.188        0.622        0.137       97.424       14.499        0.022      332.188        0.687      856.670
02/06/2014  03:42:00       89.890       61.544       22.708       44.867       42.538       33.319     2013.091     1809.448     1110.169        0.866        0.247      108.940       22.911        0.044      332.228        0.756      856.661
02/06/2014  03:43:00       94.854       41.079        5.169       39.589       34.373       24.488     1567.296     1181.509      599.678        0.703        0.167      103.367       15.532        0.023      332.215        0.733      856.646
02/06/2014  03:44:00      100.660       73.054       20.931       35.550       25.833       25.621     1263.834      667.330      656.426        0.925        0.129      124.376       15.220        0.015      332.177        0.670      856.644
02/06/2014  03:45:00      102.917       64.963       12.484       32.286       22.017       24.452     1042.367      484.735      597.895        0.855        0.106      121.705       18.322        0.023      332.184        0.682      856.629
02/06/2014  03:46:00       91.246       40.190       10.283       33.982       31.295       22.856     1154.770      979.390      522.403        0.635        0.133       99.705       12.657        0.016      332.216        0.735      856.617
02/06/2014  03:47:00       92.080       65.834       11.291       39.031       35.483       30.097     1523.385     1259.035      905.847        0.831        0.184      113.193       10.215        0.008      332.200        0.709      856.606
02/06/2014  03:48:00      123.134       84.361       30.205       26.038       25.535       28.434      677.984      652.029      808.516        1.266        0.107      149.261        7.973        0.003      332.115        0.568      856.605
02/06/2014  03:49:00      131.638       82.985       26.110       37.756       30.315       31.494     1425.524      918.997      991.883        1.412        0.167      155.612       19.077        0.015      332.117        0.570      856.595
02/06/2014  03:50:00       87.992       53.672        1.654       35.329       27.595       28.118     1248.136      761.493      790.614        0.671        0.140      103.069       19.328        0.035      332.154        0.633      856.590
02/06/2014  03:51:00      126.324       80.259       34.821       32.267       22.510       31.626     1041.160      506.679     1000.193        1.308        0.127      149.664       12.817        0.007      332.138        0.605      856.582
02/06/2014  03:52:00      101.150       46.672       29.836       37.091       30.129       26.566     1375.755      907.757      705.738        0.814        0.149      111.398       13.849        0.015      332.133        0.598      856.571
02/06/2014  03:53:00       92.878       47.942       18.860       41.946       45.890       24.391     1759.437     2105.876      594.897        0.787        0.223      104.522       12.785        0.015      332.168        0.655      856.552
02/06/2014  03:54:00       77.268       35.025       33.394       55.237       39.317       27.963     3051.140     1545.811      781.923        0.684        0.269       84.836       24.398        0.083      332.212        0.728      856.525
02/06/2014  03:55:00       84.012       58.250       27.509       47.017       38.162       35.656     2210.576     1456.321     1271.325        0.807        0.247      102.230       19.757        0.037      332.180        0.675      856.505
02/06/2014  03:56:00      102.524       42.569       30.684       52.729       37.941       37.812     2780.358     1439.518     1429.761        0.946        0.282      111.010       25.174        0.051      332.170        0.658      856.480
02/06/2014  03:57:00      115.012       77.211       36.295       34.594       36.259       35.138     1196.772     1314.705     1234.661        1.213        0.187      138.526       22.614        0.027      332.133        0.598      856.470
02/06/2014  03:58:00      115.622       62.715       10.126       50.795       35.055       41.781     2580.164     1228.856     1745.630        1.148        0.278      131.536       25.602        0.038      332.162        0.646      856.453
02/06/2014  03:59:00      129.909       69.032       17.426       43.696       40.605       30.837     1909.361     1648.798      950.904        1.323        0.225      147.111       14.112        0.009      332.114        0.566      856.460
02/06/2014  04:00:00      100.851       42.244       27.465       31.830       28.525       30.013     1013.118      813.695      900.806        0.772        0.136      109.341       11.689        0.011      332.174        0.666      856.468
02/06/2014  04:01:00       62.130       43.194       27.027       43.181       32.049       22.722     1864.564     1027.126      516.289        0.493        0.170       75.669       20.495        0.073      332.162        0.645      856.465
02/06/2014  04:02:00       64.969       53.215       17.240       29.585       18.863       25.957      875.265      355.823      673.761        0.463        0.095       83.981       21.230        0.064      332.137        0.604      856.466
02/06/2014  04:03:00       16.358       20.825       33.782       28.684       28.900       27.689      822.762      835.227      766.661        0.213        0.121       26.481       23.012        0.755      332.240        0.773      856.465
02/06/2014  04:04:00       43.872       65.703       39.490       42.089       30.823       26.065     1771.522      950.027      679.362        0.560        0.170       79.004       22.218        0.079      332.275        0.831      856.458
02/06/2014  04:05:00       93.584       60.051       17.626       26.649       20.941       23.636      710.158      438.529      558.673        0.719        0.085      111.194       17.167        0.024      332.167        0.654      856.455
02/06/2014  04:06:00       60.127       32.455       13.614       37.869       28.954       20.086     1434.036      838.332      403.463        0.376        0.134       68.327       18.705        0.075      332.194        0.697      856.451
02/06/2014  04:07:00      111.039       64.535       13.095       27.592       24.668       21.344      761.302      608.517      455.554        0.925        0.091      128.431       14.114        0.012      332.144        0.615      856.454
02/06/2014  04:08:00       84.352       48.195        9.256       39.585       20.854       22.175     1566.978      434.883      491.740        0.601        0.125       97.150       19.840        0.042      332.139        0.607      856.467
02/06/2014  04:09:00       98.886       61.966       24.480       39.556       17.184       26.831     1564.687      295.299      719.891        0.840        0.129      116.697        9.793        0.007      332.138        0.605      856.476
02/06/2014  04:10:00      122.339       40.814       12.425       49.318       40.245       36.638     2432.310     1619.683     1342.309        1.109        0.270      128.967       26.061        0.041      332.138        0.605      856.461
02/06/2014  04:11:00       95.908       51.409       16.886       51.784       44.177       33.044     2681.606     1951.587     1091.938        0.892        0.286      108.818       24.367        0.050      332.172        0.664      856.442
02/06/2014  04:12:00      109.956       62.548        7.718       29.473       22.576       20.221      868.645      509.678      408.898        0.892        0.089      126.502       16.216        0.016      332.132        0.597      856.442
02/06/2014  04:13:00      129.099       56.852        7.603       44.215       30.334       30.966     1954.948      920.159      958.880        1.189        0.192      141.062       10.744        0.006      332.107        0.554      856.443
02/06/2014  04:14:00       83.621       68.754       41.018       27.150       18.271       24.418      737.122      333.831      596.215        0.753        0.083      108.257       16.285        0.023      332.147        0.621      856.424
02/06/2014  04:15:00       29.851       49.795       63.646       50.894       33.484       29.679     2590.160     1121.148      880.847        0.601        0.230       58.057       32.974        0.323      332.250        0.792      856.413
02/06/2014  04:16:00       30.655       37.148       61.215       53.251       33.988       27.002     2835.672     1155.156      729.100        0.539        0.236       48.163       24.115        0.251      332.191        0.694      856.413
02/06/2014  04:17:00       54.520       59.775       70.019       39.434       35.474       23.318     1555.041     1258.375      543.723        0.740        0.168       80.905       22.247        0.076      332.134        0.599      856.419
02/06/2014  04:18:00       73.858       33.194       52.163       43.880       34.657       27.625     1925.487     1201.083      763.128        0.658        0.194       80.974       23.061        0.081      332.148        0.621      856.420
02/06/2014  04:19:00       92.402       62.629       26.163       37.766       30.565       32.313     1426.250      934.233     1044.100        0.827        0.170      111.627       23.473        0.044      332.165        0.651      856.414
02/06/2014  04:20:00       54.897       38.375       48.786       46.792       46.654       33.535     2189.495     2176.624     1124.604        0.618        0.275       66.980       29.362        0.192      332.174        0.666      856.407
02/06/2014  04:21:00       83.914       64.749       51.495       38.886       32.814       35.340     1512.158     1076.771     1248.927        0.886        0.192      105.990       21.523        0.041      332.105        0.550      856.405
02/06/2014  04:22:00       30.922       30.802       36.726       28.029       25.855       17.575      785.600      668.492      308.886        0.251        0.088       43.645       15.308        0.123      332.159        0.640      856.416
02/06/2014  04:23:00       44.633       42.978       33.025       33.956       22.164       25.192     1153.008      491.244      634.620        0.360        0.114       61.961       21.138        0.116      332.132        0.597      856.428
02/06/2014  04:24:00       66.821       39.415       15.144       19.738       17.325       24.002      389.589      300.147      576.118        0.376        0.063       77.580       13.142        0.029      332.158        0.640      856.418
02/06/2014  04:25:00       71.087       57.500       27.559       23.040       20.549       27.855      530.860      422.244      775.880        0.542        0.086       91.430       16.455        0.032      332.168        0.655      856.402
02/06/2014  04:26:00       80.326       60.101        6.552       27.848       18.255       20.983      775.495      333.250      440.304        0.583        0.077      100.321       16.887        0.028      332.157        0.638      856.395
02/06/2014  04:27:00       66.592       74.817       20.969       24.499       20.319       19.187      600.222      412.859      368.128        0.593        0.069      100.160        9.249        0.009      332.121        0.579      856.410
02/06/2014  04:28:00       67.568       47.649       13.584       36.827       26.528       26.562     1356.239      703.749      705.536        0.489        0.138       82.680       16.999        0.042      332.214        0.729      856.417
02/06/2014  04:29:00      107.588       58.373        4.531       26.709       30.383       25.049      713.373      923.151      627.435        0.863        0.113      122.404       18.034        0.022      332.073        0.498      856.412
02/06/2014  04:30:00      106.442       46.727        7.724       41.073       29.078       32.248     1687.023      845.541     1039.952        0.857        0.179      116.247       19.818        0.029      332.070        0.493      856.402
02/06/2014  04:31:00      109.535       50.070        3.312       35.917       29.995       25.105     1290.039      899.674      630.242        0.867        0.141      120.436       17.680        0.022      332.107        0.554      856.388
02/06/2014  04:32:00       85.878       49.926        7.206       29.459       35.233       26.578      867.856     1241.357      706.379        0.637        0.141       99.336       12.111        0.015      332.097        0.537      856.377
02/06/2014  04:33:00      134.559       72.458       -0.044       35.887       33.962       23.666     1287.884     1153.442      560.065        1.318        0.150      152.828        3.743        0.001      332.004        0.383      856.365
02/06/2014  04:34:00      100.854       48.544       14.253       49.501       30.821       27.918     2450.360      949.926      779.414        0.845        0.209      111.929       17.749        0.025      332.048        0.456      856.362
02/06/2014  04:35:00      108.146       54.800       15.484       34.189       30.997       23.962     1168.897      960.793      574.201        0.882        0.135      121.238       18.780        0.024      332.033        0.432      856.377
02/06/2014  04:36:00       67.690       54.782       33.388       26.564       22.175       25.084      705.645      491.741      629.214        0.526        0.091       87.080       13.211        0.023      332.111        0.562      856.384
02/06/2014  04:37:00       41.567       43.028       45.251       22.038       23.258       17.371      485.684      540.953      301.740        0.348        0.066       59.827        9.350        0.024      332.148        0.622      856.380
02/06/2014  04:38:00       55.653       37.653       26.877       35.058       21.948       25.991     1229.054      481.709      675.522        0.381        0.119       67.194       16.500        0.060      332.139        0.607      856.365
02/06/2014  04:39:00       89.243       49.441       11.781       35.323       31.801       28.401     1247.733     1011.311      806.645        0.681        0.153      102.024       26.873        0.069      332.051        0.461      856.353
02/06/2014  04:40:00       79.084       44.672        6.965       40.435       28.836       24.972     1635.021      831.522      623.608        0.569        0.155       90.829       15.805        0.030      332.056        0.471      856.348
02/06/2014  04:41:00      105.313       71.067       30.926       51.072       30.027       26.850     2608.361      901.606      720.929        1.066        0.212      127.049       14.304        0.013      331.988        0.359      856.346
02/06/2014  04:42:00      119.069       52.308        7.692       49.124       43.943       31.584     2413.183     1930.990      997.564        1.116        0.267      130.053       20.780        0.026      331.978        0.340      856.336
02/06/2014  04:43:00      118.051       52.932        9.261       36.841       25.298       27.830     1357.252      639.981      774.514        0.980        0.139      129.375        8.482        0.004      331.965        0.320      856.329
02/06/2014  04:44:00       98.484       75.101        7.583       35.527       28.448       25.251     1262.144      809.282      637.637        0.905        0.135      123.852       22.520        0.033      331.971        0.329      856.318
02/06/2014  04:45:00      101.699       52.171       18.890       56.074       34.748       26.445     3144.298     1207.450      699.358        0.924        0.253      114.300       27.416        0.058      332.005        0.386      856.307
02/06/2014  04:46:00       66.754       54.692       30.629       45.135       33.723       36.305     2037.180     1137.252     1318.022        0.644        0.225       86.298       31.494        0.133      332.058        0.474      856.303
02/06/2014  04:47:00       58.508       42.194       33.668       44.949       35.042       23.822     2020.387     1227.956      567.498        0.508        0.191       72.135       16.472        0.052      332.090        0.526      856.311
02/06/2014  04:48:00       85.277       51.390       18.090       27.934       24.712       23.742      780.316      610.692      563.681        0.610        0.098       99.565       12.750        0.016      331.997        0.374      856.320
02/06/2014  04:49:00       71.535       36.674       14.173       27.261       29.993       25.324      743.169      899.552      641.293        0.447        0.114       80.388       12.074        0.023      332.016        0.405      856.327
02/06/2014  04:50:00      106.113       82.005       50.889       43.482       27.264       30.929     1890.711      743.305      956.611        1.208        0.180      134.108       22.327        0.028      332.018        0.408      856.328
02/06/2014  04:51:00      116.678       63.230       18.897       35.706       31.488       28.656     1274.944      991.473      821.166        1.053        0.154      132.710       16.793        0.016      332.031        0.429      856.325
02/06/2014  04:52:00       80.530       33.576       18.044       49.720       36.617       25.258     2472.041     1340.829      637.970        0.619        0.223       87.249       24.674        0.080      332.034        0.434      856.323
02/06/2014  04:53:00       85.979       58.276        6.679       26.439       19.248       21.429      699.037      370.475      459.188        0.618        0.076      103.867       12.196        0.014      331.964        0.319      856.314
02/06/2014  04:54:00       72.919       53.460       14.299       22.255       19.514       26.208      495.287      380.799      686.877        0.497        0.078       90.417       12.155        0.018      332.003        0.383      856.307
02/06/2014  04:55:00       60.951       23.008       34.836       38.066       23.656       26.991     1449.040      559.592      728.530        0.410        0.137       65.149       16.604        0.065      332.067        0.488      856.312
02/06/2014  04:56:00       97.036       61.013       14.465       40.544       17.115       17.514     1643.833      292.908      306.758        0.780        0.112      114.624       10.652        0.009      331.955        0.303      856.322
02/06/2014  04:57:00       62.760       41.289       28.177       24.008       23.565       23.837      576.389      555.291      568.202        0.407        0.085       75.124       12.032        0.026      332.048        0.456      856.319
02/06/2014  04:58:00       60.829       37.236       34.579       33.937       18.954       34.413     1151.689      359.253     1184.247        0.449        0.135       71.321       15.772        0.049      332.071        0.496      856.311
02/06/2014  04:59:00       46.379       36.990       38.386       33.492       57.339       22.096     1121.728     3287.750      488.234        0.494        0.245       59.324       22.950        0.150      332.138        0.606      856.295
02/06/2014  05:00:00       12.315        4.376       33.014       23.384       32.799       18.236      546.811     1075.750      332.535        0.161        0.098       13.069        2.703        0.043      332.155        0.633      856.297
02/06/2014  05:01:00       47.567       28.108       19.035       26.154       13.304       29.442      684.016      176.996      866.843        0.257        0.086       55.250        9.598        0.030      332.042        0.447      856.309
02/06/2014  05:02:00       43.411       34.362       42.357       33.204       25.676       22.059     1102.511      659.256      486.612        0.355        0.112       55.365       12.185        0.048      332.088        0.525      856.305
02/06/2014  05:03:00       23.991       30.493       42.606       35.660       23.828       17.792     1271.638      567.793      316.541        0.274        0.108       38.799       17.817        0.211      332.110        0.560      856.292
02/06/2014  05:04:00       43.804       54.839       33.158       34.819       27.277       25.426     1212.340      744.039      646.476        0.431        0.130       70.186       21.458        0.093      332.089        0.526      856.283
02/06/2014  05:05:00       64.393       35.343       29.194       52.666       24.517       32.266     2773.724      601.060     1041.124        0.533        0.221       73.455       28.660        0.152      332.026        0.420      856.278
02/06/2014  05:06:00       58.564       31.051       33.822       31.943       36.207       22.562     1020.368     1310.960      509.048        0.419        0.142       66.287       21.702        0.107      332.025        0.419      856.276
02/06/2014  05:07:00       21.891       38.580       37.806       23.485       28.585       16.337      551.551      817.130      266.899        0.252        0.082       44.358       12.716        0.082      332.075        0.502      856.274
02/06/2014  05:08:00       59.546       40.954       19.263       45.433       28.787       24.580     2064.163      828.668      604.193        0.454        0.175       72.270       25.862        0.128      332.041        0.445      856.272
02/06/2014  05:09:00       49.380       45.058       35.845       35.374       30.681       20.922     1251.294      941.325      437.733        0.419        0.132       66.847       11.740        0.031      332.048        0.457      856.259
02/06/2014  05:10:00       80.218       52.318       40.596       45.173       39.031       27.470     2040.639     1523.442      754.609        0.757        0.216       95.771       19.003        0.039      332.053        0.466      856.249
02/06/2014  05:11:00       82.705       61.856       49.901       50.574       42.792       38.956     2557.732     1831.136     1517.587        0.953        0.295      103.278       33.827        0.107      331.995        0.370      856.245
02/06/2014  05:12:00       33.690       56.403       61.374       55.780       43.276       33.206     3111.408     1872.796     1102.649        0.708        0.304       65.699       34.005        0.268      331.965        0.320      856.243
02/06/2014  05:13:00       73.151       55.161       34.686       42.479       23.703       27.023     1804.457      561.809      730.234        0.635        0.155       91.617       17.707        0.037      331.980        0.347      856.246
02/06/2014  05:14:00       61.712       75.088       56.560       30.780       26.811       21.549      947.382      718.826      464.363        0.739        0.107       97.193       17.295        0.032      331.975        0.337      856.249
02/06/2014  05:15:00       48.510       62.730       47.150       37.687       30.039       21.590     1420.283      902.337      466.147        0.565        0.139       79.298        8.533        0.012      331.976        0.339      856.230
02/06/2014  05:16:00       73.614       79.545       56.097       46.522       31.831       29.599     2164.311     1013.216      876.095        0.947        0.203      108.381       14.816        0.019      331.976        0.338      856.212
02/06/2014  05:17:00       90.143       70.627       47.848       34.156       28.526       25.805     1166.633      813.738      665.876        0.902        0.132      114.516       17.747        0.024      331.983        0.348      856.205
02/06/2014  05:18:00       43.997       32.430       45.439       43.975       37.412       29.336     1933.771     1399.653      860.598        0.462        0.210       54.658       22.145        0.164      331.928        0.260      856.198
02/06/2014  05:19:00       84.832       57.676       33.529       27.127       22.627       27.652      735.869      511.979      764.624        0.683        0.101      102.582       16.099        0.025      331.888        0.193      856.195
02/06/2014  05:20:00       53.223       56.672       34.304       34.745       23.744       20.572     1207.189      563.798      423.221        0.471        0.110       77.746       17.472        0.051      331.892        0.201      856.196
02/06/2014  05:21:00      124.028       64.764        9.240       34.479       25.930       28.144     1188.808      672.385      792.075        1.116        0.133      139.919       19.877        0.020      331.886        0.190      856.184
02/06/2014  05:22:00      157.081       85.075       19.228       32.344       30.798       30.147     1046.127      948.531      908.850        1.759        0.145      178.640       15.816        0.008      331.828        0.095      856.170
02/06/2014  05:23:00       92.289       53.831       16.805       52.336       42.142       31.000     2739.071     1775.935      961.002        0.859        0.274      106.841       28.620        0.072      331.859        0.147      856.166
02/06/2014  05:24:00       26.475       31.524       30.908       21.586       24.703       18.420      465.958      610.251      339.315        0.203        0.071       41.166       12.669        0.095      331.967        0.323      856.169
02/06/2014  05:25:00       19.914       37.403       18.653       30.435       23.740       21.144      926.280      563.578      447.075        0.204        0.097       42.374       18.383        0.188      331.960        0.311      856.174
02/06/2014  05:26:00       89.308       56.470       11.129       36.784       17.124       24.280     1353.096      293.237      589.525        0.676        0.112      105.664       20.849        0.039      331.885        0.188      856.172
02/06/2014  05:27:00       82.604       55.556       -1.140       25.692       26.864       19.971      660.077      721.687      398.860        0.585        0.089       99.548        9.147        0.008      331.839        0.113      856.171
02/06/2014  05:28:00       73.423       46.153       13.025       27.926       21.015       21.474      779.883      441.636      461.128        0.469        0.084       86.724       11.827        0.019      331.874        0.171      856.169
02/06/2014  05:29:00       61.261       32.943       16.349       21.215       20.519       19.855      450.081      421.036      394.211        0.319        0.063       69.557       15.497        0.050      331.886        0.191      856.157
02/06/2014  05:30:00      101.888       51.373        1.926       20.710       24.508       18.088      428.896      600.653      327.180        0.719        0.068      114.107       14.896        0.017      331.851        0.131      856.138
02/06/2014  05:31:00       54.051       39.633       15.580       24.400       17.239       21.897      595.360      297.190      479.497        0.305        0.069       67.024       10.361        0.024      331.898        0.210      856.121
02/06/2014  05:32:00        4.927       19.223       29.660       18.752       21.627       11.162      351.640      467.728      124.579        0.111        0.047       19.845        7.253        0.134      332.020        0.411      856.123
02/06/2014  05:33:00       88.141       51.140       23.841       31.310       19.856       25.856      980.330      394.278      668.554        0.650        0.102      101.903       19.863        0.038      331.928        0.259      856.118
02/06/2014  05:34:00       77.266       60.230       12.454       23.141       19.319       23.158      535.498      373.219      536.310        0.560        0.072       97.967       14.128        0.021      331.830        0.097      856.114
02/06/2014  05:35:00       85.192       45.478       18.764       29.266       21.546       28.452      856.496      464.246      809.530        0.590        0.107       96.570       15.262        0.025      331.857        0.143      856.112
02/06/2014  05:36:00       97.349       43.581        5.229       17.444       18.391       17.505      304.286      338.243      306.412        0.618        0.047      106.659        5.859        0.003      331.816        0.077      856.122
02/06/2014  05:37:00       49.939       46.508       14.604       30.561       15.028       16.253      933.969      225.826      264.144        0.315        0.071       68.242       15.775        0.053      331.853        0.135      856.128
02/06/2014  05:38:00       57.176       27.012       12.458       29.805       19.267       19.969      888.311      371.204      398.747        0.291        0.083       63.235       16.819        0.071      331.921        0.248      856.142
02/06/2014  05:39:00       46.578       43.936       30.896       26.447       19.129       18.887      699.461      365.913      356.735        0.324        0.071       64.030       11.493        0.032      331.905        0.222      856.136
02/06/2014  05:40:00       45.600       54.009       14.466       17.224       11.603       14.779      296.650      134.619      218.420        0.293        0.032       70.685        7.925        0.013      331.863        0.152      856.120
02/06/2014  05:41:00       39.581       38.026       35.007       32.554       27.341       16.767     1059.795      747.529      281.126        0.316        0.104       54.888        5.496        0.010      331.926        0.256      856.106
02/06/2014  05:42:00       78.074       48.707       24.001       17.753       16.869       18.870      315.174      284.576      356.071        0.500        0.048       92.021        9.074        0.010      331.864        0.153      856.086
02/06/2014  05:43:00       58.530       38.201        7.987       19.751       17.753       21.423      390.115      315.170      458.963        0.306        0.058       69.894       10.785        0.024      331.889        0.195      856.074
02/06/2014  05:44:00       36.233       35.674       -2.512       17.045       19.082       13.487      290.542      364.136      181.888        0.171        0.042       50.847       10.474        0.042      331.868        0.161      856.078
02/06/2014  05:45:00       32.924       40.130       -7.077       11.861       12.957       15.348      140.682      167.879      235.575        0.164        0.027       51.908        2.616        0.003      331.820        0.082      856.079
02/06/2014  05:46:00       32.449       13.764        4.106       14.202       15.354       11.609      201.684      235.756      134.771        0.092        0.029       35.247        9.125        0.067      331.861        0.147      856.093
02/06/2014  05:47:00       29.325       54.492      -11.027       14.715       19.299       10.662      216.531      372.462      113.676        0.233        0.035       61.882        8.656        0.020      331.882        0.185      856.101
02/06/2014  05:48:00       39.184       34.753       -7.487       12.705       21.428       12.456      161.421      459.160      155.159        0.179        0.039       52.375        6.940        0.018      331.910        0.229      856.105
02/06/2014  05:49:00       43.381       60.851       -5.224       23.006       36.537       18.381      529.257     1334.981      337.864        0.391        0.110       74.731       18.147        0.059      331.872        0.167      856.113
02/06/2014  05:50:00       28.773       64.394      -14.775       23.166       28.083       15.016      536.664      788.678      225.472        0.337        0.078       70.530       10.514        0.022      331.865        0.154      856.110
02/06/2014  05:51:00       38.316       40.856        1.032       21.450       20.438       16.195      460.099      417.708      262.269        0.214        0.057       56.012        7.179        0.016      331.893        0.201      856.106
02/06/2014  05:52:00       64.334       41.250        1.701       26.088       16.239       14.857      680.574      263.697      220.744        0.350        0.058       76.423        4.237        0.003      331.864        0.153      856.105
02/06/2014  05:53:00       65.272       46.189        0.446       29.774       28.076       21.845      886.489      788.238      477.204        0.427        0.108       79.961       18.793        0.055      331.860        0.147      856.107
02/06/2014  05:54:00       96.159       66.519        8.021       25.937       20.331       18.532      672.712      413.330      343.445        0.758        0.071      116.924       10.705        0.008      331.833        0.101      856.109
02/06/2014  05:55:00       81.379       42.803       -1.958       19.764       21.110       13.841      390.601      445.637      191.564        0.474        0.051       91.949       10.781        0.014      331.882        0.182      856.105
02/06/2014  05:56:00       79.502       44.704       15.476       20.773       23.964       21.093      431.511      574.270      444.930        0.500        0.073       91.208       10.500        0.013      331.889        0.197      856.090
02/06/2014  05:57:00       49.880       38.720       -0.451       14.871       16.579       13.899      221.136      274.853      193.168        0.234        0.034       63.145        6.132        0.009      331.829        0.097      856.087
02/06/2014  05:58:00       56.463       35.379        4.740       14.991       12.658       14.635      224.729      160.214      214.183        0.253        0.030       66.631        8.493        0.016      331.869        0.160      856.085
02/06/2014  05:59:00       20.481       24.410       16.273       15.045       14.140        9.415      226.341      199.949       88.642        0.090        0.026       31.864        3.921        0.015      331.913        0.234      856.087
02/06/2014  06:00:00       41.568       35.247       10.636       15.411       11.103       11.970      237.488      123.268      143.287        0.179        0.025       54.501        8.722        0.026      331.917        0.240      856.084
02/06/2014  06:01:00       67.066       31.771       -0.222       21.775       14.099       14.791      474.153      198.786      218.764        0.320        0.045       74.211        9.486        0.016      331.874        0.169      856.084
02/06/2014  06:02:00       18.076       20.940       16.491       17.996       14.961       15.809      323.842      223.832      249.935        0.092        0.040       27.662        9.318        0.113      331.969        0.328      856.086
02/06/2014  06:03:00        7.477       22.263        6.616       10.030       19.569       11.378      100.610      382.932      129.459        0.060        0.031       23.485       11.536        0.241      331.985        0.354      856.095
02/06/2014  06:04:00       20.777       45.054       -4.252       10.934       19.651       11.408      119.550      386.145      130.134        0.156        0.032       49.614       10.668        0.046      331.936        0.271      856.099
02/06/2014  06:05:00        8.956       42.831       -1.539       12.669       14.717        9.623      160.511      216.576       92.603        0.119        0.023       43.758        5.223        0.014      331.927        0.257      856.101
02/06/2014  06:06:00       16.933       31.288        7.172       12.004       17.137        9.469      144.094      293.671       89.670        0.092        0.026       35.576        8.055        0.051      331.941        0.281      856.089
02/06/2014  06:07:00       43.225       33.232        7.711       17.676       10.242       15.834      312.442      104.902      250.729        0.185        0.033       54.523        8.986        0.027      331.923        0.250      856.075
02/06/2014  06:08:00       37.942       37.747        2.020       16.191       19.036       14.270      262.137      362.386      203.639        0.185        0.041       53.520        9.977        0.035      331.920        0.246      856.057
02/06/2014  06:09:00       16.026       50.201       -9.504        9.984       11.792        9.533       99.687      139.048       90.874        0.160        0.016       52.697        5.681        0.012      331.870        0.163      856.041
02/06/2014  06:10:00       30.772       38.629       -2.451       26.767       16.133       15.712      716.484      260.260      246.868        0.183        0.061       49.387       13.671        0.077      331.965        0.320      856.028
02/06/2014  06:11:00       27.976       48.306       -3.268       14.683       29.650       14.602      215.605      879.108      213.214        0.222        0.065       55.822       17.893        0.103      331.956        0.305      856.025
02/06/2014  06:12:00       23.749       47.734       -6.279       13.395       14.998        9.594      179.434      224.936       92.044        0.169        0.025       53.316        9.011        0.029      331.912        0.232      856.020
02/06/2014  06:13:00       19.910       31.306       -0.107       11.675       18.230       11.419      136.306      332.324      130.386        0.099        0.030       37.101       11.774        0.101      331.942        0.283      855.999
02/06/2014  06:14:00       33.799       36.014        1.549       24.276       19.062       15.731      589.309      363.341      247.454        0.182        0.060       49.390       11.947        0.059      331.952        0.300      855.987
02/06/2014  06:15:00       46.560       35.804       -1.311       19.653       16.258       13.320      386.257      264.312      177.420        0.214        0.041       58.734        7.924        0.018      331.929        0.261      855.976
02/06/2014  06:16:00       68.610       40.470       -0.775       26.456       14.961       12.913      699.903      223.844      166.735        0.372        0.055       79.657       10.362        0.017      331.902        0.217      855.971
02/06/2014  06:17:00       49.275       38.206       -3.931       19.458       12.588        9.835      378.603      158.457       96.723        0.227        0.032       62.352        6.506        0.011      331.889        0.195      855.972
02/06/2014  06:18:00       31.646       23.591       -0.868        7.536        8.352        8.632       56.791       69.756       74.507        0.088        0.010       39.472        5.387        0.019      331.879        0.178      855.974
02/06/2014  06:19:00       13.173       35.947        5.477       10.284       11.874       12.674      105.768      140.983      160.628        0.095        0.020       38.285        6.278        0.027      331.893        0.198      855.981
02/06/2014  06:20:00       39.427       25.585        6.061       27.797       11.268       10.097      772.649      126.965      101.943        0.162        0.050       47.001        7.392        0.025      331.908        0.225      855.983
02/06/2014  06:21:00       46.874       32.538       -0.454       11.646        9.577        9.299      135.621       91.710       86.470        0.178        0.016       57.061        2.504        0.002      331.875        0.172      855.988
02/06/2014  06:22:00       41.176       25.753       -6.472       14.537        9.987       15.576      211.335       99.734      242.622        0.148        0.028       48.566        7.475        0.024      331.877        0.175      855.990
02/06/2014  06:23:00       60.449       38.949       13.883       18.811       16.465       16.864      353.837      271.101      284.392        0.314        0.045       71.911       10.482        0.021      331.974        0.335      855.985
02/06/2014  06:24:00       57.485       47.017       -0.186       16.745       13.396       13.489      280.392      179.451      181.945        0.308        0.032       74.264        6.572        0.008      331.930        0.263      855.979
02/06/2014  06:25:00       41.336       47.751       35.307       24.715       16.511       18.306      610.827      272.607      335.103        0.323        0.061       63.157        8.772        0.019      331.984        0.351      855.972
02/06/2014  06:26:00       62.163       34.680       16.676       25.921       14.514       21.119      671.892      210.667      446.013        0.334        0.066       71.182       10.645        0.022      331.964        0.319      855.964
02/06/2014  06:27:00       50.480       44.289       20.832       22.817       19.732       21.893      520.631      389.357      479.282        0.317        0.069       67.155       13.612        0.041      331.983        0.350      855.961
02/06/2014  06:28:00       70.222       41.226       10.681       23.779       23.564       24.861      565.460      555.267      618.056        0.424        0.087       81.429       21.027        0.067      331.953        0.301      855.961
02/06/2014  06:29:00      100.489       61.392        7.518       11.573       14.459       16.141      133.941      209.053      260.526        0.726        0.030      117.758       10.736        0.008      331.867        0.161      855.959
02/06/2014  06:30:00       72.659       47.375       20.832       22.656       14.556       20.119      513.302      211.889      404.787        0.454        0.056       86.740       15.516        0.032      331.923        0.250      855.958
02/06/2014  06:31:00       85.308       52.627       15.325       24.286       23.526       29.457      589.833      553.455      867.711        0.615        0.101      100.235       17.407        0.030      331.887        0.191      855.957
02/06/2014  06:32:00       71.489       53.416       21.734       23.127       18.047       22.854      534.857      325.680      522.307        0.491        0.069       89.241       15.242        0.029      331.928        0.260      855.953
02/06/2014  06:33:00       84.713       58.157       33.456       21.061       12.255       19.792      443.566      150.180      391.721        0.633        0.049      102.754       15.742        0.023      331.887        0.191      855.953
02/06/2014  06:34:00       92.808       67.332       31.419       39.715       26.718       24.813     1577.265      713.849      615.703        0.852        0.145      114.659       19.270        0.028      331.894        0.204      855.940
02/06/2014  06:35:00      103.499       79.602       52.192       44.925       26.599       22.233     2018.214      707.502      494.297        1.150        0.161      130.570        6.105        0.002      331.928        0.259      855.931
02/06/2014  06:36:00       97.503       70.808       42.922       24.860       25.427       28.448      618.013      646.537      809.316        0.922        0.104      120.502       13.139        0.012      331.921        0.248      855.926
02/06/2014  06:37:00       87.438       66.463       37.896       36.269       24.130       28.966     1315.427      582.265      839.045        0.812        0.137      109.830       17.773        0.026      331.902        0.216      855.911
02/06/2014  06:38:00       61.672       50.336       41.350       33.365       28.066       23.408     1113.256      787.725      547.945        0.525        0.122       79.606       17.001        0.046      331.925        0.254      855.902
02/06/2014  06:39:00       72.489       44.329       34.380       27.464       29.770       19.393      754.273      886.226      376.085        0.521        0.101       84.969       14.563        0.029      331.930        0.262      855.887
02/06/2014  06:40:00       44.165       38.230       39.390       30.349       23.885       20.361      921.054      570.489      414.577        0.343        0.095       58.413       10.790        0.034      331.988        0.359      855.870
02/06/2014  06:41:00       49.302       54.965       50.708       30.905       21.794       17.197      955.141      474.995      295.734        0.487        0.086       73.837        9.650        0.017      331.970        0.329      855.854
02/06/2014  06:42:00       92.135       60.429       33.910       28.633       31.044       28.251      819.831      963.755      798.105        0.794        0.129      110.185       21.988        0.040      331.939        0.277      855.837
02/06/2014  06:43:00       51.870       64.364       50.043       37.716       30.397       25.105     1422.523      924.003      630.262        0.616        0.149       82.663       20.717        0.063      331.911        0.231      855.823
02/06/2014  06:44:00       47.197       50.728       35.783       30.044       27.614       24.008      902.660      762.558      576.363        0.416        0.112       69.288       16.125        0.054      331.916        0.239      855.821
02/06/2014  06:45:00       78.639       46.987       -2.486       20.576       19.897       19.704      423.376      395.878      388.239        0.480        0.060       91.607        9.019        0.010      331.893        0.202      855.822
02/06/2014  06:46:00       98.558       52.795       12.220       34.559       19.987       23.026     1194.291      399.462      530.207        0.739        0.106      111.808       10.965        0.010      331.871        0.165      855.831
02/06/2014  06:47:00       93.694       46.044        6.717       37.497       32.945       22.096     1406.059     1085.341      488.247        0.696        0.149      104.397        7.794        0.006      331.846        0.124      855.833
02/06/2014  06:48:00      120.571       54.900       -2.040       26.107       23.772       18.522      681.599      565.117      343.082        0.957        0.079      132.482        4.069        0.001      331.821        0.083      855.836
02/06/2014  06:49:00       68.388       45.403       29.607       29.950       26.061       23.884      897.016      679.179      570.460        0.488        0.107       82.087       12.356        0.023      331.918        0.243      855.844
02/06/2014  06:50:00       65.607       46.310       24.678       31.458       18.211       28.311      989.584      331.630      801.537        0.459        0.106       80.305       21.398        0.071      331.894        0.203      855.857
02/06/2014  06:51:00       69.474       24.591       17.693       30.865       26.498       21.804      952.659      702.119      475.430        0.394        0.107       73.698       13.667        0.034      331.852        0.134      855.875
02/06/2014  06:52:00       85.738       49.639       15.794       19.671       16.177       19.106      386.952      261.702      365.022        0.554        0.051       99.070        9.955        0.010      331.826        0.090      855.884
02/06/2014  06:53:00       92.363       52.156       24.612       22.023       15.141       19.737      485.017      229.236      389.537        0.648        0.055      106.072       15.079        0.020      331.840        0.114      855.890
02/06/2014  06:54:00      101.140       53.749        6.346       20.275       17.931       15.752      411.062      321.504      248.138        0.707        0.049      114.535        9.886        0.007      331.820        0.082      855.894
02/06/2014  06:55:00       76.442       44.395       18.127       18.427       19.186       16.163      339.554      368.085      261.258        0.456        0.048       88.399        8.333        0.009      331.879        0.179      855.897
02/06/2014  06:56:00       42.390       41.889       34.092       24.517       20.491       17.543      601.090      419.895      307.755        0.302        0.066       59.596        8.188        0.019      331.964        0.319      855.902
02/06/2014  06:57:00       33.021       21.856       30.848       22.517       15.885       13.705      506.994      252.317      187.815        0.173        0.047       39.599        9.005        0.052      331.984        0.352      855.910
02/06/2014  06:58:00       77.384       62.754       19.032       17.628       16.596       21.339      310.740      275.423      455.367        0.566        0.052       99.631        7.297        0.005      331.933        0.267      855.903
02/06/2014  06:59:00       58.900       42.702       19.054       24.532       16.316       24.412      601.830      266.218      595.961        0.356        0.073       72.751       14.340        0.039      331.940        0.278      855.911
02/06/2014  07:00:00       60.478       43.379       13.025       20.207       16.997       17.623      408.316      288.884      310.562        0.336        0.050       74.426       14.966        0.040      331.894        0.204      855.917
02/06/2014  07:01:00       45.683       26.176       -3.132       16.571       11.677       11.081      274.585      136.360      122.794        0.166        0.027       52.651        9.010        0.029      331.873        0.169      855.942
02/06/2014  07:02:00       31.039       17.291        1.635       10.860        7.561        7.946      117.938       57.169       63.146        0.075        0.012       35.530        4.548        0.016      331.917        0.239      855.966
02/06/2014  07:03:00       27.190       15.419        5.889        9.037        8.088       13.274       81.674       65.419      176.191        0.067        0.016       31.258        7.235        0.054      331.916        0.241      855.973
02/06/2014  07:04:00       32.959       13.945       -0.314        8.801        8.582        6.690       77.457       73.649       44.762        0.074        0.010       35.788        6.170        0.030      331.856        0.144      855.967
02/06/2014  07:05:00       43.847       22.409        9.188       12.618        9.753       12.563      159.224       95.130      157.836        0.146        0.021       49.242        7.495        0.023      331.964        0.320      855.954
02/06/2014  07:06:00       32.443       32.157        4.295       12.393       16.910       11.884      153.598      285.936      141.228        0.134        0.029       45.680        7.291        0.025      331.984        0.352      855.952
02/06/2014  07:07:00       27.635       23.172       -0.231       15.954       10.745       11.831      254.526      115.456      139.982        0.091        0.025       36.064        7.291        0.041      331.992        0.365      855.950
02/06/2014  07:08:00       44.043       33.405        1.996       14.466       11.392        9.096      209.272      129.782       82.731        0.174        0.021       55.278        5.085        0.008      331.928        0.261      855.950
02/06/2014  07:09:00       29.493       29.422        5.377        9.565        9.174       10.042       91.481       84.158      100.842        0.102        0.014       41.659        4.863        0.014      331.949        0.293      855.947
02/06/2014  07:10:00       19.606       20.607        5.391        7.535        7.503       10.161       56.775       56.290      103.239        0.053        0.011       28.443        1.987        0.005      331.941        0.282      855.936
02/06/2014  07:11:00        6.631       19.587        5.349        9.347       10.030        9.618       87.369      100.591       92.512        0.037        0.014       20.679        6.494        0.099      331.962        0.314      855.930
02/06/2014  07:12:00       25.038       59.417       -4.645       11.042       12.841       11.586      121.935      164.882      134.235        0.230        0.021       64.477        8.525        0.017      331.937        0.272      855.923
02/06/2014  07:13:00       33.185       57.607        0.967       25.182       17.693       14.126      634.156      313.040      199.557        0.278        0.057       66.481       10.136        0.023      331.959        0.309      855.904
02/06/2014  07:14:00       66.275       41.575        3.127       20.111       11.326       17.832      404.458      128.279      317.990        0.349        0.043       78.236        8.848        0.013      331.959        0.309      855.886
02/06/2014  07:15:00       29.743       30.718       33.329       22.947       18.804       13.058      526.578      353.581      170.504        0.199        0.053       42.758        7.012        0.027      331.982        0.349      855.884
02/06/2014  07:16:00        1.976       12.211       20.685       12.578       14.698       10.211      158.196      216.041      104.267        0.053        0.024       12.370        8.753        0.501      332.050        0.461      855.914
02/06/2014  07:17:00      -17.677       -0.887        7.541       14.841       11.910       13.630      220.244      141.842      185.776        0.046        0.027       17.699       12.811        0.524      332.096        0.537      855.944
02/06/2014  07:18:00      -43.624       15.867        0.188       18.507       15.889        7.558      342.507      252.459       57.121        0.140        0.033       46.420        8.381        0.033      332.113        0.566      855.960
02/06/2014  07:19:00      -22.342       17.966        5.127       18.556       14.301        9.743      344.327      204.511       94.924        0.075        0.032       28.670        9.708        0.115      332.048        0.458      855.956
02/06/2014  07:20:00        7.993       12.363        9.363       16.273       13.148       12.358      264.825      172.858      152.717        0.045        0.030       14.722        8.621        0.343      332.084        0.517      855.942
02/06/2014  07:21:00       13.910       20.440       -1.126       18.253       12.244        9.106      333.178      149.916       82.915        0.059        0.028       24.725        6.313        0.065      332.036        0.439      855.931
02/06/2014  07:22:00       35.274       24.609       13.842       28.250       18.554       11.701      798.037      344.256      136.917        0.166        0.064       43.010       13.196        0.094      332.024        0.418      855.934
02/06/2014  07:23:00       10.946        7.256       24.909       15.545       10.184        9.524      241.637      103.706       90.700        0.061        0.022       13.132       10.681        0.662      332.097        0.538      855.938
02/06/2014  07:24:00        2.283        4.289       12.782       10.586        8.667       10.232      112.074       75.114      104.698        0.024        0.015        4.859        9.450        3.783      332.135        0.602      855.926
02/06/2014  07:25:00      -14.436       -7.836       10.979       15.769       21.513        9.842      248.658      462.789       96.870        0.060        0.040       16.426        6.619        0.162      332.101        0.545      855.915
02/06/2014  07:26:00      -10.866        2.748       19.572        8.523       15.012       12.734       72.647      225.362      162.155        0.048        0.023       11.208       11.212        1.001      332.179        0.673      855.906
02/06/2014  07:27:00        3.647        6.611       28.199       20.003       21.239       13.816      400.127      451.079      190.869        0.095        0.052        7.550       13.605        3.247      332.171        0.659      855.906
02/06/2014  07:28:00       -5.861       -9.959       23.252       10.993       14.932        9.727      120.856      222.971       94.620        0.056        0.022       11.556        5.126        0.197      332.227        0.754      855.904
02/06/2014  07:29:00        1.908       -0.529        8.101       12.278       19.989       14.206      150.760      399.554      201.814        0.041        0.038        1.980        9.974       25.373      332.150        0.627      855.914
02/06/2014  07:30:00        5.383       -1.686       15.137       14.381       11.632        8.669      206.821      135.297       75.149        0.034        0.021        5.641        2.620        0.216      332.292        0.857      855.925
02/06/2014  07:31:00       45.969       40.418        8.505       15.949       12.225       14.846      254.386      149.457      220.401        0.222        0.031       61.211        5.738        0.009      332.046        0.456      855.930
02/06/2014  07:32:00      -12.683       40.158       -6.463       17.471       18.763        8.248      305.239      352.037       68.025        0.127        0.036       42.113        6.471        0.024      331.999        0.377      855.934
02/06/2014  07:33:00       -4.411        6.892        3.388        9.633        9.081        9.153       92.797       82.471       83.775        0.017        0.013        8.182        4.943        0.365      332.130        0.592      855.931
02/06/2014  07:34:00       43.829       29.913        6.948       15.893       12.625       13.973      252.594      159.398      195.242        0.174        0.030       53.064        7.152        0.018      332.083        0.514      855.924
02/06/2014  07:35:00       75.396       42.393       12.456       13.257       17.514       19.455      175.745      306.752      378.509        0.425        0.043       86.497        8.579        0.010      332.050        0.461      855.901
02/06/2014  07:36:00       87.263       48.012        7.034        9.650        8.307       13.133       93.124       69.009      172.482        0.515        0.017       99.599        3.327        0.001      332.018        0.411      855.892
02/06/2014  07:37:00      101.239       60.806        4.662       19.265       20.767       20.459      371.141      431.274      418.559        0.759        0.061      118.096       15.448        0.017      331.995        0.371      855.875
02/06/2014  07:38:00      108.676       55.630        3.139       32.564       32.843       22.194     1060.383     1078.684      492.573        0.877        0.132      122.087        8.535        0.005      331.982        0.348      855.862
02/06/2014  07:39:00       91.494       48.068        1.995       28.280       29.947       20.696      799.745      896.848      428.322        0.640        0.106      103.352       19.069        0.034      331.993        0.366      855.885
02/06/2014  07:40:00       77.047       55.450       11.463       25.986       22.977       22.220      675.280      527.954      493.750        0.542        0.085       94.925        8.402        0.008      331.987        0.356      855.908
02/06/2014  07:41:00       52.953       38.053       -2.273       17.395       20.445       17.412      302.570      418.008      303.189        0.264        0.051       65.207       15.434        0.056      332.026        0.421      855.917
02/06/2014  07:42:00       48.308       58.707        0.453       35.243       33.646       22.746     1242.092     1132.070      517.380        0.434        0.145       76.027       15.368        0.041      332.034        0.434      855.934
02/06/2014  07:43:00       32.681       59.272        3.249       26.383       30.432       24.637      696.086      926.082      606.963        0.341        0.111       67.685       20.826        0.095      331.984        0.352      855.954
02/06/2014  07:44:00       32.350       38.782        1.696       20.798       23.231       16.158      432.541      539.685      261.082        0.189        0.062       50.504        7.260        0.021      331.984        0.351      855.972
02/06/2014  07:45:00       33.151       49.748        3.271       19.694       27.453       20.012      387.841      753.680      400.468        0.256        0.077       59.782       15.808        0.070      332.056        0.471      855.989
02/06/2014  07:46:00       48.317       49.536        4.044       34.885       22.781       24.005     1216.973      518.956      576.244        0.356        0.116       69.198       14.619        0.045      332.065        0.487      855.996
02/06/2014  07:47:00       52.917       44.825       -3.930       31.201       29.591       24.106      973.500      875.622      581.121        0.363        0.122       69.350       16.547        0.057      332.072        0.498      855.980
02/06/2014  07:48:00       39.734       63.226        4.767       27.498       31.159       25.815      756.134      970.896      666.415        0.400        0.120       74.674       21.034        0.079      332.124        0.583      855.958
02/06/2014  07:49:00       71.882       71.418       -5.519       37.217       27.113       30.471     1385.110      735.138      928.461        0.667        0.152      101.329       20.137        0.039      332.060        0.477      855.943
02/06/2014  07:50:00       55.323       44.499        1.822       38.997       33.012       20.434     1520.793     1089.812      417.565        0.404        0.151       70.998       14.545        0.042      332.079        0.510      855.939
02/06/2014  07:51:00       53.027       43.933       -3.565       27.747       26.088       18.688      769.886      680.606      349.234        0.328        0.090       68.862       13.251        0.037      332.085        0.518      855.934
02/06/2014  07:52:00       75.490       40.280        1.684       35.940       25.755       17.938     1291.690      663.340      321.775        0.480        0.114       85.564        8.283        0.009      332.164        0.648      855.920
02/06/2014  07:53:00       49.259       23.356        0.822       29.785       17.975       16.489      887.172      323.115      271.902        0.223        0.074       54.515       10.518        0.037      332.167        0.654      855.936
02/06/2014  07:54:00       37.859       12.872       -2.366       21.542       14.589       12.214      464.055      212.847      149.179        0.122        0.041       39.987       10.780        0.073      332.155        0.634      855.973
02/06/2014  07:55:00       40.354       31.504        5.191       26.970       15.693       16.945      727.378      246.262      287.129        0.195        0.063       51.195       13.455        0.069      332.166        0.652      855.990
02/06/2014  07:56:00       57.731       34.680       -6.517        7.670       11.260       11.811       58.835      126.786      139.493        0.245        0.016       67.347        6.022        0.008      332.109        0.559      856.003
02/06/2014  07:57:00       43.099       33.301       -4.478       16.066       15.697       12.748      258.120      246.393      162.520        0.183        0.033       54.465        9.139        0.028      332.174        0.666      856.008
02/06/2014  07:58:00       62.252       41.073       13.219       20.149       18.334       18.104      405.968      336.128      327.772        0.340        0.053       74.581       10.770        0.021      332.245        0.783      856.019
02/06/2014  07:59:00       34.162       43.736       26.233       26.604       21.150       19.712      707.786      447.340      388.582        0.266        0.077       55.496        5.409        0.010      332.335        0.929      856.014
02/06/2014  08:00:00        3.438       32.045       44.352       20.775       25.078       13.453      431.620      628.886      180.992        0.212        0.062       32.228       14.357        0.198      332.422        1.075      856.027
02/06/2014  08:01:00       64.463       38.065       17.318       30.152       15.832       22.944      909.156      250.662      526.433        0.380        0.084       74.863       17.738        0.056      332.270        0.824      856.048
02/06/2014  08:02:00       38.789       54.903       51.193       23.596       23.497       17.332      556.750      552.125      300.406        0.427        0.070       67.223        8.417        0.016      332.319        0.904      856.054
02/06/2014  08:03:00       54.750       54.878       52.499       30.810       23.007       17.712      949.270      529.326      313.705        0.528        0.090       77.519       13.277        0.029      332.289        0.855      856.062
02/06/2014  08:04:00       86.550       49.511       19.311       15.199       14.357       17.245      231.006      206.122      297.377        0.552        0.037       99.711       11.692        0.014      332.227        0.753      856.053
02/06/2014  08:05:00       97.435       68.570        6.576       23.405       20.244       20.474      547.790      409.807      419.176        0.781        0.069      119.145       11.020        0.009      332.227        0.752      856.040
02/06/2014  08:06:00       79.502       50.675        5.246       22.015       22.008       20.867      484.659      484.371      435.413        0.516        0.070       94.279        7.797        0.007      332.237        0.770      856.017
02/06/2014  08:07:00       43.702       27.816       -3.082       16.669       23.137       16.043      277.861      535.308      257.377        0.188        0.054       51.803       10.377        0.040      332.283        0.844      856.026
02/06/2014  08:08:00       50.679       34.277        5.856       16.956       13.721       11.310      287.506      188.266      127.914        0.219        0.030       61.182        2.916        0.002      332.286        0.849      856.057
02/06/2014  08:09:00       60.080       30.328       10.659       10.136       11.593       13.276      102.735      134.392      176.257        0.253        0.021       67.301        8.341        0.015      332.305        0.881      856.098
02/06/2014  08:10:00       59.722       41.660       20.189       15.446        9.644       13.948      238.576       93.000      194.533        0.312        0.026       72.816        6.282        0.007      332.321        0.908      856.126
02/06/2014  08:11:00       77.524       58.414       15.579       14.315       15.350       19.835      204.927      235.612      393.412        0.525        0.042       97.068        7.770        0.006      332.344        0.945      856.123
02/06/2014  08:12:00       27.795       62.607       10.004       34.275       23.308       23.685     1174.809      543.267      560.959        0.354        0.114       68.500       20.520        0.090      332.401        1.039      856.119
02/06/2014  08:13:00       59.160       45.142        0.898       28.615       20.497       21.329      818.811      420.109      454.929        0.362        0.085       74.415       15.522        0.044      332.491        1.187      856.118
02/06/2014  08:14:00       62.136       50.811       12.727       30.477       31.304       22.331      928.872      979.934      498.655        0.451        0.120       80.266       11.303        0.020      332.480        1.171      856.113
02/06/2014  08:15:00       28.831       32.219       44.065       35.928       34.130       18.452     1290.839     1164.874      340.467        0.330        0.140       43.235       16.579        0.147      332.675        1.491      856.105
02/06/2014  08:16:00       75.283       59.822        7.273       27.252       27.571       29.562      742.680      760.151      873.899        0.584        0.119       96.157       17.463        0.033      332.519        1.234      856.093
02/06/2014  08:17:00       84.580       57.606        0.849       31.561       24.837       26.105      996.122      616.885      681.484        0.638        0.115      102.334       19.869        0.038      332.532        1.255      856.097
02/06/2014  08:18:00       89.026       52.401       21.835       45.567       27.986       19.243     2076.319      783.209      370.303        0.719        0.161      103.303       14.395        0.019      332.448        1.116      856.103
02/06/2014  08:19:00       82.759       44.651        8.639       24.137       23.381       23.210      582.617      546.666      538.714        0.529        0.083       94.036       10.592        0.013      332.442        1.106      856.125
02/06/2014  08:20:00       63.479       36.836       22.536       34.213       26.268       28.945     1170.537      689.985      837.804        0.430        0.135       73.392       21.906        0.089      332.566        1.312      856.124
02/06/2014  08:21:00       49.700       55.441       45.956       54.600       31.809       28.888     2981.138     1011.801      834.511        0.624        0.241       74.456       27.140        0.133      332.526        1.244      856.124
02/06/2014  08:22:00      110.257       62.303       18.270       25.240       17.045       24.168      637.054      290.527      584.092        0.894        0.076      126.642       12.855        0.010      332.381        1.005      856.112
02/06/2014  08:23:00       54.634       34.172       48.636       42.450       37.151       38.861     1802.002     1380.183     1510.176        0.560        0.235       64.440       30.416        0.223      332.520        1.235      856.112
02/06/2014  08:24:00       56.809       48.727       66.675       35.177       35.596       23.493     1237.400     1267.109      551.899        0.655        0.153       74.844       14.371        0.037      332.423        1.076      856.104
02/06/2014  08:25:00      106.859       71.992       45.003       36.110       31.741       34.693     1303.930     1007.504     1203.586        1.107        0.176      128.847       27.749        0.046      332.481        1.172      856.099
02/06/2014  08:26:00       45.378       60.618       57.605       46.428       35.083       28.552     2155.525     1230.815      815.229        0.663        0.210       75.722       23.761        0.098      332.541        1.270      856.099
02/06/2014  08:27:00       84.021       44.112       47.063       26.834       34.355       27.746      720.050     1180.268      769.867        0.694        0.134       94.897       19.045        0.040      332.513        1.224      856.097
02/06/2014  08:28:00       78.916       48.809       25.001       29.610       25.470       20.347      876.763      648.714      413.993        0.559        0.097       92.790       10.241        0.012      332.460        1.137      856.088
02/06/2014  08:29:00       88.266       46.382       12.538       41.744       21.238       26.557     1742.523      451.067      705.288        0.650        0.145       99.710       17.782        0.032      332.523        1.240      856.064
02/06/2014  08:30:00      106.550       49.936        9.973       37.264       25.977       23.271     1388.596      674.789      541.549        0.827        0.130      117.671       16.629        0.020      332.528        1.248      856.050
02/06/2014  08:31:00      128.367       49.573        0.246       33.552       38.663       26.336     1125.743     1494.846      693.591        1.112        0.166      137.606       11.222        0.007      332.516        1.230      856.049
02/06/2014  08:32:00       96.770       66.521       24.696       36.339       22.637       29.458     1320.491      512.421      867.801        0.855        0.135      117.429       25.349        0.047      332.473        1.158      856.073
02/06/2014  08:33:00       38.240       20.307       44.279       27.012       35.266       23.321      729.629     1243.678      543.853        0.318        0.126       43.297       19.158        0.196      332.617        1.395      856.087
02/06/2014  08:34:00       31.543       23.520       48.165       30.317       33.655       19.252      919.091     1132.663      370.651        0.314        0.121       39.347       17.876        0.206      332.599        1.365      856.106
02/06/2014  08:35:00       24.430       46.827       47.573       32.835       25.113       26.167     1078.158      630.652      684.714        0.372        0.120       52.817       21.113        0.160      332.656        1.460      856.094
02/06/2014  08:36:00       89.304       48.267       17.818       40.183       32.653       32.152     1614.679     1066.250     1033.726        0.717        0.186      101.513       21.696        0.046      332.561        1.304      856.073
02/06/2014  08:37:00       87.047       71.319       10.264       26.207       25.715       23.707      686.816      661.280      562.005        0.734        0.096      112.533       19.493        0.030      332.487        1.181      856.064
02/06/2014  08:38:00      131.893       73.957       -5.027       24.567       23.193       20.057      603.537      537.897      402.268        1.222        0.077      151.213       10.478        0.005      332.435        1.096      856.067
02/06/2014  08:39:00      127.256       76.179        3.349       32.128       32.165       28.949     1032.185     1034.574      838.048        1.246        0.145      148.315       17.290        0.014      332.431        1.091      856.078
02/06/2014  08:40:00      122.080       73.857       28.864       27.678       22.232       33.462      766.059      494.275     1119.702        1.179        0.119      142.683       21.716        0.023      332.412        1.057      856.109
02/06/2014  08:41:00      122.556       78.586       17.681       20.578       23.540       22.893      423.436      554.124      524.093        1.150        0.075      145.587       10.165        0.005      332.446        1.113      856.115
02/06/2014  08:42:00      122.880       70.177       36.650       33.032       22.893       32.693     1091.141      524.067     1068.838        1.203        0.134      141.507       22.741        0.026      332.573        1.321      856.080
02/06/2014  08:43:00      108.589       58.317        8.802       41.460       42.665       39.375     1718.926     1820.274     1550.374        1.018        0.254      123.258       27.455        0.050      332.530        1.252      856.055
02/06/2014  08:44:00      126.756       75.006       31.788       50.471       33.240       35.985     2547.307     1104.901     1294.901        1.382        0.247      147.285       28.558        0.038      332.529        1.249      856.045
02/06/2014  08:45:00       89.116       66.084       46.431       28.732       30.090       32.890      825.556      905.429     1081.773        0.864        0.141      110.945       16.604        0.022      332.510        1.218      856.048
02/06/2014  08:46:00      118.438       63.641       24.457       27.323       19.908       25.075      746.557      396.336      628.737        1.022        0.089      134.454       14.258        0.011      332.425        1.078      856.045
02/06/2014  08:47:00       89.994       57.822       24.928       35.327       22.831       26.931     1247.983      521.240      725.276        0.728        0.125      106.969       20.142        0.035      332.533        1.257      856.042
02/06/2014  08:48:00       85.237       68.430       52.092       54.270       36.778       36.082     2945.268     1352.620     1301.912        1.013        0.280      109.307       26.560        0.059      332.538        1.266      856.034
02/06/2014  08:49:00       90.694       76.074       39.133       39.821       32.537       36.828     1585.676     1058.683     1356.282        0.977        0.200      118.375       31.463        0.071      332.439        1.102      856.028
02/06/2014  08:50:00       82.914       52.099       31.669       34.968       25.348       30.088     1222.788      642.518      905.286        0.668        0.139       97.924       17.364        0.031      332.551        1.287      856.026
02/06/2014  08:51:00       66.578       32.899       30.066       25.687       20.940       31.604      659.818      438.468      998.787        0.426        0.105       74.263       14.752        0.039      332.563        1.305      856.031
02/06/2014  08:52:00       99.279       55.809       19.408       46.010       34.344       33.319     2116.941     1179.520     1110.153        0.888        0.220      113.890       29.104        0.065      332.594        1.359      856.024
02/06/2014  08:53:00      133.963       90.250       10.488       38.456       33.868       33.156     1478.894     1147.055     1099.347        1.496        0.186      161.528       18.866        0.014      332.576        1.330      855.996
02/06/2014  08:54:00       97.697       89.574       31.327       45.640       28.348       32.503     2083.042      803.600     1056.451        1.125        0.197      132.545       30.791        0.054      332.516        1.230      855.983
02/06/2014  08:55:00       98.724       84.305       59.085       52.952       40.715       41.647     2803.916     1657.704     1734.452        1.327        0.310      129.822       36.428        0.079      332.550        1.286      855.968
02/06/2014  08:56:00      103.097       77.045       29.136       48.903       37.694       48.337     2391.508     1420.827     2336.457        1.178        0.307      128.705       24.870        0.037      332.435        1.096      855.966
02/06/2014  08:57:00       75.661       49.306        4.682       47.397       32.012       29.997     2246.487     1024.765      899.813        0.617        0.209       90.309       20.168        0.050      332.499        1.201      855.960
02/06/2014  08:58:00      121.861       32.961       39.525       57.962       48.968       48.034     3359.536     2397.826     2307.287        1.278        0.403      126.240       39.116        0.096      332.561        1.303      855.948
02/06/2014  08:59:00       83.961       89.414       87.227       54.767       61.170       48.685     2999.375     3741.767     2370.216        1.588        0.456      122.655       39.674        0.105      332.632        1.420      855.924
02/06/2014  09:00:00      114.721      116.402       86.340       46.355       52.324       47.880     2148.761     2737.816     2292.505        2.067        0.359      163.434       36.669        0.050      332.482        1.173      855.908
02/06/2014  09:01:00       80.386       75.189       61.014       37.945       42.556       33.895     1439.809     1811.001     1148.858        1.012        0.220      110.069       19.241        0.031      332.493        1.191      855.926
02/06/2014  09:02:00       41.014       33.389       56.747       39.413       40.992       31.546     1553.392     1680.353      995.161        0.512        0.211       52.886       29.741        0.316      332.677        1.496      855.945
02/06/2014  09:03:00       38.771       61.316       68.042       52.420       44.752       37.754     2747.876     2002.700     1425.345        0.803        0.309       72.545       34.113        0.221      332.714        1.557      855.962
02/06/2014  09:04:00       63.163       91.171       80.091       45.987       41.622       39.481     2114.778     1732.360     1558.771        1.206        0.270      110.914       28.995        0.068      332.592        1.354      855.957
02/06/2014  09:05:00      119.444       82.333       58.462       48.273       39.546       48.929     2330.290     1563.921     2394.035        1.537        0.314      145.071       38.148        0.069      332.492        1.188      855.936
02/06/2014  09:06:00       61.848       83.350       79.011       70.581       50.090       48.926     4981.629     2509.025     2393.802        1.345        0.494      103.791       44.612        0.185      332.607        1.379      855.927
02/06/2014  09:07:00       44.986       71.443       77.049       78.757       39.531       45.335     6202.690     1562.681     2055.232        1.144        0.491       84.427       41.681        0.244      332.652        1.453      855.932
02/06/2014  09:08:00       99.426       55.476       12.593       41.575       33.417       29.950     1728.505     1116.665      896.988        0.843        0.187      113.856       22.627        0.039      332.486        1.179      855.949
02/06/2014  09:09:00       69.356       42.708        4.198       43.756       28.105       22.635     1914.628      789.916      512.344        0.493        0.161       81.451        9.961        0.015      332.480        1.169      855.953
02/06/2014  09:10:00       84.370       55.668        8.667       30.899       36.156       27.321      954.738     1307.241      746.431        0.665        0.150      101.080       24.122        0.057      332.526        1.245      855.942
02/06/2014  09:11:00       92.912       61.537       23.884       37.478       27.457       34.738     1404.566      753.873     1206.695        0.818        0.168      111.443       26.273        0.056      332.590        1.350      855.913
02/06/2014  09:12:00      126.889       83.434       24.679       30.649       42.820       31.039      939.354     1833.571      963.450        1.370        0.187      151.862       21.229        0.020      332.547        1.280      855.866
02/06/2014  09:13:00      111.250       68.767       28.209       47.981       37.462       34.136     2302.218     1403.418     1165.276        1.139        0.244      130.788       24.815        0.036      332.597        1.362      855.823
02/06/2014  09:14:00       44.661       62.776       82.232       61.236       60.486       44.713     3749.804     3658.542     1999.245        1.105        0.470       77.042       37.281        0.234      332.733        1.587      855.821
02/06/2014  09:15:00       57.579       15.420       49.151       27.574       42.084       36.064      760.344     1771.100     1300.589        0.490        0.192       59.608       35.172        0.348      332.534        1.259      855.849
02/06/2014  09:16:00       69.381       60.267       31.402       33.593       26.852       30.276     1128.507      721.023      916.661        0.610        0.138       91.902       24.083        0.069      332.502        1.205      855.846
02/06/2014  09:17:00       65.775       15.563       32.246       28.739       28.419       21.742      825.924      807.630      472.733        0.386        0.105       67.591       18.746        0.077      332.509        1.217      855.849
02/06/2014  09:18:00       83.925       57.887       30.639       33.067       23.918       27.115     1093.420      572.072      735.208        0.687        0.120      101.953       22.575        0.049      332.461        1.139      855.843
02/06/2014  09:19:00       88.641       42.820       14.737       23.338       21.567       15.397      544.643      465.144      237.066        0.558        0.062       98.442       10.138        0.011      332.452        1.124      855.842
02/06/2014  09:20:00       31.619        8.577       14.535       22.281       14.891       16.751      496.464      221.743      280.580        0.114        0.050       32.762        7.642        0.054      332.671        1.485      855.830
02/06/2014  09:21:00       55.461       46.948        5.732       36.511       31.062       25.004     1333.066      964.824      625.200        0.412        0.146       72.664       16.635        0.052      332.530        1.252      855.806
02/06/2014  09:22:00       54.095       43.968        9.803       33.010       24.462       21.808     1089.677      598.410      475.588        0.356        0.108       69.710       11.609        0.028      332.569        1.316      855.798
02/06/2014  09:23:00       79.754       21.688        8.237       38.417       31.210       28.346     1475.902      974.035      803.476        0.508        0.163       82.650       17.290        0.044      332.562        1.304      855.804
02/06/2014  09:24:00       37.074       24.102        6.288       39.353       27.168       24.857     1548.675      738.119      617.857        0.245        0.145       44.220       18.561        0.176      332.657        1.461      855.792
02/06/2014  09:25:00       70.381       49.668       12.695       26.156       18.774       22.795      684.155      352.446      519.630        0.457        0.078       86.141       13.784        0.026      332.633        1.422      855.793
02/06/2014  09:26:00       48.862       46.231       10.993       16.535       16.843       22.504      273.410      283.695      506.442        0.285        0.053       67.267        9.836        0.021      332.566        1.311      855.796
02/06/2014  09:27:00       79.285       62.200       12.122       24.502       28.215       28.839      600.349      796.060      831.701        0.626        0.111      100.772        7.683        0.006      332.575        1.328      855.788
02/06/2014  09:28:00       57.832       26.357       -2.796       27.161       35.019       22.131      737.716     1226.347      489.791        0.325        0.123       63.555       12.367        0.038      332.587        1.347      855.789
02/06/2014  09:29:00       40.214       19.776       -0.713       24.775       23.296       19.887      613.820      542.696      395.501        0.178        0.078       44.814       17.736        0.157      332.719        1.565      855.779
02/06/2014  09:30:00       33.004       59.122       -3.922       18.763       38.845       20.398      352.059     1508.914      416.068        0.344        0.114       67.710       24.127        0.127      332.642        1.440      855.770
02/06/2014  09:31:00       24.696       67.656       -4.881       24.521       40.253       23.995      601.265     1620.312      575.784        0.400        0.140       72.023       22.630        0.099      332.667        1.479      855.794
02/06/2014  09:32:00       15.444      102.041      -18.145       24.200       21.058       14.416      585.636      443.452      207.821        0.611        0.062      103.203       13.114        0.016      332.470        1.153      855.809
02/06/2014  09:33:00       20.323       61.275       -8.281       16.506       38.343       19.679      272.459     1470.153      387.267        0.318        0.106       64.557       23.570        0.133      332.617        1.397      855.825
02/06/2014  09:34:00       26.238       44.512        4.493       22.401       28.900       17.486      501.813      835.187      305.750        0.217        0.082       51.670       11.876        0.053      332.678        1.497      855.820
02/06/2014  09:35:00       50.134       78.782       -9.405       47.401       40.048       26.932     2246.883     1603.815      725.339        0.669        0.229       93.381       19.670        0.044      332.678        1.496      855.817
02/06/2014  09:36:00       34.542       29.647        7.014       37.227       37.017       30.784     1385.831     1370.270      947.629        0.291        0.185       45.521       21.721        0.228      332.813        1.721      855.819
02/06/2014  09:37:00       21.234       57.455        2.519       27.946       32.004       22.287      780.979     1024.285      496.690        0.303        0.115       61.253       18.757        0.094      332.760        1.633      855.837
02/06/2014  09:38:00       42.383       38.472       -3.273       31.067       30.429       20.466      965.152      925.900      418.837        0.280        0.115       57.240       19.204        0.113      332.701        1.536      855.850
02/06/2014  09:39:00       59.624       51.345       -2.968       29.280       52.463       27.979      857.297     2752.345      782.819        0.530        0.220       78.685       27.797        0.125      332.692        1.520      855.844
02/06/2014  09:40:00       20.233      102.158      -15.749       20.604       15.220       15.960      424.514      231.655      254.719        0.600        0.046      104.143        9.524        0.008      332.595        1.358      855.848
02/06/2014  09:41:00       17.360       57.338      -10.558       19.255       28.932       20.011      370.741      837.044      400.458        0.265        0.080       59.908       17.760        0.088      332.630        1.416      855.852
02/06/2014  09:42:00       -6.011       46.982       -7.591       15.689       26.610       11.084      246.157      708.112      122.861        0.169        0.054       47.365        8.054        0.029      332.739        1.598      855.880
02/06/2014  09:43:00        0.301       19.306       -4.412       27.079       29.592       17.614      733.269      875.670      310.257        0.116        0.096       19.308        9.010        0.218      332.855        1.790      855.895
02/06/2014  09:44:00       19.067      108.685      -17.364       30.084       25.968       18.761      905.033      674.333      351.980        0.720        0.097      110.345       15.925        0.021      332.690        1.517      855.919
02/06/2014  09:45:00       16.426       24.322       -0.870       30.087       58.309       24.154      905.210     3399.950      583.437        0.287        0.244       29.349       25.225        0.739      332.987        2.007      855.937
02/06/2014  09:46:00       -9.240      -51.152      -14.713       33.156       32.771       17.956     1099.317     1073.962      322.435        0.271        0.125       51.980       15.965        0.094      333.042        2.099      855.945
02/06/2014  09:47:00       -5.852      -43.633        2.161       35.046       36.217       22.893     1228.199     1311.662      524.091        0.250        0.153       44.023       14.934        0.115      333.119        2.224      855.949
02/06/2014  09:48:00      -14.672      -25.607       22.189       21.073       52.013       25.835      444.088     2705.306      667.442        0.259        0.191       29.513       21.877        0.549      333.252        2.446      855.956
02/06/2014  09:49:00      -73.956      -10.667        8.231       33.986       46.865       20.456     1155.025     2196.318      418.457        0.471        0.188       74.721       15.518        0.043      332.984        2.004      855.962
02/06/2014  09:50:00      -38.378      -38.271       13.361       40.354       21.786       23.443     1628.481      474.642      549.574        0.288        0.133       54.199       24.016        0.196      333.009        2.043      855.970
02/06/2014  09:51:00     -102.502      -26.761       -1.448       47.396       40.507       25.341     2246.395     1640.821      642.180        0.788        0.226      105.938       25.198        0.057      332.861        1.799      855.965
02/06/2014  09:52:00     -188.412      -47.568      -15.422       51.569       38.913       24.831     2659.322     1514.226      616.583        2.139        0.240      194.324       18.848        0.009      332.687        1.509      855.974
02/06/2014  09:53:00      -65.064      -46.453       -8.464       27.914       30.094       19.021      779.198      905.630      361.798        0.425        0.102       79.945       18.938        0.056      332.743        1.605      855.978
02/06/2014  09:54:00      -27.446      -33.042       11.032       20.884       33.041       14.905      436.150     1091.680      222.166        0.186        0.087       42.954       10.144        0.056      332.919        1.895      855.972
02/06/2014  09:55:00      -27.741       -8.466        0.978       41.734       11.943       21.844     1741.760      142.634      477.160        0.160        0.118       29.004       24.306        0.702      332.944        1.937      855.976
02/06/2014  09:56:00      -28.354      -19.671       10.318       36.244       27.374       25.403     1313.624      749.348      645.291        0.200        0.135       34.509       30.882        0.801      332.990        2.011      855.982
02/06/2014  09:57:00      -84.369      -39.700      -16.551       30.283       17.938       14.610      917.041      321.782      213.439        0.521        0.073       93.243       15.520        0.028      332.856        1.792      855.976
02/06/2014  09:58:00     -121.255      -21.262      -10.523       52.760       43.187       21.942     2783.650     1865.152      481.459        1.020        0.257      123.105       20.626        0.028      332.853        1.785      855.971
02/06/2014  09:59:00     -120.517      -30.030       -4.185       74.670       36.348       22.956     5575.579     1321.153      526.977        1.143        0.371      124.202       28.258        0.052      333.168        2.306      855.961
02/06/2014  10:00:00      -70.234      -56.342        3.122       56.455       36.915       29.421     3187.153     1362.731      865.570        0.677        0.271       90.040       32.936        0.134      333.185        2.334      855.951
02/06/2014  10:01:00     -110.460      -90.787        0.666       55.356       47.722       29.871     3064.336     2277.421      892.271        1.334        0.312      142.981       31.741        0.049      333.006        2.039      855.952
02/06/2014  10:02:00      -59.458      -77.166       -4.238       51.487       31.425       23.461     2650.860      987.559      550.405        0.685        0.209       97.416       14.468        0.022      332.924        1.904      855.945
02/06/2014  10:03:00     -107.057      -79.335       -3.498       45.623       41.652       26.174     2081.457     1734.871      685.079        1.113        0.225      133.249       25.334        0.036      332.948        1.943      855.933
02/06/2014  10:04:00      -80.947      -40.396        2.353       37.708       30.453       18.209     1421.916      927.381      331.579        0.543        0.134       90.467       19.143        0.045      333.030        2.076      855.917
02/06/2014  10:05:00      -62.811       62.668       -6.036       34.642       38.941       23.289     1200.095     1516.421      542.366        0.558        0.163       88.727       14.774        0.028      332.998        2.026      855.900
02/06/2014  10:06:00     -114.446        6.682       -5.645       69.427       30.034       19.771     4820.160      902.063      390.888        0.964        0.306      114.641       17.081        0.022      332.988        2.007      855.892
02/06/2014  10:07:00      -90.809       -1.288       -8.833       36.478       34.250       21.350     1330.659     1173.094      455.803        0.564        0.148       90.818       19.339        0.045      333.105        2.201      855.889
02/06/2014  10:08:00      -72.275      -38.388        5.168       45.370       32.878       22.146     2058.392     1080.983      490.427        0.518        0.181       81.837       13.537        0.027      333.100        2.194      855.888
02/06/2014  10:09:00      -92.887      -12.164       -7.876       22.495       21.578       16.286      506.022      465.619      265.244        0.504        0.062       93.680        8.575        0.008      332.875        1.824      855.872
02/06/2014  10:10:00      -41.819       -2.280        6.248       32.317       25.669       21.973     1044.395      658.914      482.831        0.199        0.109       41.881       19.298        0.212      333.093        2.184      855.859
02/06/2014  10:11:00      -77.264       39.990       -4.236       27.993       34.474       21.381      783.612     1188.470      457.163        0.501        0.121       86.999       15.693        0.033      332.999        2.028      855.848
02/06/2014  10:12:00      -22.939       70.728        0.004       19.197       42.405       21.603      368.540     1798.159      466.678        0.408        0.132       74.355       15.924        0.046      333.129        2.242      855.841
02/06/2014  10:13:00      -20.336       24.294        6.527       23.893       26.739       18.446      570.859      714.955      340.258        0.134        0.081       31.682       16.150        0.260      333.395        2.683      855.842
02/06/2014  10:14:00      -62.016       72.652      -11.249       24.076       28.268       17.367      579.647      799.106      301.620        0.547        0.084       95.521       14.424        0.023      333.115        2.219      855.840
02/06/2014  10:15:00      -39.663       64.569        1.302       28.866       34.976       26.458      833.239     1223.320      700.026        0.425        0.138       75.778       27.660        0.133      333.349        2.605      855.819
02/06/2014  10:16:00      -55.047       32.080        6.074       34.906       20.890       22.488     1218.434      436.396      505.721        0.313        0.108       63.713       20.337        0.102      333.356        2.618      855.806
02/06/2014  10:17:00      -34.974       32.765       -3.887       33.938       33.666       19.935     1151.781     1133.411      397.395        0.250        0.134       47.924       16.216        0.114      333.235        2.417      855.798
02/06/2014  10:18:00      -28.573       37.168        7.366       25.875       28.422       26.541      669.525      807.820      704.422        0.222        0.109       46.881       23.812        0.258      333.459        2.788      855.779
02/06/2014  10:19:00      -65.460       29.276       -0.497       19.827       28.994       17.075      393.107      840.649      291.561        0.333        0.076       71.708        9.723        0.018      333.187        2.338      855.779
02/06/2014  10:20:00      -57.256      -16.099        9.494       46.692       22.376       21.924     2180.118      500.667      480.673        0.339        0.158       59.476       25.414        0.183      333.407        2.701      855.765
02/06/2014  10:21:00       -4.887       -3.688       12.028       24.528       18.913       15.093      601.610      357.713      227.788        0.068        0.059        6.123        6.511        1.131      333.779        3.316      855.750
02/06/2014  10:22:00      -61.065       -4.605        0.581       28.519       20.266       25.257      813.334      410.713      637.910        0.281        0.093       61.239       22.122        0.130      333.331        2.575      855.738
02/06/2014  10:23:00      -32.022      -16.462        0.877       29.372       20.133       16.063      862.709      405.337      258.005        0.141        0.076       36.006       12.187        0.115      333.410        2.706      855.718
02/06/2014  10:24:00       -2.166       57.847        3.333       36.882       27.555       23.761     1360.279      759.287      564.569        0.302        0.134       57.887       19.908        0.118      333.623        3.059      855.706
02/06/2014  10:25:00      -19.772       28.697        3.076       26.692       28.929       18.787      712.467      836.881      352.955        0.156        0.095       34.849       20.206        0.336      333.621        3.057      855.698
02/06/2014  10:26:00      -32.770       24.957       -1.242       28.279       34.183       20.301      799.686     1168.495      412.119        0.204        0.119       41.191       12.355        0.090      333.515        2.880      855.690
02/06/2014  10:27:00       -1.169       27.622       -2.713       14.913       31.235       17.877      222.410      975.648      319.597        0.114        0.076       27.647       19.831        0.515      333.589        3.002      855.691
02/06/2014  10:28:00      -12.111       50.860      -17.414       20.878       38.815       12.087      435.886     1506.580      146.089        0.256        0.104       52.282       14.692        0.079      333.295        2.514      855.693
02/06/2014  10:29:00      -35.612       19.073       -1.172       19.748       15.079       15.411      389.964      227.375      237.503        0.124        0.043       40.398       10.779        0.071      333.533        2.910      855.705
02/06/2014  10:30:00      -37.616        7.210        5.653       19.412       28.967       18.166      376.816      839.071      330.019        0.152        0.077       38.301       15.578        0.165      333.543        2.926      855.702
02/06/2014  10:31:00        8.503       10.979       12.331       28.430       20.713       15.556      808.258      429.018      242.002        0.091        0.074       13.887       13.719        0.976      334.089        3.831      855.701
02/06/2014  10:32:00       58.846       38.593        7.733       21.743       24.276       25.715      472.778      589.333      661.276        0.337        0.086       70.372       16.513        0.055      333.611        3.039      855.687
02/06/2014  10:33:00       85.834       58.938        0.785       30.150       30.587       24.323      909.043      935.574      591.605        0.664        0.122      104.121       11.205        0.012      333.533        2.909      855.663
02/06/2014  10:34:00       65.986       55.490        7.192       32.616       32.764       31.218     1063.774     1073.468      974.576        0.530        0.156       86.217       10.202        0.014      333.609        3.036      855.663
02/06/2014  10:35:00       71.510       44.334        0.893       18.442       25.001       26.914      340.125      625.070      724.339        0.438        0.084       84.138       15.637        0.035      333.511        2.876      855.655
02/06/2014  10:36:00       27.843       27.319       13.663       24.464       18.958       22.456      598.480      359.390      504.289        0.158        0.073       39.007       13.193        0.114      333.719        3.217      855.658
02/06/2014  10:37:00       17.347       49.146       76.025       28.774       34.367       15.561      827.931     1181.107      242.159        0.537        0.113       52.118       16.545        0.101      333.897        3.513      855.666
02/06/2014  10:38:00       47.725       63.481       57.447       31.882       28.929       24.267     1016.436      836.915      588.885        0.602        0.122       79.420       20.425        0.066      333.734        3.242      855.674
02/06/2014  10:39:00       21.324       39.625       53.184       33.440       37.589       26.117     1118.261     1412.957      682.087        0.403        0.161       44.998       23.769        0.279      333.997        3.680      855.663
02/06/2014  10:40:00       78.619       76.223       48.527       34.208       26.366       26.503     1170.214      695.182      702.428        0.846        0.128      109.503       21.075        0.037      333.670        3.138      855.650
02/06/2014  10:41:00       31.603       39.944       50.527       39.293       38.634       17.523     1543.954     1492.562      307.040        0.424        0.167       50.934       16.161        0.101      334.112        3.870      855.645
02/06/2014  10:42:00       -3.427       -0.318       22.544       13.596       28.085       18.017      184.864      788.773      324.618        0.091        0.065        3.441       13.247       14.817      334.363        4.288      855.650
02/06/2014  10:43:00       18.944       68.650       -1.045       32.813       42.091       28.035     1076.675     1771.658      785.957        0.435        0.182       71.215       25.002        0.123      334.107        3.861      855.648
02/06/2014  10:44:00       96.843       56.348       19.076       54.792       38.081       35.616     3002.179     1450.171     1268.531        0.932        0.286      112.043       16.044        0.021      334.134        3.907      855.646
02/06/2014  10:45:00       75.381       97.526       89.758       71.581       56.981       71.502     5123.880     3246.804     5112.479        1.836        0.674      123.262       63.879        0.269      333.892        3.502      855.632
02/06/2014  10:46:00       80.463       71.918       48.704       60.896       56.755       49.268     3708.296     3221.129     2427.381        1.169        0.468      107.919       36.371        0.114      334.336        4.241      855.621
02/06/2014  10:47:00       55.544       89.321       73.499       69.523       67.300       59.539     4833.428     4529.304     3544.882        1.468        0.645      105.183       49.788        0.224      334.318        4.210      855.609
02/06/2014  10:48:00      134.845       99.224       27.740       44.434       43.844       35.295     1974.401     1922.323     1245.752        1.697        0.257      167.417       34.840        0.043      333.625        3.060      855.617
02/06/2014  10:49:00       69.512       64.459       -2.237       37.431       37.803       37.281     1401.114     1429.071     1389.847        0.661        0.211       94.799       22.358        0.056      333.962        3.620      855.618
02/06/2014  10:50:00       51.004       73.820       -6.980       28.929       34.576       31.243      836.872     1195.487      976.149        0.555        0.150       89.726       18.882        0.044      333.881        3.487      855.618
02/06/2014  10:51:00       94.157       14.373       18.683       41.888       49.944       33.263     1754.618     2494.364     1106.428        0.739        0.268       95.248       18.769        0.039      333.771        3.303      855.608
02/06/2014  10:52:00      104.657       45.378        9.609       53.612       48.563       27.907     2874.227     2358.400      778.774        0.956        0.301      114.072       25.087        0.048      334.004        3.690      855.598
02/06/2014  10:53:00       88.557       70.985       -5.544       41.967       30.859       30.500     1761.238      952.271      930.252        0.828        0.182      113.495       16.299        0.021      333.902        3.521      855.604
02/06/2014  10:54:00       26.490       54.594        2.936       54.342       43.512       27.704     2953.099     1893.270      767.512        0.465        0.281       60.682       14.983        0.061      333.991        3.669      855.632
02/06/2014  10:55:00      -31.240      -31.104       -9.779       31.535       28.848       17.113      994.469      832.190      292.872        0.208        0.106       44.084       13.882        0.099      333.820        3.385      855.651
02/06/2014  10:56:00     -106.939       46.612      -18.980       24.368       38.003       22.441      593.807     1444.263      503.618        0.825        0.127      116.656       21.513        0.034      333.692        3.172      855.650
02/06/2014  10:57:00      -62.532        9.850       -5.316       25.535       23.276       22.187      652.047      541.768      492.249        0.286        0.084       63.303       18.411        0.085      333.773        3.308      855.654
02/06/2014  10:58:00       -9.414       14.130        8.746       28.758       13.567       22.665      827.006      184.065      513.694        0.094        0.076       16.979       18.179        1.146      334.437        4.409      855.644
02/06/2014  10:59:00       -1.593       28.757       19.438       29.088       39.714       30.845      846.108     1577.165      951.442        0.229        0.169       28.801       27.690        0.924      334.608        4.693      855.649
02/06/2014  11:00:00       84.323       72.871       44.592       39.543       35.786       34.348     1563.647     1280.618     1179.794        0.922        0.201      111.448       20.547        0.034      334.119        3.882      855.643
02/06/2014  11:01:00       12.878       15.177       28.329       37.528       46.862       27.220     1408.368     2196.020      740.915        0.277        0.217       19.904       15.340        0.594      334.550        4.598      855.631
02/06/2014  11:02:00       35.033       78.230       92.518       49.785       38.779       40.900     2478.594     1503.846     1672.810        1.078        0.283       85.716       29.643        0.120      334.302        4.184      855.613
02/06/2014  11:03:00        0.027      116.372      128.048       34.402       59.175       31.849     1183.498     3501.709     1014.361        1.782        0.285      116.372       37.503        0.104      334.236        4.076      855.591
02/06/2014  11:04:00        8.680       91.073      119.272       33.931       65.865       31.617     1151.323     4338.145      999.665        1.454        0.324       91.486       40.396        0.195      334.287        4.160      855.570
02/06/2014  11:05:00      117.406       25.178       27.241       54.602       77.875       50.518     2981.338     6064.490     2552.109        1.338        0.580      120.075       41.017        0.117      334.010        3.701      855.563
02/06/2014  11:06:00       29.429       43.364      -10.150       35.504       61.422       30.239     1260.530     3772.608      914.374        0.440        0.297       52.407       28.052        0.287      334.204        4.023      855.521
02/06/2014  11:07:00       16.635       20.579       44.348       34.460       42.044       41.697     1187.518     1767.697     1738.625        0.368        0.235       26.461       26.087        0.972      334.749        4.928      855.496
02/06/2014  11:08:00       89.705       95.597       85.123       81.264       64.504       46.254     6603.832     4160.725     2139.410        1.867        0.645      131.094       51.881        0.157      334.391        4.330      855.489
02/06/2014  11:09:00       99.255       74.575       41.267       64.132       54.985       49.607     4112.905     3023.377     2460.870        1.335        0.480      124.149       44.368        0.128      334.244        4.088      855.501
02/06/2014  11:10:00       81.969       28.265       48.080       51.570       34.545       29.991     2659.452     1193.373      899.482        0.729        0.238       86.705       23.202        0.072      334.349        4.264      855.509
02/06/2014  11:11:00       54.488       89.397       97.911       75.837       58.364       49.334     5751.284     3406.353     2433.846        1.607        0.580      104.693       38.624        0.136      334.457        4.441      855.493
02/06/2014  11:12:00      135.922       84.510       35.493       28.501       36.501       38.516      812.289     1332.306     1483.448        1.525        0.181      160.052       27.770        0.030      333.992        3.670      855.488
02/06/2014  11:13:00       78.589       55.560        3.169       24.139       19.957       23.205      582.689      398.263      538.449        0.540        0.076       96.245       12.926        0.018      333.932        3.572      855.470
02/06/2014  11:14:00       36.122       54.890       33.960       31.884       36.390       41.410     1016.600     1324.237     1714.778        0.476        0.203       65.709       18.401        0.078      334.287        4.161      855.444
02/06/2014  11:15:00       60.223       88.303       61.561       37.870       45.199       47.231     1434.138     2042.937     2230.756        1.046        0.285      106.884       36.384        0.116      334.262        4.118      855.426
02/06/2014  11:16:00       41.429      -85.714       -2.530       42.439       83.622       33.627     1801.091     6992.624     1130.779        0.950        0.496       95.202       36.125        0.144      334.445        4.422      855.427
02/06/2014  11:17:00       47.492       19.959       53.421       53.633       49.659       37.795     2876.518     2466.055     1428.499        0.614        0.339       51.515       34.438        0.447      334.522        4.550      855.423
02/06/2014  11:18:00      111.224       82.072       66.974       73.907       47.965       47.268     5462.223     2300.596     2234.267        1.679        0.500      138.227       46.855        0.115      334.251        4.101      855.423
02/06/2014  11:19:00      108.226       71.317       44.539       47.751       52.657       39.489     2280.167     2772.711     1559.386        1.270        0.331      129.611       19.496        0.023      334.221        4.049      855.401
02/06/2014  11:20:00      120.069       88.558       32.334       27.315       27.350       28.516      746.127      748.039      813.135        1.281        0.115      149.195       19.059        0.016      334.054        3.773      855.375
02/06/2014  11:21:00       71.486       69.165       27.728       39.462       35.751       33.423     1557.215     1278.109     1117.116        0.731        0.198       99.469       13.248        0.018      334.315        4.207      855.343
02/06/2014  11:22:00       69.896       45.204       77.723       63.985       71.851       55.150     4094.045     5162.517     3041.493        1.263        0.615       83.240       56.338        0.458      334.295        4.172      855.343
02/06/2014  11:23:00       62.301       40.494       47.938       41.397       51.090       34.044     1713.677     2610.189     1158.963        0.665        0.274       74.304       21.909        0.087      334.281        4.150      855.350
02/06/2014  11:24:00       56.269       -5.614       49.992       61.758       94.120       52.469     3813.993     8858.531     2753.021        1.056        0.771       56.548       58.625        1.075      334.601        4.681      855.350
02/06/2014  11:25:00       46.723      -13.574       17.619       37.927       76.574       37.249     1438.428     5863.593     1387.505        0.568        0.434       48.655       35.082        0.520      334.570        4.629      855.356
02/06/2014  11:26:00       20.493       13.346       34.951       36.602       37.756       31.798     1339.712     1425.497     1011.134        0.280        0.189       24.456       26.514        1.175      334.780        4.979      855.352
02/06/2014  11:27:00       55.117       70.702       56.341       65.071       44.441       40.892     4234.212     1975.000     1672.140        0.954        0.394       89.648       29.402        0.108      334.640        4.746      855.335
02/06/2014  11:28:00      142.367       92.302        9.350       55.144       36.816       36.742     3040.826     1355.397     1349.965        1.731        0.287      169.670       20.155        0.014      334.153        3.936      855.316
02/06/2014  11:29:00       86.714       78.969       13.415       41.187       30.440       27.166     1696.354      926.597      738.005        0.865        0.168      117.283       19.701        0.028      334.199        4.014      855.302
02/06/2014  11:30:00       97.405       57.397       32.608       37.420       37.083       29.583     1400.260     1375.139      875.150        0.875        0.183      113.058       16.389        0.021      334.453        4.435      855.276
02/06/2014  11:31:00       16.085       21.163       62.484       34.849       48.778       40.489     1214.483     2379.277     1639.362        0.492        0.262       26.582       33.234        1.563      334.745        4.921      855.242
02/06/2014  11:32:00       15.024       33.870       16.847       58.527       53.029       36.720     3425.382     2812.023     1348.351        0.462        0.379       37.053       28.491        0.591      334.739        4.910      855.210
02/06/2014  11:33:00      132.686       97.294        9.803       56.931       53.381       43.000     3241.122     2849.558     1848.994        1.755        0.397      164.535       15.722        0.009      334.522        4.549      855.174
02/06/2014  11:34:00      133.595       88.737        3.878       40.063       34.826       36.383     1605.059     1212.870     1323.693        1.494        0.207      160.380       23.211        0.021      334.300        4.182      855.141
02/06/2014  11:35:00      118.631       79.537        2.082       42.189       28.663       29.810     1779.911      821.582      888.610        1.195        0.175      142.826       17.946        0.016      334.224        4.056      855.110
02/06/2014  11:36:00      118.401       55.387       23.059       59.386       66.250       34.187     3526.691     4389.124     1168.750        1.335        0.454      130.715        5.621        0.002      334.429        4.396      855.087
02/06/2014  11:37:00       88.449       58.921       50.018       56.810       55.423       36.806     3227.324     3071.735     1354.668        1.072        0.383      106.278       33.390        0.099      334.573        4.635      855.085
02/06/2014  11:38:00       56.636       30.199       51.897       47.518       79.758       42.188     2257.956     6361.378     1779.864        0.860        0.520       64.184       45.017        0.492      334.526        4.558      855.087
02/06/2014  11:39:00       41.283       -3.478       45.820       65.308       59.738       46.787     4265.095     3568.579     2189.016        0.692        0.501       41.429       41.214        0.990      334.716        4.873      855.091
02/06/2014  11:40:00       80.767       76.136       72.833       48.230       38.887       38.327     2326.098     1512.216     1468.974        1.147        0.265      110.996       25.709        0.054      334.533        4.569      855.103
02/06/2014  11:41:00       24.812      -20.625       22.037       31.569       68.845       31.687      996.606     4739.655     1004.074        0.413        0.337       32.265       22.679        0.494      334.688        4.826      855.074
02/06/2014  11:42:00      100.772     -101.738       -8.636       61.798       75.338       46.169     3818.934     5675.878     2131.533        1.610        0.581      143.198       46.986        0.108      334.666        4.789      855.032
02/06/2014  11:43:00       21.875        0.314       67.918       41.155       51.647       29.310     1693.748     2667.437      859.083        0.515        0.261       21.877       25.863        1.398      334.972        5.297      854.994
02/06/2014  11:44:00       55.773      -64.087       16.084       41.618       79.734       39.089     1732.095     6357.563     1527.977        0.855        0.481       84.958       39.665        0.218      334.802        5.014      854.956
02/06/2014  11:45:00       14.288        4.379       56.156       36.744       88.766       43.766     1350.144     7879.490     1915.504        0.726        0.557       14.944       44.945        9.046      334.888        5.158      854.919
02/06/2014  11:46:00       19.775        8.551       39.009       28.944       38.952       21.645      837.773     1517.230      468.498        0.240        0.141       21.545       17.656        0.672      334.955        5.270      854.880
02/06/2014  11:47:00       46.433       63.679       25.054       25.445       22.364       26.249      647.431      500.136      688.984        0.434        0.092       78.811       12.304        0.024      334.600        4.680      854.841
02/06/2014  11:48:00       14.180       -3.852       12.092       22.816       35.364       17.663      520.554     1250.632      311.983        0.122        0.104       14.694        7.311        0.248      335.030        5.394      854.787
02/06/2014  11:49:00       38.196       80.588      104.300       74.411       78.558       65.235     5537.005     6171.386     4255.593        1.740        0.798       89.182       66.834        0.562      335.212        5.694      854.746
02/06/2014  11:50:00      142.276      114.934       47.318       61.136       75.335       52.386     3737.636     5675.329     2744.282        2.392        0.608      182.900       37.051        0.041      334.696        4.836      854.703
02/06/2014  11:51:00      164.690      116.538       38.528       87.268       75.519       59.213     7615.624     5703.057     3506.229        2.950        0.841      201.752       28.248        0.020      334.786        4.985      854.654
02/06/2014  11:52:00      268.669      175.836       31.576      103.935       82.538       62.823    10802.567     6812.586     3946.777        6.283        1.078      321.095       26.783        0.007      334.672        4.794      854.613
02/06/2014  11:53:00       85.421      103.193      111.704       94.364       85.356       70.221     8904.484     7285.717     4931.026        2.577        1.056      133.961       53.468        0.159      334.963        5.280      854.590
02/06/2014  11:54:00       56.781      131.417      141.941       83.118       65.057       55.737     6908.540     4232.371     3106.583        2.744        0.712      143.159       54.427        0.145      334.661        4.778      854.587
02/06/2014  11:55:00      174.696      100.475       59.847      109.318       93.063       64.905    11950.376     8660.805     4212.620        3.451        1.241      201.530       60.061        0.089      334.951        5.261      854.579
02/06/2014  11:56:00      227.715      163.105       27.102       61.109       53.475       55.396     3734.283     2859.588     3068.747        4.443        0.483      280.103       24.874        0.008      334.622        4.713      854.565
02/06/2014  11:57:00      219.060      150.810        9.363       74.071       49.500       50.433     5486.560     2450.278     2543.447        4.065        0.524      265.952       30.463        0.013      334.477        4.471      854.564
02/06/2014  11:58:00       90.748       52.418        9.256       71.791       38.190       30.710     5153.898     1458.468      943.098        0.931        0.378      104.800       11.879        0.013      334.705        4.854      854.544
02/06/2014  11:59:00      125.651       81.543       34.492       82.312       61.813       48.681     6775.305     3820.851     2369.870        1.829        0.648      149.792       34.167        0.052      334.896        5.170      854.500
02/06/2014  12:00:00      195.985      131.790       22.111      106.775       76.546       59.477    11400.911     5859.235     3537.515        3.853        1.040      236.176       38.864        0.027      334.955        5.265      854.473
02/06/2014  12:01:00      139.770      106.781       32.726       64.924       45.353       32.642     4215.178     2056.905     1065.527        1.967        0.367      175.892       26.528        0.023      334.428        4.392      854.476
02/06/2014  12:02:00       25.792       14.546       14.473       36.959       18.278       19.596     1365.946      334.091      383.996        0.158        0.104       29.611        6.610        0.050      335.040        5.411      854.470
02/06/2014  12:03:00       43.822        6.715       -1.975       37.617       41.458       30.627     1415.062     1718.791      938.035        0.302        0.204       44.334       10.949        0.061      335.152        5.596      854.482
02/06/2014  12:04:00       48.397       45.888       26.740       84.749       51.755       39.652     7182.437     2678.627     1572.273        0.830        0.572       66.693       38.679        0.336      335.436        6.067      854.470
02/06/2014  12:05:00       85.179       57.239       23.616       95.602       73.561       40.663     9139.792     5411.258     1653.511        1.364        0.810      102.624       39.059        0.145      335.392        5.996      854.465
02/06/2014  12:06:00      175.771      112.221        7.020       55.186       37.856       45.610     3045.538     1433.054     2080.309        2.505        0.328      208.540       30.500        0.021      334.733        4.898      854.458
02/06/2014  12:07:00      102.512      112.326        9.914       78.908       51.029       40.113     6226.482     2603.940     1609.035        1.683        0.522      152.071       28.782        0.036      334.802        5.014      854.442
02/06/2014  12:08:00       54.080       47.181       11.172       56.138       45.083       32.878     3151.505     2032.473     1080.944        0.577        0.313       71.768       26.213        0.133      335.043        5.416      854.410
02/06/2014  12:09:00       61.259       98.954        2.937       55.206       52.587       41.705     3047.749     2765.419     1739.278        1.055        0.378      116.381       27.780        0.057      334.776        4.972      854.389
02/06/2014  12:10:00       58.568       58.884       10.696       40.006       36.996       37.839     1600.489     1368.700     1431.779        0.571        0.220       83.051       28.718        0.120      334.945        5.252      854.367
02/06/2014  12:11:00      153.456      126.032       37.589       53.025       53.008       43.126     2811.669     2809.866     1859.869        2.416        0.374      198.577       20.380        0.011      334.847        5.087      854.331
02/06/2014  12:12:00      179.592      145.280       17.820       60.268       55.582       58.597     3632.258     3089.388     3433.646        3.191        0.508      230.997       41.217        0.032      334.928        5.222      854.312
02/06/2014  12:13:00      120.467      115.967       28.307       77.332       57.345       73.216     5980.253     3288.483     5360.575        2.169        0.731      167.214       59.123        0.125      335.004        5.349      854.301
02/06/2014  12:14:00       56.248      -50.535       23.383       41.707       98.997       60.242     1739.513     9800.500     3629.074        1.071        0.758       75.615       65.787        0.757      334.733        4.901      854.302
02/06/2014  12:15:00       32.175       27.595       22.563       41.596       71.130       29.676     1730.251     5059.515      880.692        0.499        0.384       42.388       21.978        0.269      335.270        5.792      854.299
02/06/2014  12:16:00       23.210       24.052       54.097       43.116       62.840       43.178     1859.009     3948.831     1864.356        0.586        0.384       33.425       44.373        1.762      335.285        5.817      854.280
02/06/2014  12:17:00      108.537      -70.198       -5.294       46.087       96.823       38.923     2124.019     9374.628     1514.992        1.487        0.651      129.259       40.427        0.098      335.062        5.447      854.256
02/06/2014  12:18:00       64.365       65.575       59.398       70.186       52.207       47.881     4926.085     2725.541     2292.568        1.096        0.497       91.886       46.390        0.255      335.366        5.952      854.237
02/06/2014  12:19:00      124.714       98.213       36.614       87.963       48.835       54.433     7737.559     2384.851     2962.923        1.981        0.654      158.743       52.950        0.111      335.176        5.634      854.221
02/06/2014  12:20:00      118.572       48.837        6.170       73.460       44.264       32.699     5396.347     1959.310     1069.233        1.245        0.421      128.236       19.381        0.023      335.215        5.701      854.215
02/06/2014  12:21:00       42.320       58.051        7.794       46.895       42.620       35.781     2199.171     1816.479     1280.310        0.526        0.265       71.839       27.917        0.151      335.114        5.533      854.208
02/06/2014  12:22:00      102.084       82.267       11.885       53.063       49.415       48.406     2815.715     2441.886     2343.151        1.246        0.380      131.107       37.669        0.083      334.741        4.912      854.195
02/06/2014  12:23:00      152.180       87.493       18.065       55.302       32.373       32.440     3058.322     1048.007     1052.331        1.815        0.258      175.539       21.519        0.015      334.637        4.738      854.157
02/06/2014  12:24:00      114.975       74.132       10.728       44.334       36.441       26.510     1965.545     1327.953      702.785        1.141        0.200      136.802        9.228        0.005      334.740        4.911      854.127
02/06/2014  12:25:00      179.652       95.777       35.566       48.824       47.924       42.805     2383.788     2296.719     1832.287        2.461        0.326      203.588       12.423        0.004      334.789        4.992      854.104
02/06/2014  12:26:00       77.999       68.942        0.620       45.699       35.167       30.839     2088.420     1236.745      951.068        0.756        0.214      104.100       17.800        0.029      334.748        4.924      854.080
02/06/2014  12:27:00       65.812       46.137       34.084       43.885       29.820       32.382     1925.931      889.261     1048.622        0.574        0.193       80.373       20.641        0.066      334.991        5.330      854.031
02/06/2014  12:28:00       15.909      112.849      111.701       66.474       63.886       67.512     4418.831     4081.389     4557.882        1.926        0.653      113.965       56.880        0.249      335.307        5.852      853.991
02/06/2014  12:29:00        9.445      146.883       -9.729       47.054       97.987       39.944     2214.084     9601.467     1595.485        1.758        0.671      147.186       55.982        0.145      334.944        5.248      853.985
02/06/2014  12:30:00       22.144      132.868      -14.690       34.878       48.814       28.348     1216.495     2382.823      803.616        1.138        0.220      134.701       30.392        0.051      335.019        5.375      853.977
02/06/2014  12:31:00        7.972      134.988      -17.130       24.926       54.410       27.043      621.311     2960.484      731.325        1.145        0.216      135.223       30.580        0.051      334.924        5.217      853.966
02/06/2014  12:32:00       28.903       42.690       -3.220       44.403       37.425       24.463     1971.623     1400.599      598.460        0.332        0.199       51.554       19.785        0.147      335.189        5.657      853.957
02/06/2014  12:33:00       69.586       50.151       12.017       65.817       34.306       25.611     4331.885     1176.881      655.909        0.683        0.308       85.775       13.757        0.026      335.287        5.819      853.970
02/06/2014  12:34:00      198.704      146.272       23.266       58.072       42.672       59.109     3372.374     1820.911     3493.852        3.505        0.434      246.736       29.112        0.014      334.901        5.175      853.984
02/06/2014  12:35:00      129.235       97.165       21.993       53.105       47.710       41.076     2820.112     2276.201     1687.224        1.670        0.339      161.687       27.297        0.029      334.976        5.304      853.990
02/06/2014  12:36:00       58.416      118.804       -5.486       71.919       75.774       54.076     5172.317     5741.695     2924.242        1.570        0.692      132.389       48.107        0.132      335.150        5.593      853.982
02/06/2014  12:37:00       52.373      170.092      -20.283       55.544       84.050       51.210     3085.175     7064.448     2622.445        2.243        0.639      177.972       49.772        0.078      335.020        5.374      853.977
02/06/2014  12:38:00       39.114      162.857      -15.807       58.535       71.514       55.462     3426.307     5114.310     3076.045        1.996        0.581      167.488       49.477        0.087      334.982        5.312      853.966
02/06/2014  12:39:00       63.580      126.879        7.672       89.257       82.437       45.590     7966.880     6795.859     2078.469        1.852        0.842      141.918       44.066        0.096      335.047        5.421      853.945
02/06/2014  12:40:00      161.981      121.681       24.931       71.925       47.009       48.709     5173.208     2209.851     2372.612        2.571        0.488      202.594       39.788        0.039      334.912        5.193      853.911
02/06/2014  12:41:00      135.727      108.166       -3.068       94.760       57.240       44.498     8979.429     3276.398     1980.038        2.218        0.712      173.556       26.415        0.023      334.831        5.060      853.889
02/06/2014  12:42:00       85.374       62.478       12.960       63.243       44.583       46.170     3999.699     1987.648     2131.690        0.974        0.406      105.793       23.686        0.050      335.063        5.448      853.866
02/06/2014  12:43:00       57.446      139.206      -16.176       51.745       63.191       33.940     2677.529     3993.137     1151.925        1.538        0.391      150.593       21.966        0.021      334.942        5.246      853.862
02/06/2014  12:44:00       31.445       68.200        1.856       31.213       46.232       30.898      974.223     2137.423      954.691        0.485        0.203       75.100       28.589        0.145      334.968        5.292      853.868
02/06/2014  12:45:00       66.070       35.424        1.664       28.427       32.715       23.489      808.099     1070.283      551.730        0.403        0.122       74.967       20.819        0.077      334.944        5.251      853.867
02/06/2014  12:46:00       20.941       89.514       -9.525       32.412       44.089       25.235     1050.560     1943.816      636.794        0.609        0.182       91.931       29.183        0.101      335.068        5.457      853.873
02/06/2014  12:47:00       23.093       92.986      -12.739       25.545       46.397       21.605      652.569     2152.709      466.785        0.631        0.164       95.811       20.572        0.046      335.244        5.749      853.869
02/06/2014  12:48:00       62.660       56.004        6.235       56.810       52.091       30.832     3227.347     2713.501      950.602        0.700        0.345       84.040       13.682        0.027      335.230        5.726      853.864
02/06/2014  12:49:00       37.877       42.703       44.161       73.235       49.255       36.836     5363.329     2426.006     1356.876        0.718        0.457       57.080       30.216        0.280      335.278        5.805      853.849
02/06/2014  12:50:00       83.252       60.548       31.285       48.592       39.666       44.525     2361.189     1573.385     1982.478        0.875        0.296      102.941       32.200        0.098      335.110        5.527      853.833
02/06/2014  12:51:00       53.406       43.983       31.434       49.865       40.391       25.831     2486.567     1631.430      667.229        0.528        0.239       69.186       21.395        0.096      335.135        5.570      853.819
02/06/2014  12:52:00       33.457      -43.357       -4.738       30.332       30.067       27.113      920.024      904.045      735.127        0.279        0.128       54.765       10.879        0.039      335.215        5.700      853.782
02/06/2014  12:53:00       22.142       47.296       53.523       30.099       27.906       22.737      905.957      778.720      516.983        0.390        0.110       52.222       20.100        0.148      335.449        6.090      853.758
02/06/2014  12:54:00       13.965       58.699       73.029       42.700       41.701       45.355     1823.303     1738.963     2057.088        0.730        0.281       60.337       39.803        0.435      335.468        6.121      853.735
02/06/2014  12:55:00       92.098       70.060       20.911       57.395       45.078       29.999     3294.226     2032.069      899.921        1.003        0.311      115.717       13.352        0.013      335.238        5.738      853.712
02/06/2014  12:56:00       85.587       67.667        4.636       21.339       20.012       19.927      455.368      400.490      397.098        0.659        0.063      109.105       11.218        0.011      334.946        5.256      853.678
02/06/2014  12:57:00       48.129       33.709        1.107       27.394       22.290       12.278      750.418      496.865      150.743        0.243        0.070       58.759        9.253        0.025      334.992        5.331      853.632
02/06/2014  12:58:00       37.165       37.058       39.999       42.882       40.536       42.713     1838.885     1643.176     1824.423        0.483        0.265       52.484       35.044        0.446      335.409        6.023      853.605
02/06/2014  12:59:00       28.648       67.775       74.077       56.344       48.044       43.471     3174.632     2308.233     1889.757        0.914        0.369       73.581       41.096        0.312      335.420        6.043      853.580
02/06/2014  13:00:00       39.531       63.918       82.903       50.695       53.227       30.356     2569.934     2833.156      921.465        0.942        0.316       75.155       25.921        0.119      335.595        6.334      853.551
02/06/2014  13:01:00       75.334       80.330       38.487       72.076       47.115       49.235     5194.958     2219.840     2424.056        1.172        0.492      110.128       21.269        0.037      335.429        6.058      853.517
02/06/2014  13:02:00      122.675       82.494       24.703       45.667       35.218       35.080     2085.486     1240.335     1230.621        1.351        0.228      147.832       25.365        0.029      335.365        5.952      853.475
02/06/2014  13:03:00      142.280       77.904       48.482       61.824       41.991       49.076     3822.236     1763.218     2408.411        1.833        0.400      162.211       26.549        0.027      335.263        5.779      853.438
02/06/2014  13:04:00      115.181       72.718       31.490       70.183       46.164       46.691     4925.706     2131.131     2180.048        1.439        0.462      136.216       37.546        0.076      335.491        6.159      853.420
02/06/2014  13:05:00       90.601       70.350       58.932       98.501       52.102       39.325     9702.409     2714.577     1546.471        1.529        0.698      114.707       12.212        0.011      335.568        6.288      853.407
02/06/2014  13:06:00      215.882      144.897        9.286       88.855       74.018       65.240     7895.235     5478.631     4256.301        4.266        0.882      260.000       31.204        0.014      335.177        5.634      853.412
02/06/2014  13:07:00       69.815       51.596       14.785       46.517       43.581       38.712     2163.840     1899.300     1498.628        0.666        0.278       86.811       28.462        0.107      335.441        6.078      853.413
02/06/2014  13:08:00       12.006       -1.628       61.658       37.119       72.163       33.001     1377.799     5207.553     1089.066        0.581        0.384       12.116       32.727        7.297      335.731        6.559      853.381
02/06/2014  13:09:00       44.525       93.285      105.491       82.151       73.721       62.789     6748.749     5434.851     3942.454        1.897        0.806      103.366       61.350        0.352      335.371        5.959      853.353
02/06/2014  13:10:00      156.222      103.811       45.210       85.048       74.223       64.378     7233.107     5508.986     4144.498        2.705        0.844      187.569       40.464        0.047      335.165        5.615      853.315
02/06/2014  13:11:00      122.212       45.429        0.480       63.864       50.900       30.024     4078.667     2590.840      901.444        1.228        0.379      130.383       14.160        0.012      335.226        5.719      853.311
02/06/2014  13:12:00       31.767       18.699       30.510       49.179       39.077       35.599     2418.621     1527.000     1267.299        0.375        0.261       36.862       30.662        0.692      335.429        6.056      853.315
02/06/2014  13:13:00        7.984       26.926        7.497       22.755       54.755       25.371      517.792     2998.080      643.681        0.250        0.208       28.084       31.792        1.281      335.529        6.223      853.311
02/06/2014  13:14:00       30.976       50.373        1.608       37.240       34.224       18.743     1386.815     1171.300      351.285        0.320        0.145       59.135       13.843        0.055      335.390        5.992      853.292
02/06/2014  13:15:00      110.264      121.093       -3.187       67.565       49.089       52.386     4564.979     2409.719     2744.281        1.827        0.486      163.773       38.633        0.056      335.281        5.809      853.253
02/06/2014  13:16:00      117.427       80.865       16.356       51.746       46.190       40.652     2677.653     2133.508     1652.589        1.353        0.323      142.578       28.501        0.040      335.532        6.227      853.191
02/06/2014  13:17:00      113.142       99.451       17.908       67.486       53.156       53.420     4554.324     2825.552     2853.681        1.662        0.512      150.637       30.422        0.041      335.475        6.133      853.141
02/06/2014  13:18:00      173.783      105.013       68.800      109.983       76.243       65.105    12096.196     5813.020     4238.711        3.405        1.107      203.048       49.371        0.059      335.658        6.436      853.108
02/06/2014  13:19:00      177.240       94.597       46.188       99.298       75.039       71.463     9860.165     5630.800     5106.968        3.154        1.030      200.905       64.053        0.102      335.371        5.956      853.118
02/06/2014  13:20:00      153.793       83.615        9.255       53.355       54.463       42.824     2846.773     2966.195     1833.880        1.919        0.382      175.053       29.154        0.028      335.257        5.768      853.132
02/06/2014  13:21:00       51.119       -6.556       45.178       49.975       43.994       28.366     2497.532     1935.431      804.640        0.497        0.262       51.538       29.134        0.320      335.581        6.309      853.158
02/06/2014  13:22:00       43.538       -3.593       34.593       41.802       40.313       27.356     1747.372     1625.165      748.324        0.361        0.206       43.686       17.789        0.166      335.859        6.773      853.179
02/06/2014  13:23:00       64.670       60.060       93.791       83.416       64.528       46.523     6958.206     4163.822     2164.377        1.493        0.664       88.258       55.619        0.397      335.594        6.332      853.201
02/06/2014  13:24:00       41.841      -10.894       44.386       51.928       77.952       54.271     2696.534     6076.537     2945.388        0.778        0.586       43.236       62.268        2.074      335.602        6.346      853.229
02/06/2014  13:25:00       49.177      -59.561        5.434       32.116       31.797       32.814     1031.434     1011.022     1076.783        0.456        0.156       77.239       25.353        0.108      335.495        6.167      853.253
02/06/2014  13:26:00       26.892      -64.359      -14.099       27.824       51.253       23.459      774.158     2626.820      550.313        0.451        0.198       69.751       23.579        0.114      335.819        6.708      853.240
02/06/2014  13:27:00        3.108        3.376        9.686       36.571       43.920       33.455     1337.460     1928.935     1119.237        0.225        0.219        4.589       34.532       56.637      336.004        7.014      853.228
02/06/2014  13:28:00       67.642       54.480       -3.989       41.047       37.461       24.188     1684.838     1403.364      585.059        0.562        0.184       86.853        8.027        0.009      335.671        6.460      853.247
02/06/2014  13:29:00      135.943      102.634       50.531       67.912       39.714       33.063     4611.988     1577.203     1093.139        1.942        0.364      170.336       30.511        0.032      335.616        6.367      853.255
02/06/2014  13:30:00      132.807       86.348       57.024       78.219       48.412       58.706     6118.264     2343.751     3446.363        2.012        0.595      158.410       41.360        0.068      335.559        6.271      853.245
02/06/2014  13:31:00      101.090       84.549       32.367       52.237       45.013       40.056     2728.698     2026.180     1604.486        1.239        0.318      131.786       28.271        0.046      335.556        6.269      853.224
02/06/2014  13:32:00       19.000      -50.567       40.158       56.052       71.076       42.043     3141.802     5051.814     1767.605        0.724        0.498       54.019       28.803        0.284      335.988        6.989      853.191
02/06/2014  13:33:00       85.303       70.303       50.255       85.047       47.498       37.438     7233.004     2256.065     1401.620        1.282        0.545      110.540       23.452        0.045      335.704        6.513      853.162
02/06/2014  13:34:00      151.292       82.339       16.335       53.663       52.335       41.345     2879.696     2738.983     1709.449        1.863        0.366      172.247       19.001        0.012      335.534        6.231      853.140
02/06/2014  13:35:00      100.567       62.603       18.789       51.116       38.640       35.273     2612.824     1493.036     1244.168        0.987        0.268      118.460       24.949        0.044      335.586        6.319      853.129
02/06/2014  13:36:00       47.654       63.616       58.932       47.869       40.390       45.696     2291.407     1631.341     2088.116        0.790        0.301       79.485       33.993        0.183      335.645        6.417      853.122
02/06/2014  13:37:00       82.102       43.070        7.760       61.900       40.676       27.426     3831.568     1654.507      752.167        0.745        0.312       92.714       29.435        0.101      335.487        6.154      853.124
02/06/2014  13:38:00       31.412       21.253       15.610       27.350       22.893       18.116      748.011      524.082      328.197        0.164        0.080       37.927       14.548        0.147      335.680        6.475      853.117
02/06/2014  13:39:00       45.886       15.840       28.942       46.064       34.618       27.743     2121.849     1198.372      769.670        0.364        0.204       48.543       22.272        0.211      335.807        6.686      853.140
02/06/2014  13:40:00      106.541       52.456       18.208       77.284       49.873       37.746     5972.757     2487.350     1424.738        1.216        0.494      118.754       25.432        0.046      335.642        6.411      853.183
02/06/2014  13:41:00      105.859       59.458       -8.940       44.574       50.280       32.264     1986.849     2528.088     1040.943        1.019        0.278      121.414       20.655        0.029      335.457        6.103      853.215
02/06/2014  13:42:00       34.154       66.966        2.397       38.841       45.444       28.054     1508.586     2065.162      787.048        0.501        0.218       75.173       23.523        0.098      335.627        6.387      853.235
02/06/2014  13:43:00       31.706      129.460      -12.322       31.506       43.737       33.220      992.648     1912.917     1103.579        1.096        0.200      133.286       28.998        0.047      335.654        6.430      853.238
02/06/2014  13:44:00       41.653       76.133        6.756       38.686       49.367       40.643     1496.625     2437.138     1651.869        0.658        0.279       86.782       33.513        0.149      335.697        6.504      853.240
02/06/2014  13:45:00      102.794       92.003       -9.148       54.932       38.729       31.422     3017.551     1499.948      987.349        1.231        0.275      137.954        8.108        0.003      335.489        6.158      853.240
02/06/2014  13:46:00       72.486       36.637       -5.755       41.333       34.831       28.175     1708.454     1213.197      793.828        0.517        0.186       81.219       11.619        0.020      335.566        6.286      853.246
02/06/2014  13:47:00       36.696       27.881      -10.685       15.665       23.990       18.469      245.388      575.512      341.121        0.170        0.058       46.086       12.207        0.070      335.421        6.043      853.245
02/06/2014  13:48:00       -2.565       13.320        7.687       31.688       20.981       21.507     1004.109      440.206      462.551        0.107        0.095       13.565       15.149        1.247      335.657        6.436      853.247
02/06/2014  13:49:00       47.045      -98.874      -23.526       43.523       61.581       24.601     1894.268     3792.177      605.217        0.942        0.315      109.496       28.850        0.069      335.800        6.674      853.237
02/06/2014  13:50:00       65.230      -79.385      -27.479       42.547       60.754       39.149     1810.207     3691.017     1532.655        0.917        0.352      102.747       33.381        0.106      335.775        6.634      853.241
02/06/2014  13:51:00       -4.329        9.122       18.574       28.834       28.612       22.001      831.402      818.636      484.062        0.129        0.107       10.097       17.146        2.884      335.876        6.802      853.254
02/06/2014  13:52:00       35.613       18.414       27.815       17.851       21.615       24.867      318.658      467.217      618.378        0.189        0.070       40.092       17.230        0.185      335.744        6.581      853.271
02/06/2014  13:53:00       24.209      -23.730       -7.131       32.444       34.321       22.146     1052.636     1177.944      490.456        0.196        0.136       33.900       21.989        0.421      335.724        6.550      853.278
02/06/2014  13:54:00       -8.061       15.355      -13.633       24.054       13.175       15.890      578.610      173.584      252.505        0.075        0.050       17.342       11.891        0.470      335.631        6.394      853.258
02/06/2014  13:55:00      -18.943       27.089       -0.100       20.671       29.227       16.016      427.308      854.247      256.527        0.132        0.077       33.055        9.580        0.084      335.797        6.671      853.224
02/06/2014  13:56:00       26.689       54.696       51.723       28.080       42.212       38.642      788.479     1781.875     1493.183        0.522        0.203       60.861       33.629        0.305      335.825        6.717      853.196
02/06/2014  13:57:00       40.147       82.877       93.387       45.954       41.011       32.549     2111.813     1681.890     1059.445        1.103        0.243       92.089       24.857        0.073      335.818        6.705      853.166
02/06/2014  13:58:00       61.635       34.134       32.046       41.770       34.207       33.958     1744.707     1170.105     1153.153        0.503        0.203       70.455       22.190        0.099      335.723        6.548      853.144
02/06/2014  13:59:00       94.058       57.528       13.573       29.632       22.206       23.804      878.059      493.092      566.628        0.714        0.097      110.256       17.142        0.024      335.641        6.411      853.138
02/06/2014  14:00:00       70.855       52.738       35.985       57.496       53.294       37.177     3305.763     2840.244     1382.095        0.831        0.376       88.327       30.045        0.116      335.750        6.591      853.128
02/06/2014  14:01:00       87.131       91.949       90.278       56.539       53.514       41.003     3196.614     2863.770     1681.246        1.597        0.387      126.675       35.652        0.079      335.783        6.646      853.115
02/06/2014  14:02:00       75.097      124.054       90.091       70.014       57.931       57.576     4901.900     3356.025     3314.997        2.036        0.579      145.013       48.372        0.111      335.775        6.631      853.092
02/06/2014  14:03:00       36.437      109.447       79.134       71.469       49.571       80.054     5107.861     2457.246     6408.666        1.677        0.699      115.353       64.036        0.308      335.840        6.741      853.043
02/06/2014  14:04:00       14.211       53.612       81.264       49.551       41.185       38.565     2455.265     1696.190     1487.243        0.766        0.282       55.463       36.147        0.425      335.972        6.960      852.992
02/06/2014  14:05:00       83.182       58.379       39.534       54.022       48.871       40.168     2918.378     2388.348     1613.482        0.940        0.346      101.623       28.860        0.081      335.878        6.804      852.954
02/06/2014  14:06:00      121.826       77.622       32.565       41.886       34.107       39.409     1754.413     1163.320     1553.078        1.320        0.224      144.453       17.750        0.015      335.786        6.652      852.964
02/06/2014  14:07:00      120.127       78.794       13.245       37.529       46.234       37.422     1408.425     2137.575     1400.373        1.288        0.247      143.662       13.364        0.009      335.833        6.729      852.988
02/06/2014  14:08:00      156.633       86.229       36.844       46.207       47.167       46.622     2135.047     2224.713     2173.601        1.993        0.327      178.800       23.703        0.018      335.843        6.745      853.006
02/06/2014  14:09:00      121.656       78.094       28.349       31.363       31.021       39.233      983.632      962.277     1539.216        1.259        0.174      144.564       20.156        0.019      335.727        6.555      853.007
02/06/2014  14:10:00      150.058       91.642       33.232       35.129       24.708       31.988     1234.028      610.509     1023.235        1.744        0.143      175.828       13.617        0.006      335.706        6.519      853.003
02/06/2014  14:11:00      127.419       69.515       50.308       64.497       40.058       41.798     4159.920     1604.680     1747.059        1.555        0.376      145.148       28.777        0.039      335.751        6.593      852.970
02/06/2014  14:12:00      116.665       76.570       21.144       39.018       36.719       29.559     1522.427     1348.258      873.746        1.183        0.187      139.548       16.898        0.015      335.726        6.553      852.926
02/06/2014  14:13:00      115.289       66.429       34.507       30.474       38.050       28.266      928.636     1447.791      798.954        1.103        0.159      133.057       18.462        0.019      335.762        6.611      852.882
02/06/2014  14:14:00      137.615       74.663       43.909       68.657       45.723       37.952     4713.799     2090.582     1440.321        1.734        0.412      156.565       27.743        0.031      335.843        6.745      852.870
02/06/2014  14:15:00      131.829       74.613       16.831       55.537       45.961       34.816     3084.382     2112.438     1212.173        1.482        0.320      151.479        8.956        0.003      335.796        6.668      852.883
02/06/2014  14:16:00       38.699       21.302       12.837       58.456       61.181       26.888     3417.107     3743.105      722.961        0.500        0.394       44.175       17.166        0.151      335.821        6.711      852.887
02/06/2014  14:17:00       37.149       11.959       18.606       26.172       31.221       23.921      684.983      974.724      572.204        0.205        0.112       39.027        5.483        0.020      336.022        7.044      852.876
02/06/2014  14:18:00       54.365      -65.169       10.712       46.274       53.064       32.653     2141.288     2815.791     1066.213        0.667        0.301       84.868       27.970        0.109      336.233        7.397      852.867
02/06/2014  14:19:00       69.124     -119.276      -17.694       47.171       63.492       35.395     2225.111     4031.280     1252.830        1.341        0.375      137.858       26.954        0.038      336.094        7.165      852.845
02/06/2014  14:20:00       61.102     -101.702       -4.563       73.722       70.612       59.874     5434.969     4986.095     3584.879        1.405        0.700      118.646       62.782        0.280      336.141        7.242      852.826
02/06/2014  14:21:00      155.268     -182.124      -42.779       37.167       51.708       25.835     1381.415     2673.701      667.435        3.191        0.236      239.327        9.452        0.002      335.965        6.946      852.824
02/06/2014  14:22:00       43.193        9.505       48.096       51.695       51.360       41.119     2672.326     2637.822     1690.765        0.563        0.350       44.227       43.255        0.957      336.064        7.116      852.840
02/06/2014  14:23:00       40.326       88.874       85.250       58.158       35.529       42.443     3382.360     1262.292     1801.374        1.162        0.322       97.595       37.962        0.151      335.966        6.951      852.843
02/06/2014  14:24:00       57.492      -26.261       33.121       42.984       58.363       33.305     1847.656     3406.218     1109.240        0.573        0.318       63.205       34.296        0.294      336.072        7.128      852.837
02/06/2014  14:25:00       50.741       27.541       36.591       40.170       34.204       29.310     1613.623     1169.914      859.057        0.416        0.182       57.733       19.323        0.112      336.156        7.268      852.833
02/06/2014  14:26:00       44.426       64.523       29.106       41.780       41.236       31.979     1745.547     1700.448     1022.637        0.573        0.223       78.338       24.427        0.097      335.966        6.952      852.839
02/06/2014  14:27:00       25.536      -34.027        5.986       54.157       39.152       25.639     2933.032     1532.861      657.370        0.348        0.256       42.543       22.780        0.287      335.908        6.855      852.855
02/06/2014  14:28:00        1.030        9.646       24.406       19.908       16.971       11.276      396.334      288.030      127.150        0.075        0.041        9.701        4.195        0.187      336.196        7.337      852.867
02/06/2014  14:29:00       -1.560       11.010       20.466       13.473       14.525       10.381      181.532      210.976      107.760        0.052        0.025       11.120        6.735        0.367      336.394        7.665      852.862
02/06/2014  14:30:00       50.908       40.448       26.180       29.848       42.414       24.379      890.907     1798.953      594.313        0.410        0.164       65.020       21.751        0.112      336.099        7.174      852.857
02/06/2014  14:31:00       34.360       24.583       -2.236       37.203       26.318       20.315     1384.090      692.650      412.680        0.214        0.124       42.249       17.502        0.172      335.940        6.907      852.826
02/06/2014  14:32:00       18.372       35.107       38.730       33.097       36.117       28.787     1095.421     1304.473      828.709        0.315        0.161       39.624       25.250        0.406      336.254        7.432      852.807
02/06/2014  14:33:00        6.026      -26.442       20.993       26.184       46.348       23.057      685.595     2148.154      531.610        0.227        0.168       27.120       24.649        0.826      336.496        7.838      852.803
02/06/2014  14:34:00      -36.514        2.278       65.712       34.568       79.980       48.072     1194.968     6396.767     2310.898        0.778        0.495       36.585       39.803        1.184      336.435        7.735      852.818
02/06/2014  14:35:00      -32.022      -41.365       24.009       36.032       49.592       39.297     1298.269     2459.385     1544.282        0.431        0.265       52.311       20.219        0.149      336.385        7.651      852.840
02/06/2014  14:36:00      -40.412      -92.456        0.170       55.979       54.880       35.756     3133.690     3011.825     1278.524        0.880        0.371      100.902       28.589        0.080      336.313        7.530      852.849
02/06/2014  14:37:00       21.595       27.521       60.416       42.275       50.192       37.200     1787.201     2519.190     1383.834        0.528        0.285       34.982       36.385        1.082      336.458        7.774      852.850
02/06/2014  14:38:00       51.942      -57.594       19.579       42.303       66.001       45.744     1789.531     4356.131     2092.526        0.732        0.412       77.556       46.216        0.355      336.345        7.584      852.844
02/06/2014  14:39:00       50.987      -91.250        0.213       40.313       46.971       33.890     1625.124     2206.243     1148.533        0.795        0.249      104.529       27.398        0.069      336.174        7.298      852.840
02/06/2014  14:40:00       37.034      -67.967       -2.518       29.378       56.993       30.733      863.049     3248.189      944.520        0.553        0.253       77.402       34.126        0.194      336.082        7.145      852.841
02/06/2014  14:41:00       23.311      -18.402        3.834       26.964       28.611       26.339      727.047      818.586      693.752        0.157        0.112       29.699       19.284        0.422      336.245        7.417      852.854
02/06/2014  14:42:00       -4.812      -16.589       12.505       20.864       23.976       13.194      435.327      574.863      174.080        0.082        0.059       17.273       12.334        0.510      336.416        7.702      852.889
02/06/2014  14:43:00        1.968      -18.725        4.255       16.529       24.512       21.398      273.197      600.823      457.870        0.085        0.067       18.828       21.100        1.256      336.462        7.780      852.912
02/06/2014  14:44:00        6.369        6.919       12.426       26.651       20.463       13.666      710.299      418.715      186.763        0.078        0.066        9.404       11.497        1.495      336.291        7.495      852.935
02/06/2014  14:45:00       20.037       51.494       -0.698       44.984       51.434       26.380     2023.595     2645.483      695.893        0.421        0.268       55.255       24.710        0.200      336.042        7.077      852.942
02/06/2014  14:46:00       58.220       67.602        5.897       37.747       37.777       30.051     1424.870     1427.103      903.052        0.587        0.188       89.216       16.163        0.033      335.946        6.919      852.940
02/06/2014  14:47:00       49.004       63.090        5.752       46.608       45.420       32.243     2172.259     2063.011     1039.640        0.584        0.264       79.886       29.671        0.138      335.978        6.972      852.933
02/06/2014  14:48:00       32.647       41.881       17.864       36.470       29.588       34.441     1330.061      875.456     1186.181        0.326        0.170       53.102       20.477        0.149      336.027        7.053      852.935
02/06/2014  14:49:00       21.445       76.630       -8.833       43.882       50.976       21.005     1925.618     2598.587      441.200        0.569        0.248       79.574       23.768        0.089      336.030        7.058      852.940
02/06/2014  14:50:00        7.560       44.804        6.956       20.180       35.806       20.173      407.213     1282.076      406.933        0.210        0.105       45.438       20.271        0.199      336.145        7.250      852.944
02/06/2014  14:51:00       56.332       -8.221       25.115       34.021       32.452       32.672     1157.400     1053.136     1067.471        0.357        0.164       56.929       25.924        0.207      336.009        7.023      852.938
02/06/2014  14:52:00       89.100       40.884       27.584       29.611       40.186       39.829      876.812     1614.942     1586.374        0.722        0.204       98.032       29.615        0.091      335.915        6.865      852.916
02/06/2014  14:53:00      119.620       43.859        6.779       62.243       39.443       31.880     3874.145     1555.713     1016.308        1.136        0.322      127.407       17.007        0.018      335.967        6.952      852.911
02/06/2014  14:54:00      124.847       54.451       27.408       39.990       34.118       31.277     1599.236     1164.005      978.229        1.152        0.187      136.204       10.809        0.006      335.961        6.943      852.913
02/06/2014  14:55:00       43.430       38.882       64.897       57.413       43.889       52.103     3296.225     1926.250     2714.691        0.777        0.397       58.292       45.643        0.613      336.074        7.131      852.905
02/06/2014  14:56:00       46.581       19.084       60.394       77.844       50.811       44.003     6059.740     2581.755     1936.274        0.838        0.529       50.339       51.349        1.041      336.198        7.339      852.910
02/06/2014  14:57:00      103.221       -2.527       55.872       55.177       63.170       45.422     3044.447     3990.496     2063.194        1.144        0.455      103.252       47.388        0.211      336.111        7.193      852.930
02/06/2014  14:58:00       90.787       77.252       63.176       62.901       44.229       38.506     3956.475     1956.203     1482.704        1.280        0.370      119.206       27.969        0.055      336.040        7.075      852.950
02/06/2014  14:59:00       49.098       61.715       40.375       49.322       35.928       41.715     2432.633     1290.788     1740.162        0.666        0.273       78.863       34.433        0.191      336.180        7.309      852.973
02/06/2014  15:00:00       72.806       65.009       65.082       56.308       56.265       49.000     3170.602     3165.790     2401.028        1.125        0.437       97.606       44.344        0.206      336.255        7.433      852.972
02/06/2014  15:01:00      173.601      125.964       69.467       69.760       43.031       51.993     4866.445     1851.708     2703.297        3.012        0.471      214.486       44.481        0.043      336.017        7.033      852.953
02/06/2014  15:02:00      234.068      112.048       32.029       54.918       46.479       44.845     3015.970     2160.263     2011.090        3.778        0.359      259.504       26.722        0.011      335.969        6.951      852.948
02/06/2014  15:03:00      191.194      104.135       31.425       71.203       52.815       44.761     5069.848     2789.465     2003.536        2.912        0.493      217.714       32.189        0.022      335.915        6.864      852.952
02/06/2014  15:04:00      115.179       60.114       38.005       59.837       54.034       48.524     3580.503     2919.702     2354.538        1.359        0.443      129.922       22.492        0.030      335.922        6.878      852.978
02/06/2014  15:05:00      105.710       56.760       33.718       42.235       32.083       33.054     1783.803     1029.345     1092.569        0.972        0.195      119.984       21.021        0.031      335.951        6.926      852.997
02/06/2014  15:06:00       62.073      -10.795       16.572       32.858       32.684       21.423     1079.629     1068.222      458.962        0.343        0.130       63.004       19.093        0.092      336.044        7.082      852.996
02/06/2014  15:07:00       26.835        8.102       11.092       29.876       28.714       19.651      892.592      824.479      386.170        0.151        0.105       28.031       18.389        0.430      336.199        7.341      853.009
02/06/2014  15:08:00       50.894        3.913        9.128       22.876       38.530       22.839      523.289     1484.595      521.615        0.261        0.126       51.044       18.921        0.137      336.045        7.083      853.031
02/06/2014  15:09:00       61.524       43.423       32.136       13.529       13.651       15.997      183.028      186.342      255.916        0.366        0.031       75.304        9.081        0.015      336.045        7.082      853.050
02/06/2014  15:10:00       52.113       17.060       18.002       31.599       22.773       24.063      998.501      518.632      579.031        0.271        0.105       54.834       16.604        0.092      336.151        7.261      853.036
02/06/2014  15:11:00       69.010       78.798       64.412       57.815       47.354       37.946     3342.606     2242.355     1439.907        1.107        0.351      104.745       30.564        0.085      336.142        7.244      853.008
02/06/2014  15:12:00       82.783      118.439       98.858       61.982       54.058       49.179     3841.780     2922.287     2418.609        1.992        0.459      144.502       40.635        0.079      336.083        7.144      852.987
02/06/2014  15:13:00      136.277       99.017       58.557       54.603       38.983       54.110     2981.501     1519.698     2927.942        1.962        0.371      168.451       42.216        0.063      335.995        6.999      852.971
02/06/2014  15:14:00       79.239      100.119       85.259       72.831       55.823       68.923     5304.369     3116.202     4750.422        1.837        0.659      127.682       66.869        0.274      336.021        7.042      852.956
02/06/2014  15:15:00      110.712      126.906      100.195       72.177       63.543       55.933     5209.569     4037.753     3128.461        2.539        0.619      168.411       51.291        0.093      336.011        7.025      852.949
02/06/2014  15:16:00       95.703      131.671       90.626       58.088       47.578       57.100     3374.206     2263.694     3260.389        2.180        0.445      162.777       38.038        0.055      336.024        7.046      852.924
02/06/2014  15:17:00      104.704      110.385       81.439       66.239       51.276       38.298     4387.598     2629.186     1466.735        1.913        0.424      152.144       29.361        0.037      336.039        7.073      852.920
02/06/2014  15:18:00       45.116      -55.363       18.622       67.830      117.266       58.829     4600.927    13751.222     3460.825        1.363        1.091       71.418       77.425        1.175      336.174        7.298      852.931
02/06/2014  15:19:00       98.781     -107.292      -15.990       75.614       81.169       49.522     5717.536     6588.411     2452.402        1.814        0.738      145.840       36.118        0.061      336.312        7.526      852.951
02/06/2014  15:20:00       58.483     -132.048      -11.704       75.072      104.257       63.867     5635.737    10869.616     4079.014        2.079        1.029      144.419       66.375        0.211      336.298        7.503      852.939
02/06/2014  15:21:00       54.172      -35.083       37.461       71.169      101.983       70.951     5064.984    10400.565     5034.098        1.303        1.025       64.540       82.036        1.616      336.253        7.430      852.936
02/06/2014  15:22:00       68.948     -123.259       -9.316       62.831       88.827       53.816     3947.760     7890.279     2896.125        1.738        0.737      141.233       59.635        0.178      336.188        7.321      852.931
02/06/2014  15:23:00      129.343     -185.575      -32.774       59.431       52.759       31.373     3531.998     2783.512      984.257        2.977        0.365      226.203       17.260        0.006      336.122        7.209      852.934
02/06/2014  15:24:00      132.988     -168.991      -32.509       62.775       58.370       42.588     3940.758     3407.106     1813.771        2.823        0.458      215.043       33.435        0.024      336.107        7.185      852.946
02/06/2014  15:25:00      105.578     -113.735       18.694       70.958       93.478       54.641     5035.038     8738.057     2985.677        2.059        0.838      155.185       58.516        0.142      336.191        7.325      852.955
02/06/2014  15:26:00       75.625       -8.394       53.052       44.886       93.059       49.236     2014.719     8659.899     2424.154        1.085        0.655       76.089       62.850        0.682      336.193        7.331      852.961
02/06/2014  15:27:00       98.772        1.241       25.895       76.844       43.648       41.921     5905.052     1905.115     1757.338        1.000        0.478       98.780       36.659        0.138      336.195        7.334      852.947
02/06/2014  15:28:00       13.423      -32.694        9.974       31.882       33.154       24.285     1016.439     1099.157      589.777        0.203        0.135       35.342       11.709        0.110      336.333        7.565      852.934
02/06/2014  15:29:00       54.014       41.699       29.630       39.826       37.669       26.052     1586.118     1418.971      678.722        0.461        0.184       68.237       15.550        0.052      336.300        7.508      852.945
02/06/2014  15:30:00       70.178       25.628       12.897       48.271       29.417       29.080     2330.118      865.355      845.652        0.489        0.202       74.711       17.086        0.052      336.258        7.438      852.928
02/06/2014  15:31:00       67.289       49.929        2.502       65.783       51.822       30.073     4327.374     2685.549      904.410        0.747        0.396       83.790       18.052        0.046      336.277        7.470      852.920
02/06/2014  15:32:00      122.048       58.422       20.636       49.590       49.788       35.628     2459.129     2478.872     1269.337        1.247        0.310      135.311       22.359        0.027      336.235        7.400      852.901
02/06/2014  15:33:00      104.591       44.402       36.407       72.105       38.023       39.263     5199.065     1445.770     1541.566        1.121        0.409      113.626       36.332        0.102      336.233        7.397      852.892
02/06/2014  15:34:00       71.351       38.426       41.056       44.635       32.698       32.026     1992.259     1069.167     1025.646        0.617        0.204       81.041       30.321        0.140      336.156        7.269      852.886
02/06/2014  15:35:00      115.798       43.322       27.986       30.400       42.318       29.509      924.165     1790.848      870.764        0.983        0.179      123.636       17.900        0.021      336.051        7.091      852.864
02/06/2014  15:36:00      140.335      107.448       45.459       69.548       48.212       33.656     4836.957     2324.383     1132.736        2.080        0.415      176.746       27.331        0.024      336.071        7.123      852.825
02/06/2014  15:37:00      197.797       95.452       23.427       64.123       43.627       41.876     4111.720     1903.359     1753.607        2.827        0.388      219.624       32.887        0.022      336.119        7.203      852.759
02/06/2014  15:38:00      107.712       94.757       54.680       83.439       52.103       48.871     6962.067     2714.753     2388.366        1.782        0.603      143.460       47.605        0.110      336.241        7.409      852.745
02/06/2014  15:39:00       68.187        7.734       19.838       32.075       72.383       39.176     1028.826     5239.308     1534.723        0.645        0.390       68.625       25.469        0.138      336.157        7.269      852.788
02/06/2014  15:40:00       22.576        9.566       18.844       21.769       36.637       14.554      473.876     1342.239      211.832        0.149        0.101       24.519       18.293        0.557      336.315        7.533      852.800
02/06/2014  15:41:00       38.503       33.535        5.953       33.393       34.297       20.791     1115.124     1176.269      432.286        0.268        0.136       51.059        7.835        0.024      336.475        7.801      852.800
02/06/2014  15:42:00      134.005       81.162       38.216       41.001       26.316       32.408     1681.071      692.541     1050.272        1.471        0.171      156.667       13.890        0.008      336.163        7.280      852.817
02/06/2014  15:43:00       85.935       27.684       26.451       51.673       57.849       32.605     2670.093     3346.530     1063.073        0.796        0.354       90.284       26.091        0.084      336.232        7.396      852.831
02/06/2014  15:44:00       63.159      -93.052        8.494       33.682       42.152       29.582     1134.485     1776.826      875.093        0.825        0.189      112.462       30.348        0.073      336.130        7.223      852.850
02/06/2014  15:45:00       -2.588      -63.049       -2.090       21.002       25.152       21.851      441.096      632.615      477.454        0.277        0.078       63.103       15.432        0.060      336.177        7.303      852.878
02/06/2014  15:46:00      -58.775       -9.006      -10.700       28.706       12.437       12.713      824.015      154.676      161.622        0.240        0.057       59.461       11.901        0.040      336.141        7.244      852.895
02/06/2014  15:47:00      -20.746       41.674        5.476       20.316       26.879       16.772      412.731      722.460      281.314        0.181        0.071       46.552       11.359        0.060      336.228        7.388      852.887
02/06/2014  15:48:00       12.824       10.029       -4.209       21.875       18.420       14.074      478.503      339.301      198.071        0.065        0.051       16.280       10.956        0.453      336.362        7.614      852.894
02/06/2014  15:49:00       60.161       21.461       13.458       33.794       26.088       18.547     1142.011      680.602      343.976        0.321        0.108       63.875       15.940        0.062      336.405        7.684      852.902
02/06/2014  15:50:00       90.182       48.597        7.553       27.766       34.315       26.007      770.947     1177.492      676.354        0.659        0.131      102.443       18.835        0.034      336.276        7.468      852.896
02/06/2014  15:51:00       22.876       24.145        1.646       37.533       27.919       19.108     1408.743      779.465      365.127        0.183        0.128       33.261       14.954        0.202      336.340        7.576      852.898
02/06/2014  15:52:00       25.192       58.157      -14.549       33.685       51.907       21.984     1134.696     2694.298      483.280        0.427        0.216       63.379       26.173        0.171      336.264        7.449      852.947
02/06/2014  15:53:00      -33.474        0.131        7.151       39.112       34.824       17.748     1529.722     1212.721      314.978        0.211        0.153       33.474       15.764        0.222      336.348        7.588      853.001
02/06/2014  15:54:00       83.347       83.839       12.658       61.445       56.892       31.438     3775.490     3236.679      988.345        1.107        0.400      118.219       34.985        0.088      336.249        7.423      852.969
02/06/2014  15:55:00      253.099      113.260        8.278      122.023       92.173       66.552    14889.593     8495.936     4429.188        5.238        1.391      277.284       56.796        0.042      336.135        7.230      852.766
02/06/2014  15:56:00     -108.503      -86.659       10.026      147.524      110.555       51.861    21763.461    12222.385     2689.541        2.802        1.834      138.863       43.344        0.097      336.340        7.573      852.790
02/06/2014  15:57:00     -172.342      -87.384        2.561      116.835       77.276       42.959    13650.489     5971.601     1845.479        2.940        1.073      193.230       54.856        0.081      336.391        7.658      852.881
02/06/2014  15:58:00      -84.775     -154.255        7.218      107.004       81.159       44.708    11449.755     6586.858     1998.823        2.553        1.002      176.016       47.738        0.074      336.503        7.847      852.898
02/06/2014  15:59:00     -150.174     -151.366        4.774      117.011       78.135       52.897    13691.505     6105.092     2798.054        3.404        1.130      213.222       47.755        0.050      336.638        8.073      852.860
02/06/2014  16:00:00      -10.030      -47.549       14.530       47.496       78.337       41.194     2255.834     6136.687     1696.943        0.633        0.504       48.595       41.989        0.747      336.717        8.207      852.841
02/06/2014  16:01:00     -149.557     -196.836       11.401      171.962      156.222       67.610    29571.081    24405.447     4571.056        5.988        2.927      247.208       78.975        0.102      336.858        8.440      852.810
02/06/2014  16:02:00     -122.998       -7.940        4.446       95.629       94.716       68.411     9144.953     8971.087     4680.015        1.900        1.140      123.254       60.578        0.242      336.863        8.448      852.820
02/06/2014  16:03:00     -252.276     -125.974       17.390      165.894      112.847       76.675    27520.819    12734.368     5878.984        6.297        2.307      281.980       83.945        0.089      336.843        8.413      852.808
02/06/2014  16:04:00     -345.880     -240.496      -25.125      167.220      140.084       69.059    27962.684    19623.558     4769.169       11.522        2.618      421.274       57.882        0.019      336.792        8.329      852.771
02/06/2014  16:05:00     -304.941     -123.789       -0.757      185.070      183.109       88.760    34250.917    33529.002     7878.331        9.197        3.783      329.109       88.236        0.072      336.739        8.240      852.743
02/06/2014  16:06:00     -229.581     -260.221       15.026      205.238      199.467      111.661    42122.812    39787.224    12468.278       10.750        4.719      347.020      111.039        0.102      336.715        8.202      852.680
02/06/2014  16:07:00     -226.639     -163.535        7.103      164.966      102.249       61.865    27213.687    10454.920     3827.254        5.982        2.075      279.480       79.348        0.081      336.728        8.221      852.698
02/06/2014  16:08:00     -289.239     -122.667        5.199      177.049      148.939       87.428    31346.488    22182.906     7643.742        7.994        3.059      314.175       87.626        0.078      336.765        8.284      852.689
02/06/2014  16:09:00     -327.293     -160.351       -7.857      207.759      137.395       94.118    43163.949    18877.307     8858.194       10.189        3.545      364.463      114.367        0.098      336.795        8.334      852.669
02/06/2014  16:10:00     -374.191     -192.916       -1.957      203.075      159.592       87.936    41239.635    25469.666     7732.743       12.583        3.722      420.993      106.616        0.064      336.785        8.317      852.666
02/06/2014  16:11:00     -445.506     -217.506       -4.732      221.715      180.113       92.103    49157.469    32440.832     8483.033       16.793        4.504      495.766      110.870        0.050      336.749        8.256      852.683
02/06/2014  16:12:00     -359.318     -209.073      -17.313      236.854      171.747      102.482    56099.777    29496.977    10502.489       13.459        4.805      415.718      100.813        0.059      336.727        8.220      852.663
02/06/2014  16:13:00     -334.456     -255.645      -13.000      200.117      172.960       83.059    40046.796    29915.211     6898.824       12.711        3.843      420.969       92.355        0.048      336.701        8.176      852.693
02/06/2014  16:14:00     -298.425     -220.608       -5.168      167.896      128.287       74.709    28189.205    16457.455     5581.418        9.398        2.511      371.113       71.720        0.037      336.648        8.089      852.654
02/06/2014  16:15:00     -351.434     -203.610       -9.505      219.739      179.460       95.517    48285.387    32205.965     9123.576       12.732        4.481      406.156      102.891        0.064      336.669        8.124      852.620
02/06/2014  16:16:00     -387.675     -122.446      -28.108      146.419      121.122       69.194    21438.471    14670.594     4787.872       10.348        2.045      406.552       67.638        0.028      336.669        8.123      852.656
02/06/2014  16:17:00     -486.531      -42.506       -2.283      237.136      155.900       89.634    56233.671    24304.860     8034.228       16.353        4.429      488.384      109.752        0.051      336.617        8.036      852.661
02/06/2014  16:18:00     -264.017      -60.143        3.269      151.838      111.549       56.908    23054.806    12443.074     3238.521        5.603        1.937      270.781       44.165        0.027      336.617        8.039      852.696
02/06/2014  16:19:00     -285.653     -161.643       -0.270      172.191      125.406       71.324    29649.857    15726.605     5087.073        7.909        2.523      328.217       80.030        0.059      336.625        8.051      852.734
02/06/2014  16:20:00     -317.350     -169.858      -11.845      232.754      142.861       88.830    54174.296    20409.185     7890.773       10.607        4.124      359.948      107.785        0.090      336.630        8.059      852.731
02/06/2014  16:21:00     -424.323     -138.478      -19.527      207.303      149.626       80.095    42974.424    22387.828     6415.289       13.568        3.589      446.347       94.270        0.045      336.652        8.095      852.731
02/06/2014  16:22:00     -336.732     -112.225       -2.543      193.653      134.421       88.925    37501.651    18069.089     7907.696        9.472        3.174      354.941       95.684        0.073      336.670        8.126      852.725
02/06/2014  16:23:00     -229.076     -144.660        6.200      174.110      151.293       87.882    30314.183    22889.504     7723.260        6.717        3.046      270.929       94.509        0.122      336.700        8.175      852.701
02/06/2014  16:24:00     -351.117     -173.535       -5.080      212.438      161.600       96.069    45129.885    26114.605     9229.201       11.694        4.024      391.661      109.559        0.078      336.656        8.102      852.678
02/06/2014  16:25:00     -300.708     -123.930        0.543      172.367      122.899       83.682    29710.510    15104.269     7002.604        7.879        2.591      325.245       87.125        0.072      336.664        8.115      852.690
02/06/2014  16:26:00     -363.306     -177.624        2.429      206.958      135.849       87.997    42831.539    18454.898     7743.502       11.628        3.451      404.403      101.672        0.063      336.662        8.112      852.704
02/06/2014  16:27:00     -394.022     -240.819      -14.533      176.808      178.068       98.953    31261.145    31708.216     9791.629       14.310        3.638      461.787      104.232        0.051      336.632        8.063      852.670
02/06/2014  16:28:00     -370.090     -237.099       -9.167      182.993      143.828       84.682    33486.600    20686.365     7170.997       12.730        3.067      439.525       74.605        0.029      336.618        8.039      852.644
02/06/2014  16:29:00     -408.327     -246.644      -19.971      166.991      159.004       81.625    27886.049    25282.136     6662.629       14.389        2.992      477.037       65.278        0.019      336.652        8.095      852.622
02/06/2014  16:30:00     -279.556     -136.555        5.939      199.273      139.087       72.949    39709.578    19345.173     5321.623        8.059        3.219      311.125       85.870        0.076      336.709        8.192      852.637
02/06/2014  16:31:00     -309.397     -234.930       17.816      207.765      195.707      100.832    43166.150    38301.164    10167.042       12.142        4.582      388.482      115.525        0.088      336.610        8.024      852.660
02/06/2014  16:32:00     -461.386     -256.042      -20.904      260.722      183.029       97.233    67975.793    33499.557     9454.197       19.488        5.546      527.669      108.829        0.043      336.580        7.976      852.611
02/06/2014  16:33:00     -345.848     -199.272       -9.961      203.655      158.418       92.173    41475.263    25096.195     8495.803       11.723        3.753      399.149      102.130        0.065      336.564        7.949      852.586
02/06/2014  16:34:00     -217.012      -98.486        1.597      196.604       74.653       73.295    38653.282     5573.115     5372.088        5.319        2.480      238.314       90.219        0.143      336.650        8.093      852.598
02/06/2014  16:35:00     -441.745     -243.698      -10.358      263.730      197.403      118.399    69553.774    38967.815    14018.215       18.857        6.127      504.507      137.892        0.075      336.561        7.942      852.512
02/06/2014  16:36:00     -329.229     -118.357       -4.404      196.760      152.621       76.106    38714.361    23293.181     5792.100        9.510        3.390      349.857       82.654        0.056      336.601        8.010      852.520
02/06/2014  16:37:00     -343.656     -153.930      -10.493      183.374      157.759       92.029    33626.135    24887.919     8469.247       10.443        3.349      376.555       87.147        0.054      336.588        7.988      852.540
02/06/2014  16:38:00     -481.482      -99.099      -18.369      210.820      155.895       84.866    44445.151    24303.136     7202.161       15.895        3.798      491.574       86.414        0.031      336.572        7.960      852.538
02/06/2014  16:39:00     -452.341     -302.353      -23.159      227.574      180.686      100.817    51789.884    32647.532    10164.124       19.557        4.730      544.086       93.713        0.030      336.493        7.828      852.495
02/06/2014  16:40:00     -244.809     -264.929        0.601      232.002      160.938      102.024    53825.046    25901.131    10408.814       11.011        4.507      360.720      109.278        0.092      336.513        7.863      852.452
02/06/2014  16:41:00     -148.758      -34.138       18.054      184.228      110.080       85.184    33940.072    12117.507     7256.341        3.846        2.666      152.625       92.087        0.364      336.611        8.028      852.441
02/06/2014  16:42:00     -362.371     -175.735      -18.575      231.472      176.272      101.527    53579.158    31071.787    10307.676       12.873        4.748      402.736      117.294        0.085      336.501        7.840      852.401
02/06/2014  16:43:00     -284.540     -108.721        2.862      191.960      130.301       80.749    36848.638    16978.288     6520.405        7.656        3.017      304.603       95.587        0.098      336.474        7.796      852.340
02/06/2014  16:44:00     -253.177     -140.737      -10.841      146.201       90.563       62.770    21374.814     8201.637     3940.122        5.876        1.676      289.664       70.930        0.060      336.493        7.828      852.333
02/06/2014  16:45:00     -145.129     -141.366        1.633      163.859      141.364       60.171    26849.727    19983.884     3620.552        4.574        2.523      202.600       61.687        0.093      336.526        7.884      852.327
02/06/2014  16:46:00     -631.495     -202.973      -25.829      221.086      195.918       89.224    48878.879    38383.811     7960.888       26.792        4.761      663.313       84.613        0.016      336.435        7.731      852.296
02/06/2014  16:47:00     -369.255     -163.425      -11.681      171.184      185.016       81.447    29303.834    34231.049     6633.602       11.667        3.508      403.803       83.697        0.043      336.460        7.771      852.264
02/06/2014  16:48:00     -416.317     -227.674      -16.942      267.838      260.455      106.143    71737.227    67837.023    11266.243       18.812        7.542      474.505      136.325        0.083      336.451        7.758      852.205
02/06/2014  16:49:00     -260.707     -152.320       -5.487      186.475      144.549       83.890    34772.746    20894.378     7037.488        7.694        3.135      301.943       95.889        0.101      336.450        7.756      852.194
02/06/2014  16:50:00     -449.543     -231.120       -7.210      223.639      191.650      106.844    50014.297    36729.866    11415.651       17.684        4.908      505.475      127.497        0.064      336.398        7.670      852.188
02/06/2014  16:51:00     -484.529     -326.391       -9.440      255.558      188.814      107.807    65309.776    35650.789    11622.275       22.697        5.629      584.209      117.824        0.041      336.372        7.625      852.191
02/06/2014  16:52:00     -338.890     -267.275      -13.102      194.585      168.486       98.575    37863.416    28387.668     9717.008       13.120        3.798      431.604      113.571        0.069      336.368        7.617      852.189
02/06/2014  16:53:00     -380.285     -206.724      -10.152      254.006      176.830       83.292    64518.982    31268.841     6937.483       14.507        5.136      432.841       97.972        0.051      336.340        7.571      852.181
02/06/2014  16:54:00     -440.628     -193.765      -14.589      251.501      189.705      106.754    63252.765    35987.871    11396.417       17.126        5.532      481.350      121.982        0.064      336.301        7.507      852.197
02/06/2014  16:55:00     -345.258     -173.497        8.039      246.681      197.242       99.974    60851.743    38904.511     9994.815       12.954        5.488      386.399      112.019        0.084      336.310        7.522      852.196
02/06/2014  16:56:00     -327.509     -255.850       -1.294      177.832      160.504       85.087    31624.291    25761.475     7239.756       11.866        3.231      415.597       83.080        0.040      336.302        7.510      852.229
02/06/2014  16:57:00     -295.655     -204.877      -22.147      193.191      185.443       87.863    37322.682    34389.247     7719.892       10.464        3.972      359.704      106.342        0.087      336.297        7.502      852.218
02/06/2014  16:58:00     -213.768     -153.461      -11.412      129.523      109.991       61.811    16776.234    12097.955     3820.645        5.103        1.635      263.149       65.975        0.063      336.300        7.506      852.217
02/06/2014  16:59:00     -357.215     -248.588       -5.276      272.108      186.626      107.804    74042.728    34829.311    11621.602       15.494        6.025      435.199      123.532        0.081      336.345        7.581      852.192
02/06/2014  17:00:00     -636.855     -358.061      -23.107      297.104      243.289      122.718    88270.692    59189.590    15059.822       34.840        8.126      730.611      128.160        0.031      336.424        7.712      852.144
02/06/2014  17:01:00     -547.115     -244.363      -15.996      266.089      200.360      115.926    70803.459    40144.210    13438.738       24.182        6.219      599.206      124.588        0.043      336.426        7.716      852.155
02/06/2014  17:02:00     -471.542     -220.878      -23.888      293.085      190.832      121.257    85898.608    36417.034    14703.259       20.434        6.851      520.710      145.869        0.078      336.386        7.649      852.191
02/06/2014  17:03:00     -467.480     -244.864      -28.103      210.998      169.661       94.124    44519.984    28784.825     8859.349       18.071        4.108      527.727      106.594        0.041      336.386        7.650      852.234
02/06/2014  17:04:00     -328.765     -177.841        0.679      193.085      143.496       89.360    37281.877    20591.163     7985.274       10.278        3.293      373.783       90.597        0.059      336.408        7.684      852.262
02/06/2014  17:05:00     -272.691      -76.929        7.276      127.427      119.759       69.266    16237.647    14342.205     4797.831        5.785        1.769      283.334       60.971        0.046      336.409        7.687      852.283
02/06/2014  17:06:00     -283.443     -173.002       -3.580      180.565      178.771       96.513    32603.565    31959.019     9314.721        9.207        3.694      332.069      107.451        0.105      336.407        7.684      852.280
02/06/2014  17:07:00     -383.004     -289.541       -5.770      195.967      168.923      100.233    38403.099    28535.112    10046.590       15.376        3.849      480.131       97.085        0.041      336.416        7.698      852.218
02/06/2014  17:08:00     -239.560     -136.347       -4.073      227.343      161.281       85.487    51684.689    26011.509     7307.975        8.049        4.250      275.644       95.448        0.120      336.372        7.626      852.271
02/06/2014  17:09:00     -461.557     -213.041       -9.967      278.245      209.484      114.297    77420.416    43883.669    13063.766       19.642        6.718      508.351      128.776        0.064      336.378        7.634      852.298
02/06/2014  17:10:00     -287.363     -180.973       -5.374      171.056      153.998       85.738    29260.141    23715.390     7350.948        8.783        3.016      339.600       70.235        0.043      336.382        7.642      852.350
02/06/2014  17:11:00     -217.203     -159.300       21.184      185.026      130.586       79.768    34234.613    17052.786     6362.961        6.532        2.883      269.358       91.778        0.116      336.360        7.606      852.414
02/06/2014  17:12:00     -225.912     -133.309       -6.523      145.816      130.451       65.147    21262.381    17017.463     4244.079        5.568        2.126      262.312       55.917        0.045      336.351        7.590      852.445
02/06/2014  17:13:00     -290.207     -186.762       -0.972      176.241      135.191       81.530    31060.889    18276.482     6647.158        8.753        2.799      345.109       90.859        0.069      336.311        7.525      852.449
02/06/2014  17:14:00     -278.687     -196.756        2.182      198.570      145.430       83.406    39430.161    21149.822     6956.632        9.195        3.377      341.144       97.636        0.082      336.247        7.419      852.492
02/06/2014  17:15:00     -225.229     -146.500       -3.070      196.750      167.337       85.791    38710.536    28001.696     7360.029        7.312        3.704      268.683       97.637        0.132      336.245        7.414      852.511
02/06/2014  17:16:00     -346.363     -158.845      -19.108      212.357      153.251       87.307    45095.475    23485.902     7622.509       11.087        3.810      381.050       93.020        0.060      336.176        7.300      852.516
02/06/2014  17:17:00     -432.583     -156.886      -22.375      176.464      140.525       78.644    31139.379    19747.235     6184.851       13.465        2.854      460.154       74.197        0.026      336.146        7.248      852.542
02/06/2014  17:18:00     -410.574     -157.135       -4.959      154.241      154.263       81.285    23790.374    23797.185     6607.311       12.373        2.710      439.616       86.072        0.038      336.161        7.274      852.567
02/06/2014  17:19:00     -185.903      -81.325       -3.204      153.276       97.583       59.711    23493.492     9522.350     3565.386        3.888        1.829      202.913       62.957        0.096      336.162        7.277      852.603
02/06/2014  17:20:00     -320.381      -94.973      -16.073      146.999      148.370       71.692    21608.802    22013.686     5139.811        8.033        2.438      334.162       62.408        0.035      336.158        7.269      852.590
02/06/2014  17:21:00     -414.214     -154.272      -28.896      202.635      157.527       79.616    41060.846    24814.674     6338.770       13.420        3.611      442.010       94.677        0.046      336.134        7.230      852.582
02/06/2014  17:22:00     -449.478     -209.868       -0.166      279.421      205.962      127.772    78076.047    42420.531    16325.570       19.143        6.841      496.059      153.575        0.096      336.165        7.281      852.571
02/06/2014  17:23:00     -477.281     -217.269      -21.925      223.715      172.520       97.780    50048.456    29763.173     9560.856       18.241        4.469      524.407      113.666        0.047      336.145        7.246      852.607
02/06/2014  17:24:00     -431.045     -122.032       -1.261      189.246      140.802       85.413    35814.234    19825.230     7295.300       13.180        3.147      447.986      101.052        0.051      336.127        7.216      852.630
02/06/2014  17:25:00     -287.256     -113.690        1.114      169.139      137.643       86.066    28607.895    18945.513     7407.283        7.519        2.748      308.936       96.251        0.097      336.106        7.182      852.643
02/06/2014  17:26:00     -304.448      -88.327      -14.483      161.240      109.423       64.404    25998.259    11973.388     4147.933        7.140        2.106      317.002       84.394        0.071      336.086        7.150      852.667
02/06/2014  17:27:00     -321.305     -149.506       -1.583      164.028      125.457       72.781    26905.096    15739.452     5297.089        8.676        2.397      354.385       79.797        0.051      336.062        7.108      852.674
02/06/2014  17:28:00     -297.003     -129.687       15.055      210.518      166.768       90.710    44317.883    27811.445     8228.268        9.279        4.018      324.083      108.449        0.112      336.076        7.132      852.688
02/06/2014  17:29:00     -373.285     -169.167      -15.489      256.397      251.719      105.139    65739.379    63362.564    11054.177       15.415        7.008      409.828      123.738        0.091      336.049        7.086      852.688
02/06/2014  17:30:00     -316.354     -139.043        1.121      179.407      201.797       85.195    32186.998    40721.840     7258.213        9.978        4.008      345.561       91.836        0.071      336.044        7.078      852.686
02/06/2014  17:31:00     -345.757     -206.691       -7.796      155.888      152.594       77.257    24300.977    23285.070     5968.721       10.793        2.678      402.826       75.791        0.035      336.016        7.032      852.670
02/06/2014  17:32:00     -346.517      -82.661        2.532      211.815      141.916       78.077    44865.519    20140.036     6096.064        9.900        3.555      356.239      102.108        0.082      336.000        7.006      852.676
02/06/2014  17:33:00     -292.246     -112.488       14.595      170.155      163.485       87.825    28952.798    26727.219     7713.161        8.082        3.170      313.148       97.420        0.097      335.982        6.976      852.660
02/06/2014  17:34:00     -396.562     -146.290       -7.922      251.070      180.572      102.053    63036.390    32606.363    10414.772       14.237        5.303      422.684      107.900        0.065      335.973        6.960      852.654
02/06/2014  17:35:00     -419.535     -158.784        0.060      295.523      176.870      107.753    87333.990    31282.919    11610.755       16.570        6.511      448.578      139.038        0.096      335.974        6.961      852.621
02/06/2014  17:36:00     -532.747     -136.941       -7.746      234.272      171.479       99.870    54883.461    29404.915     9973.951       19.843        4.713      550.065      120.724        0.048      335.961        6.940      852.649
02/06/2014  17:37:00     -415.704     -280.043        2.253      299.187      229.690      141.164    89512.891    52757.422    19927.240       20.669        8.110      501.232      173.650        0.120      335.950        6.922      852.626
02/06/2014  17:38:00     -526.621     -182.510      -21.146      227.610      210.874      113.608    51806.276    44467.849    12906.733       21.012        5.459      557.350      109.237        0.038      335.945        6.913      852.623
02/06/2014  17:39:00     -368.813     -191.506      -35.865      189.424      142.253       77.548    35881.598    20235.906     6013.659       11.805        3.107      415.569       88.585        0.045      335.940        6.904      852.646
02/06/2014  17:40:00     -487.819     -249.945       -5.083      231.903      262.966      122.424    53779.016    69151.371    14987.727       21.917        6.896      548.124      112.737        0.042      335.875        6.797      852.653
02/06/2014  17:41:00     -467.209      -97.303      -43.087      230.663      182.793       86.934    53205.373    33413.407     7557.559       16.188        4.709      477.233      101.350        0.045      335.870        6.788      852.688
02/06/2014  17:42:00     -365.572     -194.422        6.760      196.784      177.465       98.267    38723.874    31493.649     9656.313       12.567        3.994      414.056       92.116        0.049      335.847        6.750      852.691
02/06/2014  17:43:00     -303.613     -142.891        7.764      269.967      171.786      102.290    72881.952    29510.597    10463.301       11.274        5.643      335.557      122.352        0.133      335.821        6.707      852.713
02/06/2014  17:44:00     -372.980      -75.106        2.470      239.345      140.044       91.560    57285.952    19612.244     8383.198       11.501        4.264      380.466      117.687        0.096      335.800        6.671      852.737
02/06/2014  17:45:00     -482.391     -167.632      -50.777      252.873      209.005       90.800    63944.517    43683.219     8244.636       18.961        5.794      510.688      116.676        0.052      335.786        6.647      852.764
02/06/2014  17:46:00     -502.365      -79.918       -4.212      217.848      170.944      100.383    47457.884    29221.944    10076.682       17.275        4.338      508.683      109.006        0.046      335.774        6.630      852.797
02/06/2014  17:47:00     -234.230     -150.270       -1.301      200.781      156.609       96.776    40313.068    24526.309     9365.630        7.581        3.710      278.289       94.555        0.115      335.810        6.690      852.780
02/06/2014  17:48:00     -296.134     -186.217        1.291      158.469      188.571       90.068    25112.534    35558.896     8112.329        9.557        3.439      349.817       74.939        0.046      335.819        6.702      852.758
02/06/2014  17:49:00     -432.014     -138.787      -37.065      274.072      180.400       86.446    75115.475    32544.295     7472.866       16.118        5.757      453.760      116.747        0.066      335.837        6.734      852.730
02/06/2014  17:50:00     -349.437     -232.809      -18.298      187.149      140.101       87.922    35024.799    19628.382     7730.217       11.950        3.119      419.888       91.517        0.048      335.855        6.762      852.768
02/06/2014  17:51:00     -363.514     -102.299      -12.014      330.456      174.485      104.446   109201.085    30445.061    10908.940       14.663        7.528      377.634      144.474        0.146      335.911        6.857      852.751
02/06/2014  17:52:00     -582.418     -148.582      -22.090      370.527      219.802      123.650   137290.620    48312.765    15289.373       28.130       10.045      601.071      179.360        0.089      336.034        7.061      852.735
02/06/2014  17:53:00     -471.768      -59.761      -14.658      229.734      171.759       96.983    52777.590    29501.308     9405.684       15.900        4.584      475.538      113.634        0.057      336.050        7.089      852.764
02/06/2014  17:54:00     -339.131     -157.656      -20.482      193.694      140.765       74.858    37517.422    19814.760     5603.654       10.160        3.147      373.986       78.004        0.044      336.019        7.036      852.814
02/06/2014  17:55:00     -253.360     -117.491       -6.189      159.861      115.523       67.106    25555.502    13345.634     4503.254        6.071        2.170      279.277       73.916        0.070      335.933        6.893      852.828
02/06/2014  17:56:00     -498.336      -60.994      -11.770      196.142      168.526       95.611    38471.788    28400.868     9141.501       16.409        3.801      502.055       96.743        0.037      335.835        6.731      852.827
02/06/2014  17:57:00     -351.686     -107.296      -22.494      213.162      163.415       95.747    45437.919    26704.318     9167.556       10.849        4.065      367.690      108.061        0.086      335.825        6.713      852.798
02/06/2014  17:58:00     -271.474     -119.033      -11.957      244.438      160.286      101.758    59749.977    25691.524    10354.637        9.189        4.790      296.424      111.986        0.143      335.827        6.717      852.738
02/06/2014  17:59:00     -328.361      -76.172        6.247      187.696      161.238       97.612    35229.741    25997.699     9528.112        9.220        3.538      337.080       95.811        0.081      335.811        6.690      852.684
02/06/2014  18:00:00     -370.243      -34.279      -14.798      205.222      150.733       88.678    42115.912    22720.375     7863.718       10.557        3.635      371.826       93.051        0.063      335.814        6.696      852.662
02/06/2014  18:01:00     -497.284     -103.094      -18.474      249.122      167.780       96.654    62061.594    28150.218     9341.955       17.889        4.978      507.858      113.890        0.050      335.810        6.688      852.654
02/06/2014  18:02:00     -477.784     -264.540      -14.053      234.473      202.650      108.989    54977.698    41067.197    11878.708       20.317        5.396      546.131      117.916        0.047      335.832        6.724      852.626
02/06/2014  18:03:00     -426.529     -184.458       -4.300      210.496      199.983       85.265    44308.378    39993.033     7270.042       15.376        4.579      464.706       95.439        0.042      335.818        6.702      852.660
02/06/2014  18:04:00     -274.116     -135.706        2.370      193.044      155.698       97.618    37265.811    24241.974     9529.325        8.229        3.552      305.869      111.957        0.134      335.804        6.678      852.654
02/06/2014  18:05:00     -330.738      -82.945        2.380      232.981      168.295      101.134    54280.371    28323.258    10228.182       10.454        4.642      340.980      116.839        0.117      335.780        6.638      852.641
02/06/2014  18:06:00     -451.992     -209.101      -41.117      223.803      124.480       76.898    50087.973    15495.261     5913.362       16.059        3.575      498.016       85.345        0.029      335.789        6.652      852.629
02/06/2014  18:07:00     -237.421     -103.536       14.459      177.267      176.593       95.998    31423.426    31185.043     9215.566        6.955        3.591      259.015       86.542        0.112      335.769        6.620      852.615
02/06/2014  18:08:00     -316.450     -244.290      -17.679      204.819      148.023      105.902    41950.909    21910.734    11215.159       11.759        3.754      399.773      112.261        0.079      335.802        6.675      852.647
02/06/2014  18:09:00     -201.754      -37.479       19.367      245.647      129.355       96.317    60342.215    16732.590     9277.037        6.440        4.318      205.205      128.446        0.392      335.759        6.604      852.680
02/06/2014  18:10:00     -194.863     -190.784       17.568      163.775      131.946       85.037    26822.354    17409.723     7231.219        6.306        2.573      272.709       97.726        0.128      335.794        6.661      852.731
02/06/2014  18:11:00     -446.131      -86.393      -30.624      249.281      208.137       77.345    62141.053    43321.180     5982.205       15.942        5.572      454.419      103.669        0.052      335.833        6.726      852.796
02/06/2014  18:12:00     -209.728     -111.710       -2.292      163.453      138.666       70.061    26716.877    19228.359     4908.522        5.365        2.543      237.624       81.070        0.116      335.797        6.669      852.796
02/06/2014  18:13:00     -274.597      -80.474       -5.512      157.456      126.269       63.350    24792.358    15943.841     4013.195        6.332        2.237      286.146       73.215        0.065      335.785        6.648      852.803
02/06/2014  18:14:00     -187.718      -35.072        1.319      188.221      114.342       80.205    35427.226    13074.189     6432.824        4.569        2.747      190.966       82.968        0.189      335.798        6.667      852.833
02/06/2014  18:15:00     -377.893       -5.770      -15.370      171.088      120.896       79.372    29271.258    14615.750     6299.983        9.662        2.509      377.937       77.133        0.042      335.755        6.598      852.863
02/06/2014  18:16:00     -373.049      -43.832      -16.120      203.192      122.216       81.674    41287.139    14936.833     6670.630       10.211        3.145      375.615       81.175        0.047      335.777        6.634      852.923
02/06/2014  18:17:00     -283.693     -195.577        9.818      228.070      227.964      118.436    52015.857    51967.704    14027.007       11.840        5.901      344.575      133.335        0.150      335.820        6.704      852.900
02/06/2014  18:18:00     -228.508     -135.459        5.186      223.856      164.660       91.220    50111.667    27112.871     8321.148        7.805        4.277      265.641      115.416        0.189      335.811        6.690      852.950
02/06/2014  18:19:00     -326.500      -38.421       -8.011      135.904      102.724       79.538    18470.028    10552.285     6326.365        7.174        1.767      328.753       79.113        0.058      335.781        6.641      852.977
02/06/2014  18:20:00     -423.352     -133.252      -22.556      139.480      132.807       64.742    19454.739    17637.718     4191.552       11.938        2.064      443.828       61.787        0.019      335.785        6.648      852.934
02/06/2014  18:21:00     -285.391     -127.380       -2.205      195.818      137.311       92.303    38344.580    18854.204     8519.783        8.169        3.286      312.528       89.714        0.082      335.787        6.649      852.933
02/06/2014  18:22:00     -405.617     -173.192      -14.249      199.105      188.038       94.559    39642.903    35358.465     8941.493       13.932        4.197      441.044      109.419        0.062      335.767        6.616      852.912
02/06/2014  18:23:00     -445.512     -141.487      -16.372      225.769      241.190       97.824    50971.660    58172.512     9569.520       16.872        5.936      467.439      113.584        0.059      335.749        6.587      852.912
02/06/2014  18:24:00     -391.594     -152.751       -3.438      286.064      191.559      116.347    81832.474    36694.908    13536.613       15.436        6.603      420.332      136.186        0.105      335.777        6.633      852.899
02/06/2014  18:25:00     -390.951     -145.165      -12.010      228.262      181.407       92.590    52103.714    32908.449     8572.870       13.381        4.679      417.032       85.954        0.042      335.764        6.610      852.894
02/06/2014  18:26:00     -335.638     -151.122       -2.623      308.864      223.412      120.298    95397.236    49912.870    14471.728       14.761        7.989      368.091      140.586        0.146      335.714        6.528      852.886
02/06/2014  18:27:00     -276.016      -93.033       10.437      246.586      213.844      114.222    60804.503    45729.183    13046.627       10.224        5.979      291.273      131.431        0.204      335.691        6.491      852.886
02/06/2014  18:28:00     -453.045      -73.949      -22.949      294.192      212.425       89.676    86548.897    45124.383     8041.819       17.546        6.986      459.041      120.640        0.069      335.682        6.476      852.880
02/06/2014  18:29:00     -232.077     -108.997        0.447      168.923      149.059       82.915    28534.964    22218.491     6874.836        6.167        2.881      256.399       74.814        0.085      335.670        6.456      852.876
02/06/2014  18:30:00     -208.805     -109.589        7.937      212.087      144.214      103.414    44980.850    20797.628    10694.533        6.606        3.824      235.817      117.025        0.246      335.678        6.468      852.890
02/06/2014  18:31:00     -435.104      -21.599      -31.169      210.175      101.188       73.534    44173.348    10239.047     5407.267       12.528        2.991      435.639       89.454        0.042      335.665        6.446      852.929
02/06/2014  18:32:00     -610.665      -41.358      -34.523      207.422      156.817      102.219    43023.979    24591.672    10448.745       22.693        3.903      612.064       95.903        0.025      335.672        6.458      852.937
02/06/2014  18:33:00     -566.129     -121.567      -30.637      243.177      203.266       99.592    59135.227    41317.237     9918.643       22.328        5.519      579.034       83.189        0.021      335.681        6.473      852.951
02/06/2014  18:34:00     -342.269      -96.873       -0.137      213.194      202.147       96.705    45451.731    40863.209     9351.776       11.108        4.783      355.714      104.859        0.087      335.687        6.484      852.962
02/06/2014  18:35:00     -411.782      -27.762      -18.283      246.467      131.361       95.769    60745.759    17255.771     9171.668       12.891        4.359      412.717      114.016        0.076      335.662        6.442      853.036
02/06/2014  18:36:00     -347.632      -37.366       -5.584      172.590      132.603       77.653    29787.291    17583.626     6030.028        8.783        2.670      349.635       88.622        0.064      335.632        6.392      853.063
02/06/2014  18:37:00     -306.809      -55.916       -2.823      213.380      132.349       74.657    45531.225    17516.342     5573.608        8.293        3.431      311.863      100.446        0.104      335.621        6.373      853.090
02/06/2014  18:38:00     -417.434     -163.256      -36.406      281.929      177.021      108.852    79483.885    31336.465    11848.712       16.243        6.133      448.223      127.404        0.081      335.649        6.421      853.087
02/06/2014  18:39:00     -398.267     -136.649      -23.353      189.327      161.367       83.060    35844.707    26039.192     6898.975       12.330        3.439      421.058      102.059        0.059      335.663        6.443      853.104
02/06/2014  18:40:00     -220.448      -79.523       -5.109      154.086      137.341       70.125    23742.582    18862.637     4917.557        5.123        2.376      234.353       79.516        0.115      335.651        6.423      853.111
02/06/2014  18:41:00     -232.522     -121.250      -10.416      128.708      107.352       55.316    16565.701    11524.526     3059.846        5.001        1.558      262.236       53.571        0.042      335.656        6.432      853.104
02/06/2014  18:42:00     -330.943     -202.257      -20.077      225.886      187.510       99.915    51024.463    35159.883     9982.960       12.348        4.808      387.855      109.918        0.080      335.697        6.501      853.075
02/06/2014  18:43:00     -459.344     -185.319       -2.137      257.316      237.344      110.418    66211.345    56332.047    12192.216       19.002        6.737      495.318      109.809        0.049      335.711        6.524      853.050
02/06/2014  18:44:00     -681.543     -308.418      -31.036      318.235      343.328      129.422   101273.597   117874.366    16750.060       39.820       11.795      748.079      148.130        0.039      335.746        6.582      853.088
02/06/2014  18:45:00     -594.482     -397.137      -41.218      360.916      242.468      143.656   130260.410    58790.699    20637.070       36.122       10.484      714.932      174.041        0.059      335.821        6.706      853.025
02/06/2014  18:46:00     -574.787     -248.418       -4.292      302.431      196.820      111.292    91464.266    38738.231    12385.823       26.733        7.129      626.172      131.575        0.044      335.769        6.620      853.062
02/06/2014  18:47:00     -628.414     -255.765      -11.204      250.972      187.053      109.128    62987.137    34988.737    11908.849       28.515        5.494      678.469      107.436        0.025      335.769        6.619      853.055
02/06/2014  18:48:00     -419.095     -187.469       -8.040      256.729      195.084      103.423    65909.989    38057.954    10696.301       16.274        5.733      459.113      125.452        0.075      335.799        6.670      853.029
02/06/2014  18:49:00     -429.240     -218.720      -11.027      210.872      202.756       95.893    44467.181    41109.950     9195.542       16.347        4.739      481.753      100.785        0.044      335.754        6.595      853.040
02/06/2014  18:50:00     -338.777     -148.122       13.738      327.314      230.617      128.721   107134.560    53184.076    16569.215       15.686        8.844      369.743      157.799        0.182      335.703        6.510      853.016
02/06/2014  18:51:00     -604.290     -221.189      -13.030      325.055      217.980      116.187   105660.611    47515.151    13499.488       29.044        8.334      643.499      139.295        0.047      335.657        6.433      853.016
02/06/2014  18:52:00     -466.765     -226.808      -22.572      280.522      198.866      102.667    78692.481    39547.545    10540.476       19.928        6.439      518.953      112.951        0.047      335.650        6.422      853.010
02/06/2014  18:53:00     -278.948      -80.506        4.578      169.051      145.945       86.656    28578.378    21299.810     7509.178        7.084        2.869      290.333       94.431        0.106      335.633        6.393      853.038
02/06/2014  18:54:00     -421.576     -121.849       -8.914      220.562      123.710       80.220    48647.435    15304.048     6435.253       13.151        3.519      438.832       95.757        0.048      335.627        6.383      853.045
02/06/2014  18:55:00     -318.995     -147.153      -16.060      191.304      179.413       83.244    36597.249    32188.978     6929.636        9.968        3.786      351.300       89.418        0.065      335.612        6.359      853.035
02/06/2014  18:56:00     -248.833      -48.544        0.545      191.291      153.479       75.050    36592.368    23555.892     5632.509        6.502        3.289      253.524       84.728        0.112      335.569        6.288      853.063
02/06/2014  18:57:00     -390.802      -63.185       -6.780      172.584      193.786      102.571    29785.282    37553.122    10520.770       11.730        3.893      395.877      107.077        0.073      335.567        6.284      853.068
02/06/2014  18:58:00     -369.180      -90.543      -12.867      196.274      120.454       60.870    38523.341    14509.218     3705.131       10.069        2.837      380.121       63.544        0.028      335.562        6.277      853.075
02/06/2014  18:59:00     -315.396      -70.103        1.725      185.146      134.669       78.178    34279.082    18135.798     6111.830        8.145        2.926      323.093       82.009        0.064      335.543        6.245      853.092
02/06/2014  19:00:00     -426.285     -143.149      -36.269      221.710      161.409       88.773    49155.333    26052.791     7880.600       14.329        4.154      449.678      101.507        0.051      335.577        6.300      853.083
02/06/2014  19:01:00     -325.878     -145.372        3.851      262.367      184.469      105.846    68836.525    34028.764    11203.350       12.069        5.703      356.833      126.964        0.127      335.564        6.279      853.069
02/06/2014  19:02:00     -301.471     -173.629       -1.972      226.188      215.904      105.959    51161.088    46614.738    11227.368       11.500        5.450      347.896      129.671        0.139      335.610        6.356      853.063
02/06/2014  19:03:00     -466.095     -274.092       -6.035      192.561      207.164       99.390    37079.759    42916.926     9878.411       19.113        4.494      540.713       95.540        0.031      335.601        6.339      853.054
02/06/2014  19:04:00     -483.706     -177.624      -29.573      182.373      146.371       86.048    33259.936    21424.544     7404.201       16.423        3.104      515.288       91.129        0.031      335.612        6.360      853.083
02/06/2014  19:05:00     -338.029      -99.440      -13.419      192.358      119.675       67.573    37001.418    14321.991     4566.120        9.010        2.794      352.352       76.300        0.047      335.583        6.310      853.108
02/06/2014  19:06:00     -301.485     -181.463      -32.638      128.410       96.209       54.092    16489.114     9256.165     2925.927        7.677        1.434      351.884       49.264        0.020      335.567        6.282      853.126
02/06/2014  19:07:00     -158.866     -114.580       16.496      123.523       95.414       61.786    15257.861     9103.852     3817.551        3.340        1.409      195.875       59.578        0.093      335.547        6.252      853.100
02/06/2014  19:08:00     -233.422     -151.156       -3.893      168.301      139.821       67.921    28325.072    19549.959     4613.312        6.491        2.624      278.089       71.667        0.066      335.567        6.283      853.041
02/06/2014  19:09:00     -358.834      -44.953      -39.711      192.449      146.442       80.226    37036.701    21445.236     6436.172        9.863        3.246      361.639       80.969        0.050      335.573        6.293      852.987
02/06/2014  19:10:00     -225.682     -233.269        0.449      250.945      220.387      107.964    62973.562    48570.424    11656.207       11.425        6.160      324.572      125.072        0.148      335.602        6.343      852.951
02/06/2014  19:11:00     -433.590     -292.342       -5.786      212.606      163.084      113.289    45201.360    26596.329    12834.318       17.905        4.232      522.938      122.054        0.054      335.615        6.364      852.906
02/06/2014  19:12:00     -275.745     -155.181        5.032      192.281      163.068       83.100    36972.163    26591.273     6905.627        8.529        3.523      316.412       86.698        0.075      335.625        6.381      852.941
02/06/2014  19:13:00     -397.240      -35.748      -19.925      189.951      113.273       77.725    36081.463    12830.856     6041.200       10.720        2.748      398.845       87.049        0.048      335.596        6.331      852.959
02/06/2014  19:14:00     -360.645     -158.400       -8.791      197.076       94.711       68.285    38839.061     8970.114     4662.781       10.384        2.624      393.897       81.045        0.042      335.589        6.320      852.978
02/06/2014  19:15:00     -258.784     -120.836       -3.749      141.211      120.571       66.370    19940.639    14537.474     4404.968        6.023        1.944      285.605       64.121        0.050      335.556        6.266      852.999
02/06/2014  19:16:00     -298.673     -136.374      -16.489      148.126      123.198       67.950    21941.236    15177.764     4617.189        7.490        2.087      328.334       74.969        0.052      335.551        6.258      853.029
02/06/2014  19:17:00     -339.507     -146.029        0.609      164.252      157.900       73.642    26978.848    24932.554     5423.210        9.695        2.867      369.580       73.535        0.040      335.525        6.215      853.013
02/06/2014  19:18:00     -329.166     -117.184      -10.683      258.192      124.180       67.760    66663.264    15420.717     4591.388       10.442        4.334      349.403       92.893        0.071      335.525        6.213      853.049
02/06/2014  19:19:00     -270.585     -151.529        0.209      191.992      161.463       98.689    36860.882    26070.176     9739.562        8.441        3.634      310.125      100.750        0.106      335.554        6.262      853.102
02/06/2014  19:20:00     -196.553      -84.217       21.964      236.411      133.521       97.786    55890.356    17827.735     9562.117        6.473        4.164      213.835      115.517        0.292      335.575        6.298      853.140
02/06/2014  19:21:00     -304.903     -124.213       -2.912      154.125      142.843       66.326    23754.659    20404.072     4399.165        7.847        2.428      329.234       66.349        0.041      335.599        6.337      853.130
02/06/2014  19:22:00     -157.272      -96.513       13.881      160.489      113.030       65.405    25756.657    12775.683     4277.805        3.852        2.141      184.524       79.151        0.184      335.559        6.270      853.109
02/06/2014  19:23:00     -286.010     -153.484       -2.018      138.401      117.934       69.211    19154.772    13908.490     4790.180        7.160        1.893      324.590       62.942        0.038      335.576        6.299      853.084
02/06/2014  19:24:00     -213.058      -88.984        8.281      159.738      114.740       64.215    25516.342    13165.237     4123.565        4.809        2.140      230.893       88.307        0.146      335.557        6.269      853.095
02/06/2014  19:25:00     -267.717      -31.341      -11.829      180.443      101.916       71.358    32559.743    10386.819     5091.926        6.041        2.402      269.546       93.350        0.120      335.543        6.244      853.083
02/06/2014  19:26:00     -206.013     -186.052       13.570      159.069      174.635       92.304    25303.030    30497.217     8519.995        7.077        3.216      277.590       84.820        0.093      335.578        6.303      853.127
02/06/2014  19:27:00     -159.378      -41.021        7.200      119.492      104.921       51.526    14278.318    11008.402     2654.959        2.753        1.397      164.573       42.051        0.065      335.606        6.350      853.132
02/06/2014  19:28:00     -118.088      -35.538       13.199      111.030       70.838       54.277    12327.659     5017.957     2946.001        1.783        1.015      123.319       47.745        0.150      335.548        6.254      853.165
02/06/2014  19:29:00     -191.587      -35.225       -8.837      126.830       93.242       48.533    16085.757     8694.023     2355.430        3.258        1.357      194.798       48.487        0.062      335.544        6.247      853.163
02/06/2014  19:30:00     -286.012      -29.854        3.186      154.854      131.833       72.975    23979.824    17379.874     5325.280        6.469        2.334      287.566       73.071        0.065      335.541        6.241      853.186
02/06/2014  19:31:00     -356.181       -0.022      -24.220      158.726      149.828       84.631    25194.083    22448.578     7162.487        9.112        2.740      356.181       89.253        0.063      335.549        6.253      853.239
02/06/2014  19:32:00     -336.406     -126.233      -12.109      203.063      159.015       75.185    41234.715    25285.793     5652.763       10.070        3.609      359.310      104.926        0.085      335.546        6.249      853.272
02/06/2014  19:33:00     -258.631     -164.947       -4.814      164.735      110.023       70.084    27137.703    12105.038     4911.778        6.913        2.208      306.753       71.970        0.055      335.580        6.304      853.284
02/06/2014  19:34:00     -289.756     -195.934      -19.445      168.774      133.842       77.957    28484.527    17913.723     6077.339        8.759        2.624      349.784       59.163        0.029      335.581        6.308      853.285
02/06/2014  19:35:00     -134.488     -104.777        2.467      138.627      163.917       65.850    19217.482    26868.868     4336.254        3.974        2.521      170.485       60.260        0.125      335.547        6.251      853.308
02/06/2014  19:36:00     -259.668     -205.503       12.908      183.128      122.170       85.046    33535.738    14925.505     7232.763        8.275        2.785      331.148      101.768        0.094      335.539        6.238      853.344
02/06/2014  19:37:00     -236.139      -72.649      -14.566      112.726       90.707       58.975    12707.233     8227.841     3478.099        4.283        1.221      247.062       57.650        0.054      335.534        6.229      853.339
02/06/2014  19:38:00     -170.493       -7.264        1.224      117.326       92.853       56.057    13765.280     8621.653     3142.382        2.732        1.276      170.647       55.028        0.104      335.491        6.159      853.341
02/06/2014  19:39:00     -258.368     -133.970       -9.957      141.719      147.630       79.360    20084.166    21794.507     6297.936        6.648        2.409      291.036       57.933        0.040      335.534        6.229      853.305
02/06/2014  19:40:00     -213.707     -150.240       10.274      186.849      136.447       67.481    34912.576    18617.725     4553.714        6.321        2.904      261.233       81.067        0.096      335.517        6.201      853.338
02/06/2014  19:41:00     -197.626     -190.975      -20.696      105.995       91.819       48.186    11234.911     8430.767     2321.933        4.897        1.099      274.823       38.508        0.020      335.551        6.257      853.349
02/06/2014  19:42:00     -213.701      -36.870        1.389      169.366      110.572       77.845    28684.762    12226.087     6059.773        4.699        2.349      216.858       80.275        0.137      335.527        6.218      853.315
02/06/2014  19:43:00     -135.993     -120.463       13.452      180.321      132.500       68.392    32515.815    17556.282     4677.441        4.396        2.737      181.674       53.459        0.087      335.539        6.236      853.330
02/06/2014  19:44:00     -322.781     -253.609       -9.109      218.999      160.520       77.124    47960.399    25766.695     5948.114       12.412        3.984      410.494       76.314        0.035      335.545        6.245      853.308
02/06/2014  19:45:00     -446.385     -224.215      -15.260      236.709      193.176      101.762    56030.919    37317.024    10355.467       17.672        5.185      499.532      116.702        0.055      335.565        6.281      853.290
02/06/2014  19:46:00     -346.287     -192.721       14.264      196.005      195.862       95.129    38418.127    38361.804     9049.492       12.153        4.291      396.303       82.876        0.044      335.550        6.255      853.310
02/06/2014  19:47:00     -365.564     -152.423        7.049      287.852      166.510       99.152    82858.869    27725.734     9831.027       13.865        6.021      396.068      128.342        0.105      335.559        6.271      853.329
02/06/2014  19:48:00     -446.136     -259.286      -16.428      250.166      188.459      102.912    62582.801    35516.624    10590.888       18.760        5.435      516.010      132.131        0.066      335.595        6.331      853.305
02/06/2014  19:49:00     -270.511      -99.138       -8.359      196.205      163.513       75.799    38496.326    26736.464     5745.450        7.701        3.549      288.105       91.032        0.100      335.563        6.277      853.319
02/06/2014  19:50:00     -256.151      -24.590      -13.481      128.664      152.980       66.872    16554.464    23402.880     4471.835        5.541        2.221      257.329       52.247        0.041      335.516        6.198      853.364
02/06/2014  19:51:00     -335.038     -210.440       -1.913      241.854      230.692      100.736    58493.438    53218.916    10147.729       13.918        6.093      395.646      104.671        0.070      335.502        6.175      853.353
02/06/2014  19:52:00     -246.531     -142.842       18.467      233.398      218.683       99.248    54474.415    47822.311     9850.206        9.682        5.607      284.924      108.444        0.145      335.489        6.155      853.280
02/06/2014  19:53:00     -318.923     -243.272        3.825      229.044      176.349      107.918    52461.189    31098.976    11646.281       12.804        4.760      401.115      122.466        0.093      335.454        6.094      853.303
02/06/2014  19:54:00     -267.250     -150.923        3.195      212.944      166.169       97.037    45345.107    27612.295     9416.261        8.828        4.119      306.920      103.897        0.115      335.443        6.079      853.291
02/06/2014  19:55:00     -287.352     -246.290      -35.235      228.235      146.665       88.206    52091.205    21510.716     7780.374       11.291        4.069      378.458      100.895        0.071      335.426        6.048      853.296
02/06/2014  19:56:00     -487.809     -283.024      -20.405      204.961      162.251       93.624    42009.051    26325.540     8765.372       19.778        3.855      563.968      103.218        0.033      335.424        6.045      853.278
02/06/2014  19:57:00     -366.055     -228.810      -12.476      231.896      192.441      111.377    53775.618    37033.639    12404.825       14.484        5.161      431.683      121.783        0.080      335.403        6.009      853.316
02/06/2014  19:58:00     -331.430     -130.088        0.987      251.602      198.366      111.803    63303.528    39349.056    12499.838       12.094        5.758      356.046      149.789        0.177      335.418        6.036      853.321
02/06/2014  19:59:00     -235.939     -153.660       16.791      209.585      130.685       73.319    43925.668    17078.505     5375.734        7.296        3.319      281.565       81.418        0.084      335.438        6.070      853.315
02/06/2014  20:00:00     -326.675     -236.064      -10.082      171.573      128.408       79.996    29437.281    16488.572     6399.297       10.743        2.616      403.041       76.528        0.036      335.451        6.090      853.337
02/06/2014  20:01:00     -402.746     -174.469      -29.450      223.122      146.738       85.372    49783.567    21532.050     7288.452       13.604        3.930      438.912       92.868        0.045      335.432        6.058      853.363
02/06/2014  20:02:00     -245.456      -67.968        4.948      208.854      156.045       83.934    43619.828    24350.068     7044.983        6.994        3.751      254.693       95.628        0.141      335.405        6.015      853.398
02/06/2014  20:03:00     -308.549     -175.933      -11.364      179.588      210.617      103.933    32251.771    44359.428    10802.029       10.683        4.371      355.183      114.913        0.105      335.432        6.058      853.359
02/06/2014  20:04:00     -225.776     -111.540        7.145      187.611      124.992       72.715    35198.009    15623.106     5287.400        5.978        2.805      251.825       95.124        0.143      335.442        6.074      853.372
02/06/2014  20:05:00     -164.610     -114.861        8.664      153.664      102.238       66.569    23612.716    10452.547     4431.388        3.942        1.925      200.723       63.995        0.102      335.446        6.082      853.398
02/06/2014  20:06:00     -536.545     -324.678      -20.402      364.278      206.917      109.429   132698.237    42814.443    11974.809       29.057        9.374      627.134      150.808        0.058      335.465        6.113      853.409
02/06/2014  20:07:00     -367.193     -198.669       10.968      267.685      205.216      113.828    71655.052    42113.693    12956.881       15.055        6.336      417.493      143.715        0.118      335.476        6.132      853.397
02/06/2014  20:08:00     -292.771     -162.945        7.690      208.344      177.383      104.007    43407.063    31464.589    10817.461        9.899        4.284      335.061      109.053        0.106      335.496        6.166      853.446
02/06/2014  20:09:00     -374.714     -159.182        8.850      248.513      224.082      106.340    61758.503    50212.827    11308.176       14.453        6.164      407.123      135.719        0.111      335.534        6.229      853.476
02/06/2014  20:10:00     -299.957     -181.697        3.043      229.797      170.961      103.797    52806.473    29227.535    10773.807       10.789        4.640      350.696      120.222        0.118      335.469        6.120      853.517
02/06/2014  20:11:00     -369.492     -297.801      -13.879      199.382      187.228       94.555    39753.046    35054.253     8940.709       15.456        4.187      474.563      110.791        0.055      335.430        6.055      853.549
02/06/2014  20:12:00     -315.434      -77.992       -4.518      145.577      143.644       79.541    21192.806    20633.633     6326.747        7.687        2.408      324.932       82.310        0.064      335.426        6.050      853.570
02/06/2014  20:13:00     -325.002     -164.661      -12.858      163.070      134.366       77.797    26591.831    18054.205     6052.408        9.179        2.535      364.334       79.256        0.047      335.446        6.082      853.582
02/06/2014  20:14:00     -248.725     -198.412      -13.765      154.529      157.952       71.799    23879.275    24948.798     5155.126        7.769        2.699      318.169       65.555        0.042      335.472        6.126      853.607
02/06/2014  20:15:00     -315.816     -195.193       -9.699      181.992      129.431       70.454    33120.999    16752.502     4963.810        9.638        2.742      371.268       69.768        0.035      335.484        6.145      853.591
02/06/2014  20:16:00     -384.338     -237.355        0.282      282.689      141.630       89.598    79912.991    20059.197     8027.825       15.601        5.400      451.722      109.405        0.059      335.515        6.198      853.593
02/06/2014  20:17:00     -231.305     -250.523        7.192      183.550      144.787       94.547    33690.655    20963.359     8939.080        8.994        3.180      340.975       95.494        0.078      335.512        6.193      853.622
02/06/2014  20:18:00     -300.947     -162.851      -20.475      183.656      144.195       75.209    33729.500    20792.327     5656.426        8.883        3.009      342.184       84.495        0.061      335.494        6.163      853.598
02/06/2014  20:19:00     -293.783     -143.156        8.068      169.646      163.733       72.275    28779.756    26808.565     5223.650        8.383        3.041      326.806       72.642        0.049      335.499        6.171      853.564
02/06/2014  20:20:00     -260.256     -188.596       30.291      255.742      206.754      114.004    65403.836    42747.421    12996.826       11.266        6.057      321.405      129.537        0.162      335.503        6.177      853.547
02/06/2014  20:21:00     -307.474     -139.598        8.963      252.374      147.616      101.874    63692.774    21790.470    10378.313       10.497        4.793      337.680      118.053        0.122      335.497        6.169      853.530
02/06/2014  20:22:00     -347.881     -189.067       16.653      278.651      175.480       80.906    77646.204    30793.203     6545.758       13.600        5.749      395.939      106.810        0.073      335.534        6.229      853.514
02/06/2014  20:23:00     -328.761     -250.183       -6.719      200.519      173.756       97.039    40207.836    30190.976     9416.497       12.525        3.991      413.129       93.474        0.051      335.511        6.189      853.496
02/06/2014  20:24:00     -286.950     -261.471       -1.323      195.522      146.049       96.788    38228.774    21330.226     9367.897       10.981        3.446      388.210       98.244        0.064      335.464        6.112      853.507
02/06/2014  20:25:00     -459.345     -143.758      -24.625      234.766      211.610       95.120    55115.194    44778.794     9047.764       17.059        5.447      481.315      122.705        0.065      335.450        6.087      853.521
02/06/2014  20:26:00     -389.891     -231.101      -14.864      226.122      162.550       92.668    51131.282    26422.458     8587.413       14.588        4.307      453.236      102.910        0.052      335.442        6.075      853.528
02/06/2014  20:27:00     -563.768     -235.619      -37.633      274.959      215.618      105.591    75602.414    46490.967    11149.364       25.398        6.662      611.024      119.064        0.038      335.430        6.056      853.478
02/06/2014  20:28:00     -319.019      -65.587        3.330      180.035      133.270       90.135    32412.443    17760.917     8124.229        8.218        2.915      325.692      102.301        0.099      335.414        6.029      853.464
02/06/2014  20:29:00     -256.458     -167.434       13.028      195.704      123.396       86.582    38299.929    15226.650     7496.455        7.749        3.051      306.275       87.566        0.082      335.477        6.135      853.410
02/06/2014  20:30:00     -457.618     -307.852       -7.989      211.648      156.124      108.697    44794.747    24374.621    11815.133       19.260        4.049      551.532       99.372        0.032      335.551        6.256      853.355
02/06/2014  20:31:00     -388.329     -299.840      -16.100      198.360      171.370      100.869    39346.690    29367.559    10174.455       15.991        3.944      490.615       97.229        0.039      335.511        6.190      853.332
02/06/2014  20:32:00     -356.300     -256.118       -7.244      175.486      158.386       97.410    30795.342    25086.126     9488.705       12.897        3.269      438.801       97.151        0.049      335.485        6.148      853.367
02/06/2014  20:33:00     -274.538     -189.734       24.624      197.935      198.378       98.468    39178.434    39353.701     9695.876       10.009        4.411      333.722      106.571        0.102      335.444        6.079      853.346
02/06/2014  20:34:00     -398.373     -286.325       -1.426      215.174      179.488      108.570    46299.824    32215.930    11787.510       16.548        4.515      490.595       95.882        0.038      335.456        6.096      853.348
02/06/2014  20:35:00     -522.350     -349.683      -13.097      257.650      237.808      132.419    66383.763    56552.707    17534.701       26.786        7.024      628.592      129.698        0.043      335.435        6.063      853.332
02/06/2014  20:36:00     -488.471     -176.432      -38.264      370.811      232.941      112.153   137500.778    54261.724    12578.305       23.773       10.217      519.358      144.259        0.077      335.430        6.055      853.344
02/06/2014  20:37:00     -322.018     -274.806      -13.010      262.162      217.924      101.897    68728.916    47490.934    10382.948       15.297        6.330      423.336      106.612        0.063      335.403        6.010      853.342
02/06/2014  20:38:00     -341.809     -179.662       -1.825      228.872      141.605       84.928    52382.194    20051.944     7212.708       11.437        3.982      386.149       97.148        0.063      335.381        5.973      853.338
02/06/2014  20:39:00     -398.887     -236.090      -11.316      199.138      225.772       98.863    39655.833    50972.891     9773.917       15.767        5.020      463.518      104.062        0.050      335.372        5.958      853.317
02/06/2014  20:40:00     -430.460     -204.005      -21.442      217.404      164.769       85.967    47264.489    27148.951     7390.383       15.458        4.090      476.355       91.281        0.037      335.352        5.925      853.330
02/06/2014  20:41:00     -399.775      -83.503      -27.657      198.881      146.341       99.503    39553.795    21415.686     9900.759       11.920        3.544      408.403      107.076        0.069      335.318        5.869      853.308
02/06/2014  20:42:00     -209.861      -70.106       11.178      175.779      129.412       76.429    30898.375    16747.461     5841.352        5.128        2.674      221.261       86.724        0.154      335.298        5.836      853.302
02/06/2014  20:43:00     -127.944      -74.497       18.120      150.095      126.452       69.744    22528.646    15990.083     4864.269        3.281        2.169      148.052       61.207        0.171      335.276        5.800      853.356
02/06/2014  20:44:00     -262.153     -120.265       -1.923      199.102      150.230       76.418    39641.787    22568.977     5839.635        7.561        3.403      288.423       91.120        0.100      335.294        5.829      853.391
02/06/2014  20:45:00     -344.899     -279.520      -11.884      180.422      185.427      100.008    32551.946    34383.154    10001.653       13.707        3.847      443.944      102.910        0.054      335.324        5.879      853.386
02/06/2014  20:46:00     -373.490     -131.792        4.109      224.615      221.358      102.052    50451.792    48999.166    10414.668       13.335        5.493      396.060      122.543        0.096      335.297        5.834      853.418
02/06/2014  20:47:00     -480.394     -132.930      -14.735      251.735      253.349       89.918    63370.370    64185.961     8085.308       19.213        6.782      498.447       91.440        0.034      335.413        6.028      853.443
02/06/2014  20:48:00     -326.428     -192.174      -13.686      202.089      173.852       85.837    40840.131    30224.472     7368.045       11.104        3.922      378.795       82.201        0.047      335.353        5.928      853.488
02/06/2014  20:49:00     -280.718     -163.355        6.011      179.652      176.604       93.513    32274.736    31189.098     8744.746        8.885        3.610      324.788       85.069        0.069      335.379        5.970      853.509
02/06/2014  20:50:00     -382.092     -149.869      -11.027      237.867      194.521       94.832    56580.549    37838.456     8993.108       13.598        5.171      410.433      118.441        0.083      335.333        5.893      853.495
02/06/2014  20:51:00     -283.890      -62.701      -10.544      187.199      156.817       76.386    35043.298    24591.416     5834.807        7.504        3.273      290.732       83.324        0.082      335.303        5.844      853.504
02/06/2014  20:52:00     -337.013      -73.207       -5.594      206.267      182.945       90.601    42545.986    33469.010     8208.620       10.158        4.211      344.872       87.373        0.064      335.298        5.835      853.506
02/06/2014  20:53:00     -288.684     -133.277       -7.350      155.122      138.030       90.406    24062.832    19052.419     8173.262        7.621        2.564      317.964       86.559        0.074      335.297        5.833      853.481
02/06/2014  20:54:00     -364.210     -131.745       -7.388      213.341      173.543       93.981    45514.187    30117.280     8832.376       11.725        4.223      387.306      101.548        0.069      335.315        5.863      853.476
02/06/2014  20:55:00     -248.000     -149.864      -15.401      141.503      170.478       83.632    20023.039    29062.906     6994.369        7.013        2.804      289.764       76.085        0.069      335.307        5.851      853.469
02/06/2014  20:56:00     -313.073      -33.974       -2.943      201.938      145.124       78.026    40778.845    21061.057     6087.991        8.354        3.396      314.911       68.733        0.048      335.276        5.799      853.469
02/06/2014  20:57:00     -333.168     -218.767      -15.234      189.030      152.768       91.793    35732.255    23337.927     8425.932       11.328        3.375      398.572       96.423        0.059      335.296        5.833      853.475
02/06/2014  20:58:00     -279.268     -192.812        4.960      187.598      169.508       87.663    35192.987    28733.068     7684.760        9.339        3.581      339.363       98.050        0.083      335.332        5.892      853.481
02/06/2014  20:59:00     -347.106     -226.100       -6.352      198.773      150.848       95.292    39510.508    22755.193     9080.628       12.148        3.567      414.251      100.961        0.059      335.328        5.885      853.511
02/06/2014  21:00:00     -392.762     -332.439      -20.521      241.270      185.578      120.632    58211.140    34439.064    14552.121       18.618        5.360      514.565      135.636        0.069      335.355        5.932      853.500
02/06/2014  21:01:00     -372.628     -305.299      -23.007      184.496      182.514       94.144    34038.852    33311.488     8863.165       15.439        3.811      481.725       94.831        0.039      335.364        5.946      853.487
02/06/2014  21:02:00     -369.108     -241.288      -16.787      166.478      158.393       84.945    27714.902    25088.275     7215.630       12.737        3.001      440.977       87.740        0.040      335.308        5.852      853.491
02/06/2014  21:03:00     -280.646     -291.732        1.871      207.790      194.725       91.929    43176.803    37917.658     8450.948       12.669        4.477      404.808      102.903        0.065      335.324        5.878      853.518
02/06/2014  21:04:00     -417.889     -333.404      -21.716      189.650      169.049       97.755    35966.986    28577.402     9556.078       18.017        3.705      534.593       93.056        0.030      335.292        5.826      853.589
02/06/2014  21:05:00     -294.229     -188.831       -5.284      153.428      136.041       84.661    23540.240    18507.126     7167.494        8.573        2.461      349.611       90.737        0.067      335.268        5.786      853.638
02/06/2014  21:06:00     -246.970     -124.409        2.667      143.457      100.970       58.441    20579.826    10194.915     3415.344        5.533        1.710      276.535       58.489        0.045      335.228        5.719      853.643
02/06/2014  21:07:00     -211.023     -110.166       -2.757      158.384      135.807       68.550    25085.629    18443.463     4699.143        5.244        2.411      238.049       78.296        0.108      335.216        5.701      853.644
02/06/2014  21:08:00     -148.344     -171.092       10.805      114.565      120.024       69.575    13125.038    14405.689     4840.721        4.188        1.619      226.448       60.552        0.072      335.236        5.733      853.645
02/06/2014  21:09:00     -330.088     -179.359        8.340      194.162      183.661       88.372    37698.834    33731.430     7809.672       11.021        3.962      375.669       98.636        0.069      335.240        5.740      853.652
02/06/2014  21:10:00     -303.514     -132.535        3.147      177.899      161.706       86.178    31648.127    26148.903     7426.670        8.745        3.261      331.189      104.356        0.099      335.259        5.771      853.665
02/06/2014  21:11:00     -324.891     -201.441       -0.014      217.949      142.389       84.711    47501.929    20274.535     7175.955       11.053        3.748      382.273       95.518        0.062      335.316        5.866      853.704
02/06/2014  21:12:00     -335.591     -234.553       10.284      219.948      166.669      102.774    48377.096    27778.631    10562.414       12.722        4.336      409.434      119.365        0.085      335.308        5.853      853.748
02/06/2014  21:13:00     -280.546     -214.218      -11.719      156.384      105.943       76.127    24455.881    11223.997     5795.289        8.310        2.074      352.981       67.246        0.036      335.292        5.824      853.857
02/06/2014  21:14:00     -390.629     -170.829       -7.282      274.713      182.132      102.880    75467.117    33172.162    10584.216       15.051        5.961      426.349      118.792        0.078      335.294        5.828      853.920
02/06/2014  21:15:00     -401.584     -233.745      -15.501      239.185      188.467       96.158    57209.243    35519.974     9246.336       15.904        5.099      464.658       99.816        0.046      335.318        5.867      853.910
02/06/2014  21:16:00     -379.337     -124.577        4.885      245.639      183.033       89.495    60338.471    33501.209     8009.431       13.063        5.092      399.269      104.491        0.068      335.273        5.794      853.930
02/06/2014  21:17:00     -247.995     -180.742        6.405      196.892      186.432       99.469    38766.512    34756.895     9894.052        8.880        4.171      306.870      110.030        0.129      335.245        5.746      853.990
02/06/2014  21:18:00     -311.349     -139.751       -4.490      220.470      175.935      101.033    48606.920    30952.954    10207.722       10.311        4.488      341.275      108.207        0.101      335.323        5.877      853.985
02/06/2014  21:19:00     -480.719     -223.290      -12.068      243.108      151.713       87.859    59101.643    23016.950     7719.250       18.545        4.492      530.047      102.338        0.037      335.365        5.946      854.051
02/06/2014  21:20:00     -321.975     -232.599       -0.672      169.869      145.848       88.184    28855.622    21271.729     7776.394       10.783        2.895      397.203       90.053        0.051      335.355        5.929      854.075
02/06/2014  21:21:00     -318.230     -178.939      -10.546      171.635      132.659       79.134    29458.681    17598.463     6262.194        9.335        2.666      365.089       92.985        0.065      335.285        5.814      854.124
02/06/2014  21:22:00     -228.914     -130.240       15.431      179.685      158.701       85.008    32286.716    25185.992     7226.287        6.714        3.235      263.371       85.528        0.105      335.328        5.885      854.149
02/06/2014  21:23:00     -319.922     -121.748       -5.071      157.646      130.263       82.359    24852.329    16968.481     6782.972        8.289        2.430      342.305       91.472        0.071      335.336        5.899      854.137
02/06/2014  21:24:00     -362.837     -235.230      -17.718      189.934      135.100       90.420    36075.030    18252.091     8175.741       12.489        3.125      432.416       87.377        0.041      335.316        5.866      854.128
02/06/2014  21:25:00     -377.605     -288.579      -14.415      190.440      142.486       84.353    36267.536    20302.355     7115.497       14.487        3.184      475.250       87.356        0.034      335.338        5.902      854.096
02/06/2014  21:26:00     -426.227     -257.243      -22.626      246.788      150.959       74.759    60904.506    22788.574     5588.867       16.880        4.464      497.839       92.849        0.035      335.343        5.911      854.043
02/06/2014  21:27:00     -478.498     -263.812       -7.872      225.268      182.151       94.581    50745.589    33178.808     8945.478       19.573        4.643      546.404       97.613        0.032      335.379        5.971      854.000
02/06/2014  21:28:00     -567.842     -278.011      -25.161      283.192      198.199       97.373    80197.688    39283.040     9481.507       26.464        6.448      632.245      119.005        0.035      335.355        5.930      854.006
02/06/2014  21:29:00     -239.866     -141.941      -10.713      196.410      160.841       89.507    38576.985    25869.864     8011.575        7.512        3.623      278.716       93.125        0.112      335.325        5.880      854.054
02/06/2014  21:30:00     -315.441     -179.647       -2.930      235.003      171.272       92.148    55226.469    29334.209     8491.303       11.240        4.653      363.010      106.826        0.087      335.334        5.895      854.007
02/06/2014  21:31:00     -308.804     -264.535      -33.975      206.035      137.690       79.507    42450.381    18958.494     6321.401       11.710        3.387      406.619       85.687        0.044      335.327        5.883      853.971
02/06/2014  21:32:00     -464.480     -229.131      -20.354      277.301      184.698      102.403    76895.900    34113.328    10486.273       19.506        6.075      517.921      117.927        0.052      335.358        5.936      853.933
02/06/2014  21:33:00     -390.638     -178.899      -15.165      217.742      154.665       89.971    47411.583    23921.126     8094.761       13.212        3.971      429.654      105.321        0.060      335.314        5.864      853.935
02/06/2014  21:34:00     -378.772     -252.361       -2.743      274.788      193.892      100.128    75508.274    37594.128    10025.520       16.512        6.156      455.142      113.599        0.062      335.282        5.808      853.937
02/06/2014  21:35:00     -458.850     -282.877        4.295      287.180      201.404      114.547    82472.236    40563.752    13121.113       21.335        6.808      539.038      132.394        0.060      335.274        5.794      853.883
02/06/2014  21:36:00     -374.463     -174.999       -5.943      229.987      216.294      105.556    52893.804    46783.196    11142.028       14.083        5.541      413.337      105.202        0.065      335.250        5.757      853.862
02/06/2014  21:37:00     -472.291     -201.946      -27.061      245.583      181.533      101.176    60311.027    32954.149    10236.580       18.402        5.175      513.655      107.218        0.044      335.265        5.780      853.836
02/06/2014  21:38:00     -569.678     -254.646      -40.666      242.714      192.281       84.870    58910.262    36971.970     7202.990       24.704        5.154      624.001       89.820        0.021      335.309        5.855      853.825
02/06/2014  21:39:00     -343.714     -223.163       -5.511      243.647      194.629      108.727    59363.868    37880.299    11821.599       13.850        5.453      409.807      114.818        0.078      335.286        5.816      853.774
02/06/2014  21:40:00     -312.285     -142.921        0.557      221.902      127.726       82.933    49240.601    16313.997     6877.800        9.518        3.622      343.436      105.202        0.094      335.277        5.801      853.770
02/06/2014  21:41:00     -279.680     -124.157        1.917      154.341      111.215       71.675    23821.093    12368.855     5137.307        6.748        2.066      306.000       78.748        0.066      335.271        5.789      853.772
02/06/2014  21:42:00     -372.254     -216.889        8.749      218.859      180.269       90.454    47899.239    32496.826     8181.887       13.712        4.429      430.829      104.223        0.059      335.268        5.785      853.802
02/06/2014  21:43:00     -336.163     -233.479        6.005      219.643      202.647       82.519    48243.157    41065.991     6809.377       13.182        4.806      409.289       87.583        0.046      335.284        5.811      853.800
02/06/2014  21:44:00     -448.589     -199.502        3.694      237.319      189.315       99.320    56320.260    35840.182     9864.553       17.152        5.101      490.951      112.614        0.053      335.262        5.775      853.821
02/06/2014  21:45:00     -429.136     -261.787      -18.935      193.388      198.993       84.531    37399.110    39598.099     7145.551       16.858        4.207      502.683       93.320        0.034      335.314        5.862      853.813
02/06/2014  21:46:00     -306.367     -138.015       -5.979      252.397      139.161       77.856    63704.391    19365.677     6061.611       10.102        4.457      336.019       84.925        0.064      335.298        5.834      853.769
02/06/2014  21:47:00     -374.931     -146.360        4.157      187.393      199.991       77.600    35116.220    39996.270     6021.684       12.156        4.057      402.485       80.978        0.040      335.306        5.848      853.780
02/06/2014  21:48:00     -389.695     -241.483      -12.971      165.394      133.761       82.342    27355.158    17891.955     6780.167       13.118        2.601      458.450       68.006        0.022      335.277        5.800      853.839
02/06/2014  21:49:00     -382.771     -238.050      -28.848      200.961      147.295       90.610    40385.342    21695.943     8210.252       13.714        3.515      450.756      105.007        0.054      335.256        5.765      853.868
02/06/2014  21:50:00     -415.326     -205.121      -12.829      210.565      129.626       76.864    44337.710    16802.805     5908.086       14.088        3.352      463.217       77.679        0.028      335.256        5.764      853.894
02/06/2014  21:51:00     -293.442     -161.625       -3.614      130.407      112.569       76.964    17005.999    12671.840     5923.528        7.392        1.780      335.009       59.927        0.032      335.250        5.756      853.959
02/06/2014  21:52:00     -420.962     -223.536       -6.465      167.274      125.736       74.736    27980.466    15809.487     5585.423       13.829        2.469      476.631       62.851        0.017      335.290        5.822      853.983
02/06/2014  21:53:00     -348.021     -205.243      -11.291      177.753      126.933       79.023    31596.298    16111.965     6244.653       10.865        2.698      404.034       89.528        0.049      335.260        5.772      854.072
02/06/2014  21:54:00     -331.148     -225.564      -22.714      178.847      141.058       84.864    31986.253    19897.445     7201.972       11.006        2.954      400.672       98.078        0.060      335.265        5.780      854.101
02/06/2014  21:55:00     -359.964     -240.514      -16.929      175.298      129.258       74.597    30729.458    16707.512     5564.766       12.035        2.650      432.921       76.706        0.031      335.302        5.841      854.133
02/06/2014  21:56:00     -353.842     -221.403      -10.685      184.719      155.676       82.203    34121.054    24234.959     6757.374       11.971        3.256      417.400       79.613        0.036      335.274        5.795      854.104
02/06/2014  21:57:00     -323.739     -275.969      -21.928      129.893      131.037       60.634    16872.157    17170.609     3676.438       10.958        1.886      425.401       55.098        0.017      335.295        5.829      854.088
02/06/2014  21:58:00     -253.204     -229.038       -4.982      142.879      162.627       72.271    20414.520    26447.566     5223.031        8.433        2.604      341.424       58.231        0.029      335.335        5.896      853.988
02/06/2014  21:59:00     -374.182     -286.473        2.182      202.861      151.464       86.460    41152.746    22941.238     7475.403       14.681        3.578      471.253       80.839        0.029      335.349        5.921      853.978
02/06/2014  22:00:00     -267.254      -89.208       -1.651      145.207      109.544       54.923    21085.029    11999.925     3016.564        5.774        1.805      281.749       61.281        0.047      335.316        5.865      853.982
02/06/2014  22:01:00     -349.186     -119.090       -7.051      183.774      134.216       84.000    33772.757    18014.024     7056.011        9.749        2.942      368.935       88.812        0.058      335.281        5.806      854.012
02/06/2014  22:02:00     -273.219      -84.381        5.575      184.928      152.581       81.166    34198.376    23281.065     6587.865        7.292        3.203      285.952       81.662        0.082      335.310        5.856      853.995
02/06/2014  22:03:00     -240.604     -180.157       -9.987      213.193      132.182       70.557    45451.151    17472.047     4978.282        7.916        3.395      300.578       77.564        0.067      335.300        5.838      854.028
02/06/2014  22:04:00     -222.917     -144.062        7.703      174.005      128.543       78.741    30277.797    16523.414     6200.194        6.174        2.650      265.416       87.801        0.109      335.276        5.798      854.048
02/06/2014  22:05:00     -315.838     -200.036      -15.232      216.757      109.941       75.430    46983.741    12087.003     5689.749       10.237        3.238      373.856       97.180        0.068      335.271        5.790      854.028
02/06/2014  22:06:00     -253.451     -159.388       12.717      208.718      137.118       83.819    43563.217    18801.462     7025.584        7.959        3.470      299.402       98.186        0.108      335.274        5.795      854.057
02/06/2014  22:07:00     -325.555     -206.304       -9.485      181.120      125.668       77.637    32804.289    15792.454     6027.564       10.162        2.731      385.419       82.602        0.046      335.266        5.781      854.090
02/06/2014  22:08:00     -206.455     -113.034        2.637      129.517      104.391       57.705    16774.692    10897.562     3329.852        4.320        1.550      235.373       57.508        0.060      335.250        5.755      854.129
02/06/2014  22:09:00     -331.626     -131.368       -0.971      188.809      116.476       77.336    35648.664    13566.699     5980.867        9.121        2.760      356.698       87.969        0.061      335.254        5.762      854.140
02/06/2014  22:10:00     -247.444     -139.471       -2.497      210.780      150.528       84.130    44428.325    22658.692     7077.810        7.741        3.708      284.044       75.346        0.070      335.281        5.806      854.084
02/06/2014  22:11:00     -354.027     -253.540       22.514      220.692      181.840      103.424    48704.851    33065.669    10696.434       14.128        4.623      435.451      115.987        0.071      335.288        5.819      853.935
02/06/2014  22:12:00     -389.625     -284.549      -11.015      229.843      194.988       96.177    52827.700    38020.424     9250.075       16.648        5.005      482.468      110.377        0.052      335.293        5.827      853.900
02/06/2014  22:13:00     -576.727     -417.270      -32.554      270.190      243.051      105.239    73002.459    59073.875    11075.177       32.545        7.158      711.848      134.497        0.036      335.301        5.841      853.870
02/06/2014  22:14:00     -350.643     -280.291       25.249      264.625      183.495      118.502    70026.219    33670.521    14042.679       15.993        5.887      448.903      149.822        0.111      335.287        5.817      853.873
02/06/2014  22:15:00     -398.186     -299.558        1.936      246.665      198.831      112.897    60843.474    39533.928    12745.710       18.069        5.656      498.284      123.236        0.061      335.292        5.826      853.879
02/06/2014  22:16:00     -359.881     -187.897        5.170      181.571      154.229       85.701    32967.960    23786.638     7344.623       11.446        3.205      405.980       82.890        0.042      335.280        5.804      853.919
02/06/2014  22:17:00     -327.793     -132.064       21.647      243.198      176.770      112.423    59145.461    31247.560    12638.927       11.418        5.152      353.397      132.005        0.140      335.273        5.795      853.932
02/06/2014  22:18:00     -293.443     -241.821       10.943      211.360      177.678      101.708    44673.162    31569.390    10344.444       11.563        4.329      380.245      113.907        0.090      335.287        5.817      853.921
02/06/2014  22:19:00     -227.142     -177.539        0.876      168.833      131.748       71.176    28504.450    17357.406     5066.056        6.701        2.546      288.294       76.425        0.070      335.267        5.783      853.957
02/06/2014  22:20:00     -178.490     -149.502       24.266      160.450      127.542       82.963    25744.059    16266.978     6882.918        5.184        2.445      232.829       85.572        0.135      335.218        5.703      853.969
02/06/2014  22:21:00     -215.064     -156.699       11.008      167.659      162.447       86.168    28109.478    26389.179     7424.974        6.642        3.096      266.096       96.398        0.131      335.190        5.657      853.971
02/06/2014  22:22:00     -256.360     -176.772        1.328      183.901      135.241       69.611    33819.424    18290.063     4845.739        7.695        2.848      311.399       77.740        0.062      335.196        5.667      853.983
02/06/2014  22:23:00     -535.593     -320.506      -15.646      236.037      186.380       98.972    55713.701    34737.438     9795.542       24.502        5.012      624.166       86.720        0.019      335.221        5.709      854.006
02/06/2014  22:24:00     -362.954     -234.780        9.480      249.026      216.445       92.462    62013.771    46848.460     8549.271       15.216        5.871      432.270      104.454        0.058      335.200        5.675      854.010
02/06/2014  22:25:00     -402.938     -188.716      -17.085      243.270      175.591       76.317    59180.295    30832.141     5824.222       14.703        4.792      444.941       68.537        0.024      335.183        5.645      853.986
02/06/2014  22:26:00     -256.632     -115.712        6.875      178.088      151.150       70.095    31715.209    22846.226     4913.378        6.938        2.974      281.512       88.816        0.100      335.164        5.613      854.002
02/06/2014  22:27:00     -337.949     -221.511      -16.820      167.539      164.368       73.485    28069.179    27016.959     5400.058       11.201        3.024      404.075       66.867        0.027      335.209        5.687      853.988
02/06/2014  22:28:00     -287.123     -168.039       -7.297      167.089      114.116       67.938    27918.633    13022.508     4615.509        7.814        2.278      332.681       81.206        0.060      335.194        5.662      854.000
02/06/2014  22:29:00     -306.671     -144.155       11.719      197.754      157.607       91.705    39106.548    24840.027     8409.759        9.365        3.618      338.863      100.566        0.088      335.197        5.667      853.989
02/06/2014  22:30:00     -401.520     -282.073      -25.956      228.686      185.148       77.407    52297.191    34279.791     5991.840       16.700        4.628      490.697       77.486        0.025      335.215        5.698      853.961
02/06/2014  22:31:00     -457.930     -166.692      -24.381      340.074      201.837      102.130   115650.318    40738.209    10430.615       20.242        8.341      487.325      125.228        0.066      335.214        5.697      853.959
02/06/2014  22:32:00     -380.340     -221.814      -14.501      226.820      171.772       96.546    51447.228    29505.459     9321.049       14.216        4.514      440.296      117.583        0.071      335.182        5.643      853.981
02/06/2014  22:33:00     -320.741     -258.444      -10.462      206.052      202.480       87.254    42457.576    40998.330     7613.336       13.041        4.553      411.908       97.063        0.056      335.215        5.696      853.948
02/06/2014  22:34:00     -317.974     -219.222      -11.779      190.365      144.978       85.974    36238.821    21018.635     7391.485       10.697        3.232      386.220       85.271        0.049      335.193        5.661      853.941
02/06/2014  22:35:00     -285.553     -184.778      -21.231      185.916      130.914       72.051    34564.697    17138.531     5191.334        8.650        2.845      340.123       80.401        0.056      335.169        5.621      853.934
02/06/2014  22:36:00     -363.144     -233.330      -19.607      202.224      203.305       89.717    40894.648    41332.823     8049.165       13.847        4.514      431.644      104.499        0.059      335.209        5.689      853.897
02/06/2014  22:37:00     -259.738     -124.836      -11.853      176.812      112.959       63.613    31262.334    12759.724     4046.576        6.562        2.403      288.180       77.959        0.073      335.177        5.636      853.944
02/06/2014  22:38:00     -381.470     -267.042      -18.000      248.211      190.459      105.592    61608.519    36274.722    11149.604       16.308        5.452      465.651      129.873        0.078      335.131        5.560      853.975
02/06/2014  22:39:00     -451.078     -170.871      -17.410      250.608      236.059      109.767    62804.463    55723.988    12048.766       18.175        6.529      482.357      118.881        0.061      335.146        5.583      853.952
02/06/2014  22:40:00     -329.671     -154.600      -19.530      120.161      138.902       73.331    14438.737    19293.794     5377.399        8.603        1.955      364.122       68.556        0.035      335.149        5.589      854.019
02/06/2014  22:41:00     -361.150     -213.995       -4.407      188.592      164.101       78.030    35566.927    26929.261     6088.604       12.240        3.429      419.789       86.497        0.042      335.143        5.579      854.070
02/06/2014  22:42:00     -391.666     -275.804        0.978      210.722      203.628       91.086    44403.653    41464.162     8296.747       16.180        4.708      479.030      103.683        0.047      335.197        5.669      854.114
02/06/2014  22:43:00     -573.286     -278.431      -18.255      199.370      104.027       75.368    39748.552    10821.650     5680.283       23.137        2.813      637.323       65.720        0.011      335.186        5.650      854.087
02/06/2014  22:44:00     -311.127     -304.561       -4.414      254.756      211.995       99.125    64900.600    44941.791     9825.783       15.460        5.983      435.382      131.311        0.091      335.218        5.703      854.143
02/06/2014  22:45:00     -328.742     -252.829      -11.898      216.659      180.359      105.074    46940.976    32529.520    11040.593       13.131        4.526      414.721      112.505        0.074      335.222        5.710      854.102
02/06/2014  22:46:00     -416.566     -280.370      -16.036      215.024      153.698       94.732    46235.347    23623.036     8974.165       16.560        3.942      502.130      106.512        0.045      335.219        5.704      854.114
02/06/2014  22:47:00     -358.681     -295.547       -8.840      220.641      199.359       98.488    48682.600    39744.045     9699.978       15.709        4.906      464.758       93.566        0.041      335.208        5.687      854.057
02/06/2014  22:48:00     -312.822     -299.837        4.434      163.620      160.962       78.998    26771.374    25908.647     6240.666       12.334        2.946      433.312       82.760        0.036      335.218        5.703      854.089
02/06/2014  22:49:00     -407.604     -238.257      -18.256      221.396      172.458       93.433    49015.985    29741.897     8729.643       15.535        4.374      472.131       88.063        0.035      335.224        5.712      854.097
02/06/2014  22:50:00     -311.079     -211.103      -24.772      244.034      173.484       98.273    59552.712    30096.775     9657.581       12.061        4.965      375.945      115.337        0.094      335.190        5.657      854.077
02/06/2014  22:51:00     -313.217     -257.772        7.931      219.731      192.138       96.239    48281.901    36916.901     9261.963       12.952        4.723      405.649      112.414        0.077      335.199        5.670      854.081
02/06/2014  22:52:00     -314.185     -141.538       20.952      275.067      148.316       77.429    75661.681    21997.756     5995.188       11.140        5.183      344.595      100.747        0.085      335.210        5.689      854.080
02/06/2014  22:53:00     -243.171     -356.412        6.852      181.343      226.872       87.603    32885.147    51470.741     7674.245       13.910        4.602      431.464       99.853        0.054      335.221        5.707      854.064
02/06/2014  22:54:00     -372.003     -235.515        1.820      258.288      228.170      101.598    66712.611    52061.364    10322.110       16.145        6.455      440.288      120.384        0.075      335.216        5.700      854.026
02/06/2014  22:55:00     -460.547     -188.485      -18.614      235.601      177.512      101.231    55507.752    31510.579    10247.628       17.260        4.863      497.624      102.821        0.043      335.214        5.695      854.062
02/06/2014  22:56:00     -339.786     -150.801       15.591      177.669      168.155       85.780    31566.117    28276.121     7358.234       10.281        3.360      371.747       92.730        0.062      335.180        5.639      854.084
02/06/2014  22:57:00     -334.120     -160.963      -16.277      197.998      161.958       82.074    39203.039    26230.283     6736.083       10.498        3.608      370.871      101.298        0.075      335.178        5.639      854.100
02/06/2014  22:58:00     -376.503     -136.264      -18.598      245.880      161.915       69.436    60456.989    26216.568     4821.356       12.607        4.575      400.403       84.666        0.045      335.193        5.661      854.056
02/06/2014  22:59:00     -297.729     -167.667       -3.428      148.908      121.512       60.908    22173.500    14765.137     3709.740        7.870        2.032      341.694       60.858        0.032      335.165        5.615      854.027
02/06/2014  23:00:00     -426.092     -270.329       -7.520      295.478      156.904       91.940    87307.253    24618.774     8452.978       18.751        6.019      504.611      105.487        0.044      335.178        5.637      853.999
02/06/2014  23:01:00     -451.295     -186.707       -1.932      272.511      212.910      115.270    74262.421    45330.690    13287.189       18.568        6.644      488.391      120.393        0.061      335.136        5.569      853.993
02/06/2014  23:02:00     -384.549     -212.280        8.376      259.311      204.715      109.017    67242.166    41908.088    11884.623       15.700        6.052      439.250      128.588        0.086      335.133        5.563      854.017
02/06/2014  23:03:00     -406.248     -339.552      -17.811      171.630      153.503       91.241    29456.871    23563.021     8324.886       17.099        3.067      529.465       91.758        0.030      335.167        5.618      854.015
02/06/2014  23:04:00     -347.174     -230.544        9.528      196.196      140.730       87.389    38493.061    19804.839     7636.874       11.984        3.297      416.749       92.348        0.049      335.122        5.545      854.039
02/06/2014  23:05:00     -385.070     -277.768      -24.556      151.957      107.982       72.594    23090.899    11660.210     5269.947       13.302        2.001      474.799       73.729        0.024      335.120        5.542      854.042
02/06/2014  23:06:00     -298.194     -249.207        6.028      221.696      193.664      100.508    49148.984    37505.880    10101.918       12.389        4.838      388.618      118.349        0.093      335.127        5.554      854.018
02/06/2014  23:07:00     -324.207     -235.306       -3.691      189.320      135.647       91.196    35841.914    18400.087     8316.779       11.152        3.128      400.598       95.191        0.056      335.108        5.520      854.006
02/06/2014  23:08:00     -437.170     -254.550       -3.476      184.309      161.808       88.206    33969.955    26181.793     7780.353       16.192        3.397      505.879       78.487        0.024      335.115        5.533      853.982
02/06/2014  23:09:00     -212.282     -152.696        6.389      241.883      138.265       85.216    58507.564    19117.311     7261.753        7.664        4.244      261.495      112.742        0.186      335.129        5.556      853.965
02/06/2014  23:10:00     -220.289     -177.326       22.295      224.020      202.643      102.664    50185.145    41064.127    10539.872        9.111        5.089      282.793      126.559        0.200      335.135        5.565      853.968
02/06/2014  23:11:00     -475.341     -262.253       -6.625      246.118      176.315       98.685    60574.249    31087.092     9738.695       19.807        5.070      542.887      108.848        0.040      335.135        5.566      853.932
02/06/2014  23:12:00     -484.902     -262.521       -5.180      231.004      136.149       85.881    53362.761    18536.573     7375.518       19.166        3.964      551.405      102.721        0.035      335.124        5.548      853.935
02/06/2014  23:13:00     -363.555     -297.756        3.211      208.574      180.437       93.206    43502.907    32557.463     8687.408       15.278        4.237      469.927       92.090        0.038      335.151        5.591      853.983
02/06/2014  23:14:00     -297.801     -126.323       -2.778      212.330      117.297       69.016    45083.865    13758.470     4763.258        8.412        3.180      323.485       76.116        0.055      335.147        5.588      854.048
02/06/2014  23:15:00     -361.882     -144.333        1.240      203.958      237.019       95.550    41598.973    56178.221     9129.790       12.933        5.345      389.603      102.014        0.069      335.151        5.591      854.042
02/06/2014  23:16:00     -486.411     -415.733      -24.557      328.232      232.093      129.667   107736.303    53867.153    16813.635       29.419        8.921      639.867      152.367        0.057      335.148        5.586      853.983
02/06/2014  23:17:00     -375.157     -261.413       -2.225      237.613      200.298      109.642    56460.063    40119.158    12021.463       15.882        5.430      457.252      134.724        0.087      335.141        5.576      854.010
02/06/2014  23:18:00     -333.466     -263.012       -8.753      200.136      173.728       98.037    40054.482    30181.360     9611.182       13.014        3.992      424.706       78.177        0.034      335.133        5.563      854.013
02/06/2014  23:19:00     -428.495     -347.340        3.863      272.112      208.911      114.777    74045.135    43643.961    13173.704       21.754        6.543      551.591      143.661        0.068      335.117        5.538      854.026
02/06/2014  23:20:00     -419.597     -315.564      -17.267      258.639      198.462      123.661    66894.045    39387.228    15291.930       19.874        6.079      525.016      117.086        0.050      335.097        5.504      854.017
02/06/2014  23:21:00     -448.736     -301.420       -7.735      348.758      187.999      120.039   121631.814    35343.452    14409.457       23.180        8.569      540.572      153.052        0.080      335.121        5.544      854.066
02/06/2014  23:22:00     -566.049     -355.334      -18.339      305.966      257.992      127.667    93615.203    66559.886    16298.775       31.171        8.824      668.337      149.569        0.050      335.128        5.555      854.073
02/06/2014  23:23:00     -436.597     -229.309       -2.174      256.121      211.016      131.308    65598.018    44527.838    17241.905       18.526        6.368      493.153      139.612        0.080      335.097        5.502      854.054
02/06/2014  23:24:00     -682.776     -202.277      -38.078      239.302      241.464      113.739    57265.213    58304.674    12936.587       31.851        6.425      712.109      114.490        0.026      335.097        5.504      854.035
02/06/2014  23:25:00     -436.994     -281.622      -25.745      210.435      219.984      103.351    44282.788    48392.949    10681.525       18.713        5.168      519.879      108.827        0.044      335.079        5.473      854.069
02/06/2014  23:26:00     -460.623     -156.276      -23.549      240.053      197.874      100.090    57625.534    39154.117    10017.922       17.196        5.340      486.412      110.785        0.052      335.081        5.477      854.083
02/06/2014  23:27:00     -552.527     -311.390       -5.338      324.231      245.550      131.667   105126.013    60294.643    17336.298       29.249        9.138      634.232      161.452        0.065      335.122        5.545      854.030
02/06/2014  23:28:00     -507.932     -423.654      -39.976      235.567      203.029      106.837    55491.692    41220.716    11414.051       27.358        5.406      661.421      126.250        0.036      335.139        5.574      854.089
02/06/2014  23:29:00     -611.516     -361.435      -34.871      179.456      155.379       85.922    32204.435    24142.758     7382.555       28.476        3.186      710.343       83.406        0.014      335.107        5.520      854.098
02/06/2014  23:30:00     -479.841     -194.330        1.201      290.898      166.522       96.391    84621.790    27729.710     9291.287       19.481        6.082      517.698      117.343        0.051      335.097        5.503      854.104
02/06/2014  23:31:00     -410.288     -224.947       -8.293      269.803      230.788      113.897    72793.438    53263.074    12972.482       17.899        6.951      467.908      134.487        0.083      335.063        5.447      854.029
02/06/2014  23:32:00     -389.531     -200.036      -11.393      187.516      142.696       95.022    35162.311    20362.063     9029.090       12.821        3.228      437.891       81.074        0.034      335.072        5.462      854.042
02/06/2014  23:33:00     -303.087     -235.965       -3.973      199.623      157.067       94.153    39849.378    24669.995     8864.800       11.046        3.669      384.111       99.359        0.067      335.063        5.447      854.040
02/06/2014  23:34:00     -389.555     -218.053        3.620      212.709      219.617      101.375    45245.034    48231.468    10276.882       15.152        5.188      446.431      112.902        0.064      335.052        5.427      854.015
02/06/2014  23:35:00     -501.354      -66.067      -28.133      261.574      170.518       97.434    68420.852    29076.519     9493.459       18.173        5.350      505.688      112.194        0.049      335.056        5.435      854.019
02/06/2014  23:36:00     -510.194     -215.310      -21.069      276.128      195.286      109.527    76246.587    38136.439    11996.214       21.672        6.319      553.765      117.446        0.045      335.125        5.549      853.996
02/06/2014  23:37:00     -373.571     -221.587       -1.881      182.350      157.388       84.758    33251.607    24771.004     7183.878       12.692        3.260      434.346       84.884        0.038      335.122        5.546      854.020
02/06/2014  23:38:00     -554.618     -250.084      -46.999      262.558      215.672      104.496    68936.761    46514.244    10919.465       24.934        6.319      608.394      126.922        0.044      335.145        5.584      854.005
02/06/2014  23:39:00     -423.446     -168.259        1.979      269.107      152.556      100.950    72418.413    23273.242    10190.923       15.673        5.294      455.650      126.615        0.077      335.128        5.555      853.963
02/06/2014  23:40:00     -330.541     -174.639       -2.025      188.693      159.237       88.938    35605.215    25356.430     7910.024       10.430        3.444      373.840       95.646        0.065      335.102        5.511      854.021
02/06/2014  23:41:00     -389.899     -196.114      -12.817      210.848      174.088       91.652    44457.040    30306.645     8400.055       13.689        4.158      436.443       88.530        0.041      335.072        5.461      854.006
02/06/2014  23:42:00     -475.774     -233.797      -12.803      247.259      155.198      100.881    61137.127    24086.486    10177.035       18.828        4.770      530.115      102.992        0.038      335.074        5.465      854.014
02/06/2014  23:43:00     -466.173     -264.692       -9.757      233.243      138.696      105.118    54402.292    19236.457    11049.758       18.607        4.234      536.078      109.480        0.042      335.054        5.431      854.012
02/06/2014  23:44:00     -329.785     -285.293       -2.247      183.580      182.173       87.317    33701.557    33186.923     7624.226       13.232        3.726      436.062       92.822        0.045      335.053        5.428      854.037
02/06/2014  23:45:00     -361.546     -186.233      -23.669      276.686      161.590       89.720    76555.330    26111.206     8049.611       13.832        5.536      406.692      112.621        0.077      335.064        5.450      854.047
02/06/2014  23:46:00     -295.080     -183.977        5.085      160.960      120.816       75.198    25908.111    14596.533     5654.730        8.354        2.308      347.736       81.105        0.054      335.069        5.455      854.053
02/06/2014  23:47:00     -250.898      -92.664      -22.913      156.874      129.559       65.271    24609.419    16785.415     4260.357        5.885        2.283      267.463       70.321        0.069      335.013        5.364      854.080
02/06/2014  23:48:00     -491.762     -243.483      -11.793      287.811      178.505       85.117    82834.925    31864.057     7244.872       21.158        6.097      548.739      101.566        0.034      335.061        5.443      854.073
02/06/2014  23:49:00     -389.771     -200.779      -11.438      207.200      165.765       79.615    42931.825    27478.100     6338.534       13.454        3.837      438.445       80.038        0.033      335.052        5.429      854.078
02/06/2014  23:50:00     -429.344     -156.081      -22.446      272.542      190.671      106.281    74279.073    36355.290    11295.563       16.555        6.096      456.834      146.432        0.103      335.075        5.467      854.105
02/06/2014  23:51:00     -216.127     -151.471        6.288      139.937      126.782       64.708    19582.270    16073.750     4187.114        5.476        1.992      263.921       48.774        0.034      335.069        5.456      854.135
02/06/2014  23:52:00     -329.011     -182.360      -11.622      153.066      121.857       69.233    23429.229    14849.140     4793.255        9.235        2.154      376.169       68.284        0.033      335.048        5.421      854.131
02/06/2014  23:53:00     -290.532     -124.945      -14.477      131.718      152.875       75.837    17349.624    23370.685     5751.214        7.334        2.324      316.260       70.899        0.050      335.040        5.408      854.158
02/06/2014  23:54:00     -346.397     -118.968       -9.617      176.637      182.440      102.478    31200.514    33284.381    10501.743       10.460        3.749      366.257       93.616        0.065      335.023        5.380      854.117
02/06/2014  23:55:00     -242.477      -45.491       -2.285      107.183       88.782       61.713    11488.267     7882.328     3808.494        4.202        1.159      246.708       56.122        0.052      335.017        5.370      854.100
02/06/2014  23:56:00     -204.853     -108.567       13.869      158.320      121.217       65.775    25065.337    14693.585     4326.384        4.901        2.204      231.843       70.792        0.093      335.005        5.351      854.094
02/06/2014  23:57:00     -454.760     -166.424      -18.651      260.808      202.678       95.410    68021.061    41078.365     9103.013       17.651        5.910      484.256      115.580        0.057      335.041        5.410      854.051
02/06/2014  23:58:00     -342.733     -134.830      -12.734      193.617      138.280       93.154    37487.487    19121.278     8677.755       10.054        3.264      368.300       81.861        0.049      335.055        5.434      853.996
02/06/2014  23:59:00     -320.828     -191.977       -0.376      205.861      126.708       92.047    42378.675    16054.861     8472.649       10.333        3.345      373.879       90.333        0.058      335.025        5.383      853.995
